     2              OBSERVATION DATA    GPS                 RINEX VERSION / TYPE
teqc 2000Feb29 20030805 03:05:32UTC                         PGM / RUN BY / DATE
                                                            COMMENT
L2: 1 -> 1; 150 -> 5; 250 -> 9                              COMMENT
L2: 1 -> 1; 150 -> 5; 250 -> 9                              COMMENT
L2: 1 -> 1; 150 -> 5; 250 -> 9                              COMMENT
L2: 1 -> 1; 150 -> 5; 250 -> 9                              COMMENT
L2: 1 -> 1; 150 -> 5; 250 -> 9                              COMMENT
Original Marker Name: MADR                                  COMMENT
Campaign Name: USC/SCEC 2003                                COMMENT
4-Character Station Name: MADC                              COMMENT
6-Character Antenna Code: DMRCHT                            COMMENT
Vertical Measurement Point: BCR                             COMMENT
Vertical Offset to Rinex Ref. Point: 0.0348                 COMMENT
Radial Measurement Point: ECF                               COMMENT
Radial Offset to Rinex Ref. Point: 0.1897                   COMMENT
Antenna Height from Field Measurement: 1.0190 m             COMMENT
Additional Antenna Identification Info.:                    COMMENT
Turborogue and Ashtech Choke Ring                           COMMENT
Original XYZ: -2634380.6389 -4553316.0694 3595908.4964      COMMENT
New XYZ position is based on association with SCEC monument COMMENT
E1E9R6M7+0011. Position of that monument is believed to be  COMMENT
valid to within 1 m horizontally; vertical accuracy         COMMENT
should be no worse than 3-times this value.                 COMMENT
                                                            COMMENT
Revised Rinex header created by UCSD GPS archive for        COMMENT
GSAC on 09-Nov-2004 (2004:314) 22:44:53 GMT                 COMMENT
For assistance contact dagnew@ucsd.edu                      COMMENT
or anderson@python.ucsd.edu                                 COMMENT
                                                            COMMENT
MADRE ECC 1980                                              MARKER NAME
KEA UNIV SOUTHERN CALIFORNIA                                OBSERVER / AGENCY
175 ASHTECH Z-XII3 CD00                                     REC # / TYPE / VERS
381 DORNE-MARGOL. TYPE T                                    ANT # / TYPE
 -2618499.0000 -4523125.0000  3645287.0000                  APPROX POSITION XYZ
        0.9664        0.0000        0.0000                  ANTENNA: DELTA H/E/N
     1     1     0                                          WAVELENGTH FACT L1/2
     7    C1    L1    L2    P1    P2    S1    S2            # / TYPES OF OBSERV
     0                                                      INTERVAL
  2003     3    21    22     8    0.000000                  TIME OF FIRST OBS
  2003     3    21    23    59   30.000000                  TIME OF LAST OBS
                                                            END OF HEADER
 03  3 21 22  8  0.0000000  0  9G10G23G18G17G 6G15G30G29G26
                    157589.31849    111995.44345                  23847044.638
       214.000         142.000
                   -285738.22249   -205898.68943
       238.000          74.000
  22621918.481     -373707.25949   -266722.97746  22621918.542    22621926.302
       229.000         175.000
  21259252.735     -164716.86349   -118109.96147  21259252.006    21259259.712
       243.000         207.000
  20453516.219      -44705.00649    -32231.77748  20453516.365    20453523.016
       244.000         213.000
  22946632.688     -296681.34749   -211996.54746  22946632.117    22946641.124
       223.000         169.000
  23337129.260      235891.43149    170592.36446  23337129.571    23337139.980
       221.000         164.000
                   -138984.97749    -99718.76843
       220.000          78.000
  22454199.773     -258850.11049   -187495.83746  22454199.741    22454208.746
       221.000         168.000
 03  3 21 22  8 30.0000000  0 10G10G23G18G17G16G 6G15G30G29G26
  23758700.672     -306609.57049   -249718.12145  23758699.345    23758710.647
       213.000         150.000
                   -917179.11149   -478498.57747                  21435796.997
       238.000         191.000
  22496421.603    -1033201.84949   -780614.77546  22496420.352    22496428.431
       227.000         175.000
  21146334.302     -758107.21149   -580492.03047  21146333.588    21146341.352
       241.000         209.000
  23899955.352     -814937.85749   -619388.66645  23899953.966    23899962.313
       211.000         149.000
  20348172.715     -598289.65749   -463596.45848  20348173.013    20348179.682
       243.000         213.000
  22825725.731     -932047.43449   -707086.94146  22825726.179    22825735.392
       223.000         169.000
  23248690.416     -228851.96549   -191545.52546  23248691.486    23248702.868
       217.000         164.000
                   -723561.46949   -555227.51643
       222.000          80.000
  22335495.848     -882643.69849   -673568.68446  22335494.699    22335504.787
       218.000         168.000
 03  3 21 22  9  0.0000000  0 10G10G23G18G17G16G 6G15G30G29G26
  23778408.761     -203035.98749   -169011.56445  23778408.750    23778420.128
       213.000         153.000
  21423728.519     -980561.54549   -527887.42547  21423728.102    21423735.950
       239.000         200.000
  22478996.339    -1124771.66149   -851967.79946  22478996.654    22479003.080
       230.000         176.000
  21141467.237     -783683.87149   -600421.88447  21141466.757    21141474.206
       242.000         209.000
  23888389.973     -875708.42649   -666742.27445  23888389.772    23888399.089
       215.000         151.000
  20350931.483     -583793.44649   -452300.73048  20350931.643    20350938.406
       244.000         213.000
  22812863.584     -999640.88749   -759757.10346  22812863.763    22812872.715
       222.000         170.000
  23268287.205     -125871.44049   -111301.13246  23268288.379    23268298.840
       219.000         164.000
                   -740001.12949   -568031.16543
       221.000          85.000
  22324898.127     -938332.07549   -716962.14346  22324898.984    22324907.041
       222.000         168.000
 03  3 21 22  9 30.0000000  0 10G10G23G18G17G16G 6G15G30G29G26
  23798144.634      -99326.41249    -88199.05845  23798144.897    23798154.780
       215.000         153.000
  21411747.797    -1043520.29649   -576946.13147  21411747.076    21411755.228
       237.000         202.000
  22461626.530    -1216050.89349   -923094.37846  22461625.540    22461633.042
       229.000         176.000
  21136634.092     -809082.03449   -620212.64847  21136633.563    21136641.098
       241.000         209.000
  23876912.681     -936019.89349   -713738.14945  23876911.318    23876920.550
       213.000         151.000
  20353775.055     -568850.52349   -440656.91848  20353775.235    20353781.916
       243.000         213.000
  22800027.128    -1067097.51749   -812320.66546  22800026.950    22800035.852
       222.000         170.000
  23287900.602      -22803.84049    -30988.90746  23287901.731    23287912.322
       217.000         164.000
                   -755937.95649   -395761.88443
       219.000          74.000
  22314390.879     -993548.24649   -759987.63746  22314391.438    22314400.420
       221.000         169.000
 03  3 21 22 10  0.0000000  0 10G10G23G18G17G16G 6G15G30G29G26
  23817905.377        4515.62249     -7283.33245  23817905.237    23817915.323
       214.000         153.000
  21399847.734    -1106054.77549   -625674.24547  21399847.354    21399855.517
       238.000         203.000
  22444312.038    -1307038.37849   -993993.63446  22444311.207    22444318.803
       228.000         176.000
  21131834.684     -834302.81749   -639865.19847  21131834.216    21131841.612
       241.000         209.000
  23865523.206     -995871.27449   -760375.51845  23865522.413    23865531.522
       212.000         151.000
  20356703.559     -553460.96549   -428665.07148  20356703.637    20356710.022
       243.000         213.000
  22787216.543    -1134417.96549   -864778.10646  22787217.208    22787224.663
       223.000         171.000
  23307529.844       80347.25349     49388.39646  23307531.242    23307541.705
       218.000         163.000
                   -771371.39449   -407787.58045                  22990335.405
       218.000         159.000
  22303973.951    -1048289.80149   -802643.31946  22303974.160    22303983.215
       221.000         170.000
 03  3 21 22 10 30.0000000  0 10G10G23G18G17G16G 6G15G30G29G26
  23837690.804      108487.89149     73733.88345  23837690.520    23837701.211
       214.000         154.000
  21388028.792    -1168163.89349   -674070.90147  21388028.366    21388036.265
       239.000         203.000
  22427053.314    -1397732.31949  -1064664.14646  22427052.605    22427060.237
       229.000         177.000
  21127069.121     -859345.97249   -659379.32947  21127068.505    21127076.196
       241.000         209.000
  23854221.807    -1055260.38949   -806652.68645  23854221.106    23854231.129
       212.000         153.000
  20359717.330     -537624.07049   -416324.65548  20359717.451    20359723.826
       244.000         213.000
  22774431.966    -1201602.32149   -917129.50046  22774431.569    22774440.563
       223.000         171.000
  23327174.408      183579.15549    129828.65846  23327175.442    23327186.174
       217.000         163.000
  22987485.797     -786299.93949   -419420.17146  22987485.705    22987494.098
       221.000         169.000
  22293647.969    -1102553.71249   -844926.81346  22293648.049    22293657.080
       221.000         171.000
 03  3 21 22 11  0.0000000  0 10G10G23G18G17G16G 6G15G30G29G26
  23857500.653      212588.52449    154851.11145  23857499.996    23857511.409
       214.000         155.000
  21376291.084    -1229846.04349   -722134.86047  21376290.622    21376298.855
       239.000         203.000
  22409851.134    -1488130.16749  -1135103.94046  22409850.004    22409858.473
       231.000         177.000
  21122337.318     -884211.66349   -678755.18647  21122337.060    21122344.606
       242.000         209.000
  23843008.867    -1114184.98249   -852567.87545  23843008.599    23843017.313
       212.000         153.000
  20362816.407     -521338.53949   -403634.65448  20362816.675    20362823.063
       244.000         213.000
  22761673.296    -1268649.91449   -969374.33346  22761672.222    22761681.568
       224.000         171.000
  23346833.823      286889.33349    210329.91645  23346834.573    23346846.127
       216.000         162.000
  22984741.441     -800721.80149   -430657.94646  22984741.465    22984750.209
       222.000         171.000
  22283413.349    -1156336.58249   -886835.46046  22283413.194    22283422.734
       219.000         171.000
 03  3 21 22 11 30.0000000  0 10G10G23G18G17G16G 6G15G30G29G26
  23877334.420      316815.12449    236066.48245  23877334.205    23877345.639
       213.000         154.000
  21364634.861    -1291099.97749   -769865.14247  21364634.122    21364642.816
       239.000         204.000
  22392705.733    -1578229.78149  -1205311.34046  22392704.783    22392712.655
       229.000         178.000
  21117639.367     -908899.84649   -697992.71647  21117638.803    21117646.672
       241.000         209.000
  23831884.586    -1172642.94249   -898119.46345  23831884.080    23831892.677
       213.000         152.000
  20366001.067     -504603.48549   -390594.37548  20366001.311    20366007.723
       244.000         214.000
  22748940.589    -1335560.57049  -1021512.45546  22748940.606    22748948.512
       224.000         172.000
  23366507.488      390275.45149    290890.33945  23366507.493    23366519.014
       213.000         160.000
  22982093.648     -814635.77949   -441499.97546  22982093.398    22982102.072
       221.000         171.000
  22273270.710    -1209635.17549   -928366.74846  22273270.825    22273280.418
       220.000         171.000
 03  3 21 22 12  0.0000000  0 10G10G23G18G17G16G 6G15G30G29G26
  23897191.776      421165.29549    317378.14845  23897190.539    23897201.443
       214.000         153.000
  21353060.370    -1351924.27349   -817260.64247  21353059.704    21353068.069
       238.000         204.000
  22375617.325    -1668029.53549  -1275285.09346  22375617.243    22375625.358
       230.000         179.000
  21112975.085     -933410.74449   -717092.11247  21112974.512    21112982.331
       241.000         209.000
  23820849.390    -1230632.19449   -943305.82545  23820849.469    23820858.191
       212.000         152.000
  20369271.381     -487418.18349   -377203.25048  20369271.567    20369278.243
       244.000         214.000
  22736234.094    -1402334.07349  -1073543.69846  22736233.183    22736242.355
       221.000         172.000
  23386195.034      493734.38149    371507.52145  23386195.284    23386207.458
       213.000         160.000
  22979542.649     -828040.36949   -451945.08346  22979542.883    22979552.194
       212.000         168.000
  22263221.166    -1262446.61749   -969518.44246  22263221.692    22263231.040
       222.000         174.000
 03  3 21 22 12 30.0000000  0 10G10G23G18G17G16G 6G15G30G29G26
  23917071.824      525634.52049    398782.60545  23917070.647    23917081.643
       214.000         153.000
  21341567.415    -1412320.10049   -864322.26947  21341567.190    21341575.039
       239.000         204.000
  22358585.995    -1757529.71949  -1345025.40046  22358585.313    22358592.875
       230.000         180.000
  21108344.125     -957746.46949   -736055.00447  21108343.768    21108351.349
       243.000         209.000
  23809903.467    -1288153.44549   -988127.49545  23809902.547    23809913.533
       202.000         146.000
  20372627.081     -469784.16249   -363462.47048  20372627.174    20372633.873
       244.000         214.000
  22723553.146    -1468972.51649  -1125469.70846  22723552.472    22723561.327
       222.000         171.000
  23405895.577      597261.30849    452177.66745  23405896.625    23405907.214
       216.000         159.000
  22977088.624     -840936.82949   -461994.24246  22977089.112    22977098.092
       220.000         169.000
  22253264.298    -1314770.21549  -1010289.98446  22253264.206    22253273.543
       219.000         174.000
 03  3 21 22 13  0.0000000  0 10G10G23G18G17G16G 6G15G30G29G26
  23936974.604      630223.54749    480280.37345  23936974.318    23936985.249
       215.000         154.000
  21330156.956    -1472283.02949   -911046.57647  21330156.610    21330164.672
       240.000         205.000
  22341612.588    -1846725.30449  -1414528.35646  22341612.054    22341619.371
       231.000         180.000
  21103747.197     -981904.04049   -754879.07047  21103746.990    21103754.576
       242.000         210.000
  23799047.388    -1345201.52849  -1032580.49045  23799047.003    23799055.489
       210.000         144.000
  20376068.906     -451697.55449   -349369.03548  20376069.091    20376075.491
       243.000         213.000
  22710898.516    -1535472.49649  -1177287.81046  22710897.453    22710907.455
       226.000         171.000
  23425609.347      700856.61549    532901.08445  23425610.227    23425621.415
       215.000         158.000
  22974732.137     -853320.43849   -471643.78446  22974731.844    22974741.092
       222.000         171.000
  22243401.361    -1366599.65049  -1050676.49546  22243401.783    22243410.965
       220.000         172.000
 03  3 21 22 13 30.0000000  0 10G10G23G18G17G16G 6G15G30G29G26
  23956899.361      734927.79249    561867.95145  23956899.574    23956909.281
       218.000         153.000
  21318828.611    -1531814.13049   -957434.39447  21318827.903    21318835.886
       241.000         205.000
  22324697.092    -1935616.74749  -1483794.32946  22324696.714    22324703.864
       232.000         181.000
  21099183.656    -1005885.77649   -773566.12047  21099183.010    21099190.765
       243.000         209.000
  23788281.440    -1401776.81049  -1076665.07245  23788280.976    23788290.183
       213.000         149.000
  20379596.589     -433159.75949   -334924.01848  20379596.539    20379603.137
       245.000         213.000
  22698269.923    -1601836.14849  -1228999.69246  22698268.546    22698278.767
       226.000         172.000
  23445335.278      804515.49249    613674.03145  23445335.732    23445347.490
       218.000         159.000
  22972473.058     -865192.26249   -480894.52946  22972473.208    22972481.099
       224.000         172.000
  22233632.741    -1417934.45349  -1090677.55746  22233633.076    22233641.813
       224.000         172.000
 03  3 21 22 14  0.0000000  0 10G10G23G18G17G16G 6G15G30G29G26
  23976845.554      839745.35449    643543.81645  23976845.515    23976856.255
       215.000         151.000
  21307582.600    -1590911.85449  -1003484.52147  21307582.268    21307590.019
       239.000         205.000
  22307840.000    -2024201.05249  -1552820.96346  22307839.354    22307847.344
       230.000         181.000
  21094653.600    -1029691.17349   -792115.77347  21094653.086    21094660.635
       241.000         209.000
  23777606.027    -1457876.50049  -1120379.05745  23777605.276    23777613.913
       211.000         150.000
  20383210.268     -414169.61349   -320126.52248  20383210.087    20383216.975
       242.000         213.000
  22685667.259    -1668062.80849  -1280604.82246  22685667.069    22685676.731
       225.000         172.000
  23465072.867      908235.50849    694494.62545  23465073.827    23465085.553
       216.000         158.000
  22970311.676     -876550.56649   -489745.13746  22970311.824    22970320.275
       221.000         172.000
  22223958.850    -1468771.00749  -1130290.38546  22223959.103    22223967.385
       218.000         171.000
 03  3 21 22 14 30.0000000  0 10G10G23G18G17G16G 6G15G30G29G26
  23996812.792      944673.19949    725305.62745  23996811.603    23996822.449
       215.000         150.000
  21296419.201    -1649575.66649  -1049196.53247  21296418.836    21296426.667
       242.000         206.000
  22291041.538    -2112477.35749  -1621607.60146  22291041.293    22291048.820
       234.000         182.000
  21090156.952    -1053321.07549   -810528.66847  21090156.618    21090164.175
       243.000         209.000
  23767021.310    -1513499.65149  -1163721.71645  23767021.314    23767029.878
       213.000         151.000
  20386910.044     -394726.98849   -304976.44148  20386910.066    20386916.807
       244.000         213.000
  22673090.768    -1734152.95149  -1332103.58146  22673090.356    22673098.227
       228.000         172.000
  23484821.438     1012013.34249    775360.27745  23484822.176    23484833.890
       217.000         158.000
  22968248.127     -887394.51649   -498194.93446  22968247.543    22968256.846
       219.000         170.000
  22214379.977    -1519107.05149  -1169513.20646  22214379.415    22214389.153
       220.000         169.000
 03  3 21 22 15  0.0000000  0 10G10G23G18G17G16G 6G15G30G29G26
  24016800.696     1049710.03949    807152.35845  24016800.505    24016810.301
       212.000         149.000
  21285338.715    -1707803.89349  -1094569.12747  21285338.117    21285346.317
       240.000         206.000
  22274302.335    -2200443.18449  -1690152.29946  22274301.962    22274309.536
       232.000         183.000
  21085693.876    -1076775.02449   -828804.46347  21085693.668    21085701.026
       242.000         209.000
  23756527.846    -1568643.95349  -1206691.23345  23756527.648    23756535.325
       210.000         151.000
  20390696.205     -374830.64149   -289472.82047  20390696.205    20390703.199
       242.000         212.000
  22660540.287    -1800106.01649  -1383495.53446  22660540.324    22660548.099
       226.000         173.000
  23504580.424     1115846.90049    856269.33745  23504581.077    23504592.345
       215.000         158.000
  22966282.579     -897722.45949   -506242.66646  22966282.733    22966291.991
       218.000         169.000
  22204897.164    -1568939.11049  -1208343.31246  22204897.819    22204905.972
       220.000         170.000
 03  3 21 22 15 30.0000000  0 10G10G23G18G17G16G 6G15G30G29G26
  24036808.527     1154851.76449    889080.82845  24036807.604    24036819.186
       211.000         148.000
  21274340.982    -1765596.91149  -1139602.59747  21274340.560    21274348.652
       240.000         207.000
  22257622.137    -2288098.07949  -1758454.72046  22257621.959    22257628.753
       233.000         183.000
  21081264.001    -1100054.38849   -846944.21247  21081263.455    21081271.152
       242.000         209.000
  23746125.437    -1623309.09149  -1249287.39145  23746124.850    23746133.741
       213.000         152.000
  20394568.556     -354481.41849   -273616.29647  20394568.324    20394575.567
       243.000         212.000
  22648015.780    -1865923.05749  -1434781.48046  22648015.265    22648023.803
       227.000         174.000
  23524349.221     1219732.07349    937218.63745  23524350.351    23524361.221
       216.000         159.000
  22964415.307     -907534.68249   -513888.53146  22964415.656    22964424.218
       220.000         169.000
  22195510.715    -1618265.72049  -1246779.55046  22195511.017    22195519.776
       221.000         171.000
 03  3 21 22 16  0.0000000  0 10G10G23G18G17G16G 6G15G30G29G26
  24056836.290     1260098.39249    971091.02745  24056835.749    24056846.998
       211.000         146.000
  21263426.802    -1822951.25949  -1184294.25547  21263426.616    21263434.462
       241.000         207.000
  22241001.911    -2375438.10249  -1826511.78146  22241001.435    22241008.528
       233.000         184.000
  21076867.652    -1123157.39849   -864946.55447  21076867.268    21076874.693
       241.000         209.000
  23735814.906    -1677490.91349  -1291506.94445  23735814.358    23735822.960
       212.000         153.000
  20398527.616     -333676.41249   -257404.63247  20398527.803    20398534.452
       243.000         212.000
  22635517.545    -1931601.64849  -1485959.55446  22635517.397    22635526.342
       225.000         174.000
  23544127.870     1323668.42549   1018207.79645  23544129.129    23544140.349
       214.000         158.000
  22962646.912     -916827.84449   -521129.93546  22962647.480    22962656.125
       219.000         169.000
  22186221.274    -1667081.85449  -1284818.02846  22186221.648    22186230.207
       222.000         172.000
 03  3 21 22 16 30.0000000  0 10G10G23G18G17G16G 6G15G30G29G26
  24076883.151     1365444.87949   1053179.03345  24076881.522    24076893.875
       210.000         146.000
  21252595.842    -1879868.65049  -1228645.42247  21252595.444    21252603.290
       242.000         207.000
  22224441.437    -2462463.79449  -1894323.92346  22224440.930    22224448.124
       233.000         185.000
  21072504.522    -1146085.95949   -882812.95547  21072504.149    21072511.747
       242.000         209.000
  23725596.282    -1731190.12549  -1333350.45345  23725596.022    23725604.422
       212.000         153.000
  20402573.113     -312417.57549   -240839.32647  20402573.023    20402580.043
       242.000         212.000
  22623045.154    -1997144.17349  -1537031.59846  22623045.012    22623053.392
       226.000         175.000
  23563915.283     1427650.53649   1099232.62145  23563916.390    23563927.198
       214.000         158.000
  22960977.049     -925603.45249   -527968.05446  22960978.086    22960985.905
       220.000         170.000
  22177029.088    -1715387.21949  -1322458.50846  22177029.172    22177038.163
       222.000         173.000
 03  3 21 22 17  0.0000000  0 10G10G23G18G17G16G 6G15G30G29G26
  24096948.718     1470889.55349   1135343.54545  24096948.670    24096959.766
       211.000         145.000
  21241848.358    -1936347.32049  -1272654.72947  21241848.005    21241855.861
       243.000         208.000
  22207941.426    -2549172.27049  -1961888.87846  22207941.282    22207948.478
       235.000         186.000
  21068174.535    -1168840.10149   -900543.44647  21068173.707    21068181.600
       242.000         209.000
  23715470.000    -1784404.18349  -1374815.91045  23715470.052    23715477.458
       213.000         153.000
  20406705.140     -290703.78349   -223919.51947  20406705.122    20406711.899
       243.000         212.000
  22610598.884    -2062550.01749  -1587997.13246  22610598.199    22610607.791
       227.000         175.000
  23583711.009     1531676.36949   1180291.50645  23583712.645    23583722.734
       213.000         157.000
  22959406.137     -933859.68349   -534401.46346  22959406.304    22959415.022
       221.000         170.000
  22167934.858    -1763178.40849  -1359698.32846  22167935.328    22167942.799
       224.000         173.000
 03  3 21 22 17 30.0000000  0 10G10G23G18G17G16G 6G15G30G29G26
  24117032.539     1576430.21749   1217582.86245  24117031.526    24117043.196
       208.000         144.000
  21231184.453    -1992386.42349  -1316321.51747  21231184.207    21231192.316
       242.000         208.000
  22191502.003    -2635562.26149  -2029205.66246  22191500.994    22191509.473
       234.000         187.000
  21063877.673    -1191419.98849   -918138.16147  21063877.351    21063884.954
       241.000         209.000
  23705436.367    -1837131.72049  -1415902.26745  23705435.878    23705444.859
       214.000         153.000
  20410923.827     -268534.58549   -206644.84447  20410924.161    20410930.807
       243.000         212.000
  22598178.659    -2127819.12549  -1638856.12246  22598178.457    22598187.185
       226.000         175.000
  23603514.511     1635743.20149   1261382.33245  23603514.747    23603526.728
       212.000         155.000
  22957933.977     -941595.74349   -540429.57546  22957934.413    22957942.757
       220.000         170.000
  22158938.942    -1810452.78749  -1396535.43546  22158939.246    22158947.034
       225.000         173.000
 03  3 21 22 18  0.0000000  0 10G10G23G18G17G16G 6G15G30G29G26
  24137134.118     1682064.69849   1299895.27545  24137133.390    24137145.690
       210.000         143.000
  21220604.392    -2047984.93349  -1359644.98547  21220604.081    21220611.706
       243.000         208.000
  22175123.408    -2721632.07049  -2096272.96146  22175122.612    22175129.766
       233.000         187.000
  21059614.094    -1213825.63449   -935597.09847  21059613.703    21059621.154
       241.000         209.000
  23695495.661    -1889370.95249  -1456608.11345  23695495.540    23695503.749
       214.000         154.000
  20415229.416     -245909.16049   -189014.66447  20415229.571    20415236.496
       243.000         212.000
  22585784.413    -2192951.42349  -1689608.51746  22585782.908    22585793.082
       226.000         175.000
  23623325.269     1739848.26849   1342502.93845  23623326.142    23623336.847
       211.000         154.000
  22956561.131     -948810.42849   -546051.39846  22956561.033    22956569.813
       219.000         170.000
  22150041.959    -1857207.32349  -1432967.47546  22150042.305    22150050.724
       225.000         174.000
 03  3 21 22 18 30.0000000  0 10G10G23G18G17G16G 6G15G30G29G26
  24157253.058     1787790.09749   1382278.52245  24157252.282    24157265.379
       211.000         144.000
  21210108.335    -2103142.45249  -1402624.82447  21210108.048    21210115.597
       245.000         208.000
  22158805.983    -2807380.20749  -2163089.59946  22158805.418    22158812.447
       236.000         187.000
  21055383.608    -1236057.19649   -952920.38347  21055383.122    21055390.827
       243.000         209.000
  23685648.076    -1941120.83549  -1496932.64445  23685648.317    23685655.760
       216.000         154.000
  20419621.767     -222827.45249   -171028.94147  20419621.830    20419628.780
       245.000         212.000
  22573416.057    -2257946.95649  -1740254.32146  22573415.510    22573424.066
       228.000         176.000
  23643142.678     1843988.39349   1423650.88045  23643144.372    23643154.946
       215.000         153.000
  22955287.478     -955503.03949   -551266.40946  22955287.665    22955296.024
       224.000         170.000
  22141244.197    -1903439.92049  -1468992.80946  22141243.606    22141253.161
       226.000         175.000
 03  3 21 22 19  0.0000000  0 10G10G23G18G17G16G 6G15G30G29G26
  24177388.907     1893604.19949   1464730.90445  24177389.102    24177400.473
       208.000         143.000
  21199696.388    -2157857.80549  -1445260.11447  21199695.866    21199703.507
       243.000         208.000
  22142550.170    -2892804.71249  -2229654.07046  22142549.622    22142556.766
       233.000         187.000
  21051186.137    -1258114.98649   -970108.26147  21051185.637    21051193.264
       241.000         209.000
  23675893.864    -1992379.30849  -1536874.26445  23675893.160    23675901.972
       215.000         154.000
  20424101.023     -199288.92949   -152687.26147  20424101.029    20424108.052
       243.000         212.000
  22561073.920    -2322805.62449  -1790793.47646  22561073.444    22561082.904
       227.000         176.000
  23662966.245     1948161.07149   1504824.19045  23662966.049    23662978.434
       212.000         154.000
  22954113.543     -961672.62849   -556073.87246  22954113.888    22954122.038
       222.000         171.000
  22132546.151    -1949147.75149  -1504609.24546  22132546.117    22132554.576
       223.000         175.000
 03  3 21 22 19 30.0000000  0 10G10G23G18G17G16G 6G15G30G29G26
  24197541.180     1999504.51649   1547250.45845  24197541.601    24197551.951
       207.000         142.000
  21189368.612    -2212130.36649  -1487550.38147  21189368.286    21189375.860
       243.000         208.000
  22126356.073    -2977904.34149  -2295965.38946  22126355.733    22126363.064
       233.000         187.000
  21047021.718    -1279999.27049   -987160.95247  21047021.460    21047028.773
       242.000         210.000
  23666233.392    -2043145.25849  -1576432.08745  23666232.948    23666241.089
       214.000         153.000
  20428667.272     -175293.35349   -133989.43847  20428667.618    20428674.306
       243.000         212.000
  22548757.597    -2387527.71249  -1841226.22946  22548756.800    22548765.983
       225.000         175.000
  23682795.187     2052363.10249   1586020.36845  23682795.342    23682808.399
       213.000         155.000
  22953039.313     -967318.68749   -560473.39646  22953039.821    22953047.571
       223.000         172.000
  22123948.458    -1994328.51449  -1539814.97946  22123947.890    22123956.949
       223.000         175.000
 03  3 21 22 20  0.0000000  0 10G10G23G18G17G16G 6G15G30G29G26
  24217709.524     2105489.51349   1629835.96945  24217709.419    24217721.677
       205.000         141.000
  21179125.434    -2265958.47749  -1529494.31447  21179125.007    21179132.596
       243.000         209.000
  22110224.318    -3062676.44249  -2362021.49546  22110223.661    22110231.091
       233.000         187.000
  21042890.499    -1301709.36249  -1004077.89647  21042890.020    21042897.549
       242.000         210.000
  23656667.289    -2093416.16049  -1615604.18345  23656666.690    23656674.834
       214.000         153.000
  20433320.804     -150839.41049   -114934.43847  20433320.936    20433327.487
       243.000         212.000
  22536467.373    -2452112.26649  -1891551.79046  22536466.779    22536476.266
       226.000         175.000
  23702629.430     2156592.62949   1667237.97845  23702631.140    23702642.414
       213.000         155.000
  22952064.898     -972439.31049   -564463.49146  22952064.686    22952073.033
       221.000         171.000
  22115451.761    -2038978.65649  -1574607.23546  22115451.502    22115460.009
       222.000         175.000
 03  3 21 22 20 30.0000000  0 10G10G23G18G17G16G 6G15G30G29G26
  24237893.335     2211556.31849   1712485.23645  24237891.657    24237905.702
       208.000         142.000
  21168966.901    -2319341.78949  -1571091.65447  21168966.509    21168974.364
       242.000         209.000
  22094155.188    -3147119.77349  -2427821.41246  22094154.455    22094162.166
       233.000         187.000
  21038792.221    -1323246.13549  -1020859.79447  21038792.067    21038799.280
       242.000         210.000
  23647195.508    -2143190.98649  -1654389.71745  23647194.418    23647202.699
       214.000         152.000
  20438061.548     -125926.99349    -95522.19347  20438061.614    20438068.399
       243.000         212.000
  22524203.457    -2516559.59249  -1941770.43646  22524203.169    22524212.301
       225.000         176.000
  23722468.458     2260846.56749   1748474.58945  23722469.606    23722481.297
       214.000         155.000
  22951190.480     -977034.10749   -568043.85946  22951190.402    22951198.798
       219.000         171.000
  22107056.358    -2083095.93549  -1608984.27546  22107056.353    22107064.677
       221.000         174.000
 03  3 21 22 21  0.0000000  0 10G10G23G18G17G16G 6G15G30G29G26
  24258092.397     2317702.65549   1795196.47845  24258091.822    24258104.743
       210.000         144.000
  21158893.129    -2372279.69449  -1612341.92847  21158892.613    21158900.465
       242.000         209.000
  22078148.807    -3231233.00149  -2493364.11046  22078148.206    22078156.004
       232.000         187.000
  21034726.820    -1344609.95449  -1037506.92247  21034726.282    21034733.956
       241.000         210.000
  23637818.117    -2192468.45449  -1692787.68245  23637817.120    23637825.587
       214.000         153.000
  20442889.508     -100556.05049    -75752.66547  20442889.652    20442896.053
       243.000         212.000
  22511965.587    -2580869.89349  -1991882.31046  22511965.101    22511973.831
       225.000         175.000
  23742311.717     2365121.82149   1829727.81245  23742313.348    23742324.168
       215.000         156.000
  22950416.297     -981102.69749   -571214.18246  22950416.277    22950425.188
       221.000         171.000
  22098762.777    -2126678.05449  -1642944.31146  22098762.685    22098771.651
       221.000         174.000
 03  3 21 22 21 30.0000000  0 10G10G23G18G17G16G 6G15G30G29G26
  24278306.164     2423925.44449   1877967.28345  24278305.689    24278317.959
       210.000         143.000
  21148904.145    -2424772.09349  -1653245.04547  21148903.439    21148911.524
       243.000         209.000
  22062205.487    -3315015.16349  -2558648.83346  22062205.213    22062212.376
       233.000         187.000
  21030694.222    -1365801.15049  -1054019.53247  21030693.594    21030701.441
       242.000         210.000
  23628535.744    -2241247.64749  -1730797.41545  23628535.305    23628542.934
       216.000         153.000
  20447804.670      -74726.88449    -55626.06447  20447804.929    20447811.481
       243.000         212.000
  22499753.835    -2645043.65849  -2041887.78446  22499752.785    22499762.417
       227.000         176.000
  23762158.426     2469415.02549   1910995.02445  23762159.699    23762170.538
       216.000         156.000
  22949742.253     -984644.63449   -573974.13446  22949742.164    22949750.709
       221.000         171.000
  22090571.361    -2169723.33249  -1676486.02146  22090570.916    22090581.015
       222.000         173.000
 03  3 21 22 22  0.0000000  0 10G10G23G18G17G16G 6G15G30G29G26
  24298534.125     2530222.52149   1960795.96845  24298533.675    24298545.811
       209.000         144.000
  21138999.982    -2476818.06349  -1693800.30647  21138999.345    21139007.169
       242.000         209.000
  22046325.637    -3398464.49349  -2623674.21947  22046325.446    22046332.507
       234.000         188.000
  21026694.461    -1386819.82549  -1070397.71747  21026693.883    21026701.428
       241.000         210.000
  23619348.560    -2289526.99149  -1768417.63745  23619347.866    23619355.297
       214.000         154.000
  20452807.103      -48438.95149    -35141.99247  20452806.996    20452813.922
       242.000         212.000
  22487567.966    -2709080.67849  -2091786.70546  22487567.331    22487576.205
       226.000         177.000
  23782008.101     2573723.50049   1992274.13745  23782009.617    23782019.734
       215.000         156.000
  22949168.529     -987659.20149   -576323.15346  22949168.541    22949177.031
       222.000         170.000
  22082482.682    -2212229.06949  -1709607.33546  22082483.265    22082492.110
       224.000         174.000
 03  3 21 22 22 30.0000000  0 10G10G23G18G17G16G 6G15G30G29G26
  24318775.948     2636592.54449   2043681.49245  24318776.321    24318787.521
       209.000         144.000
  21129181.140    -2528416.00449  -1734006.45347  21129180.783    21129188.743
       244.000         209.000
  22030509.604    -3481578.51549  -2688438.31747  22030509.266    22030516.617
       234.000         188.000
  21022727.636    -1407665.59149  -1086641.16947  21022727.269    21022734.918
       242.000         210.000
  23610256.727    -2337304.12849  -1805646.52545  23610256.599    23610264.437
       215.000         154.000
  20457897.027      -21691.20549    -14299.62847  20457897.023    20457904.332
       243.000         211.000
  22475408.218    -2772980.18849  -2141578.47946  22475407.629    22475416.622
       228.000         177.000
  23801860.196     2678045.26549   2073563.59245  23801861.784    23801872.562
       216.000         156.000
  22948695.467     -990144.94149   -578260.08646  22948695.169    22948704.831
       222.000         171.000
  22074497.459    -2254191.90749  -1742305.61146  22074497.304    22074506.560
       223.000         174.000
 03  3 21 22 23  0.0000000  0 10G10G23G18G17G16G 6G15G30G29G26
  24339030.956     2743032.00749   2126621.13645  24339030.840    24339043.109
       209.000         144.000
  21119447.614    -2579566.42949  -1773863.88347  21119446.971    21119455.016
       243.000         209.000
  22014757.394    -3564356.48749  -2752940.56546  22014756.851    22014764.683
       233.000         187.000
  21018793.562    -1428339.55549  -1102750.74447  21018793.152    21018800.432
       242.000         210.000
  23601260.605    -2384578.74749  -1842483.84745  23601259.828    23601268.575
       214.000         154.000
  20463074.308        5515.61749      6900.46147  20463074.258    20463081.419
       241.000         211.000
  22463274.698    -2836743.04649  -2191263.77446  22463273.739    22463282.766
       228.000         179.000
  23821714.065     2782376.66849   2154860.55545  23821714.670    23821725.949
       215.000         155.000
  22948323.032     -992102.02449   -579785.08046  22948322.587    22948331.830
       221.000         171.000
  22066615.778    -2295610.42049  -1774579.72346  22066616.060    22066624.008
       225.000         174.000
 03  3 21 22 23 30.0000000  0 10G10G23G18G17G16G 6G15G30G29G26
  24359298.724     2849538.16049   2209612.74945  24359298.878    24359311.354
       207.000         144.000
  21109799.220    -2630268.82649  -1813372.20047  21109798.631    21109806.635
       243.000         210.000
  21999069.272    -3646797.28449  -2817180.07547  21999068.832    21999075.699
       233.000         188.000
  21014892.092    -1448841.78349  -1118726.50147  21014891.503    21014899.191
       240.000         209.000
  23592360.331    -2431349.73649  -1878928.75345  23592359.799    23592367.888
       216.000         154.000
  20468338.931       33181.56849     28458.32547  20468338.824    20468346.021
       242.000         211.000
  22451167.018    -2900369.49749  -2240842.77546  22451166.291    22451175.155
       228.000         179.000
  23841569.110     2886714.59049   2236162.60945  23841570.045    23841580.664
       213.000         153.000
  22948051.253     -993529.99949   -580897.77646  22948050.735    22948059.678
       219.000         170.000
  22058838.159    -2336482.45249  -1806427.98446  22058838.424    22058846.685
       225.000         175.000
 03  3 21 22 24  0.0000000  0 10G10G23G18G17G16G 6G15G30G29G26
  24379579.087     2956111.39849   2292656.64645  24379578.699    24379590.883
       208.000         143.000
  21100236.688    -2680520.11549  -1852529.01847  21100236.450    21100244.078
       243.000         210.000
  21983446.289    -3728897.02349  -2881153.82247  21983446.167    21983452.824
       234.000         188.000
  21011023.629    -1469170.48849  -1134567.05647  21011023.221    21011030.880
       240.000         209.000
  23583556.612    -2477613.39449  -1914978.31845  23583556.094    23583564.271
       215.000         155.000
  20473691.520       61309.23849     50375.95047  20473691.738    20473698.507
       242.000         211.000
  22439085.796    -2963857.19949  -2290313.66746  22439086.154    22439093.795
       229.000         179.000
  23861425.280     2991058.63349   2317469.42245  23861425.539    23861437.255
       213.000         153.000
  22947880.601     -994425.88049   -581595.89546  22947880.213    22947889.217
       218.000         169.000
  22051165.226    -2376803.20549  -1837846.70646  22051165.446    22051174.408
       223.000         175.000
 03  3 21 22 24 30.0000000  0 10G10G23G18G17G16G 6G15G30G29G26
  24399871.247     3062746.76049   2375748.94945  24399871.291    24399882.510
       208.000         142.000
  21090759.600    -2730322.43649  -1891335.98147  21090759.171    21090766.856
       244.000         210.000
  21967887.878    -3810656.75649  -2944862.63147  21967887.568    21967894.740
       235.000         189.000
  21007187.694    -1489328.36449  -1150274.48147  21007187.407    21007195.019
       242.000         210.000
  23574849.223    -2523370.96049  -1950633.52645  23574848.202    23574856.077
       217.000         155.000
  20479131.509       89896.22749     72651.50147  20479131.592    20479138.372
       243.000         211.000
  22427030.472    -3027208.89249  -2339678.55946  22427029.910    22427038.756
       231.000         180.000
  23881281.590     3095403.49649   2398776.86845  23881283.372    23881294.613
       216.000         153.000
  22947810.904     -994791.71149   -581880.95846  22947811.351    22947819.712
       222.000         169.000
  22043597.152    -2416572.88949  -1868836.02446  22043597.785    22043606.652
       227.000         176.000
 03  3 21 22 25  0.0000000  0 10G10G23G18G17G16G 6G15G30G29G26
  24420175.030     3169443.11549   2458888.78045  24420175.065    24420187.287
       202.000         140.000
  21081368.317    -2779673.90449  -1929791.63647  21081367.903    21081375.522
       243.000         210.000
  21952394.714    -3892073.50649  -3008304.19647  21952394.264    21952401.300
       234.000         189.000
  21003384.673    -1509313.88549  -1165847.61447  21003384.420    21003392.142
       241.000         210.000
  23566238.657    -2568619.78749  -1985892.31445  23566237.953    23566245.523
       215.000         155.000
  20484659.157      118944.16349     95286.22147  20484659.106    20484666.339
       242.000         211.000
  22415001.141    -3090423.23049  -2388936.42446  22415000.678    22415008.351
       229.000         179.000
  23901137.739     3199747.69649   2480083.79845  23901139.136    23901149.297
       212.000         152.000
  22947842.694     -994625.67449   -581751.58546  22947842.769    22947850.725
       221.000         170.000
  22036134.946    -2455787.99349  -1899393.19146  22036135.171    22036143.593
       227.000         178.000
 03  3 21 22 25 30.0000000  0 10G10G23G18G17G16G 6G15G30G29G26
  24440489.951     3276197.67549   2542073.95845  24440489.691    24440501.695
       203.000         138.000
  21072062.874    -2828574.42949  -1967895.90647  21072062.555    21072069.977
       243.000         210.000
  21936967.058    -3973146.40349  -3071477.80347  21936966.674    21936973.617
       234.000         189.000
  20999614.159    -1529128.04549  -1181287.22047  20999613.750    20999621.445
       241.000         210.000
  23557725.052    -2613359.09049  -2020754.07545  23557724.507    23557732.557
       215.000         156.000
  20490274.437      148452.62449    118279.79647  20490274.548    20490281.470
       242.000         211.000
  22402997.835    -3153500.64249  -2438087.61046  22402997.198    22403005.445
       228.000         179.000
  23920993.150     3304087.84449   2561387.55645  23920993.641    23921006.315
       212.000         152.000
  22947975.645     -993927.79949   -581207.78846  22947976.237    22947983.403
       222.000         170.000
  22028778.520    -2494446.87849  -1929516.95246  22028779.014    22028786.680
       226.000         178.000
 03  3 21 22 26  0.0000000  0 10G10G23G18G17G16G 6G15G30G29G26
  24460815.488     3383007.90949   2625302.50945  24460815.350    24460827.615
       202.000         136.000
  21062843.358    -2877023.56949  -2005648.44347  21062843.037    21062850.504
       243.000         210.000
  21921604.964    -4053874.06649  -3134382.41047  21921604.649    21921612.370
       234.000         190.000
  20995876.186    -1548771.34749  -1196593.68447  20995875.818    20995883.669
       241.000         210.000
  23549308.602    -2657587.75249  -2055217.94045  23549308.823    23549315.653
       217.000         155.000
  20495977.436      178421.67149    141632.27147  20495977.530    20495984.416
       242.000         211.000
  22391020.570    -3216441.20449  -2487132.14846  22391019.620    22391028.492
       227.000         179.000
  23940847.309     3408421.01049   2642685.89945  23940847.666    23940859.967
       213.000         153.000
  22948209.788     -992697.60449   -580249.20046  22948209.445    22948218.044
       221.000         171.000
  22021528.288    -2532547.26449  -1959205.52746  22021528.383    22021537.256
       228.000         180.000
 03  3 21 22 26 30.0000000  0 10G10G23G18G17G16G 6G15G30G29G26
  24481151.404     3489872.53249   2708573.45945  24481150.962    24481164.288
       201.000         133.000
  21053709.940    -2925019.92749  -2043048.15547  21053709.200    21053716.929
       244.000         211.000
  21906309.065    -4134254.30349  -3197016.28147  21906308.398    21906316.326
       235.000         190.000
  20992170.845    -1568243.21849  -1211766.56647  20992170.173    20992178.163
       242.000         210.000
  23540989.685    -2701303.86849  -2089282.40445  23540989.282    23540998.365
       216.000         155.000
  20501768.187      208852.12249    165344.28647  20501768.141    20501775.147
       243.000         211.000
  22379069.407    -3279244.26849  -2536069.54846  22379068.273    22379076.966
       228.000         177.000
  23960699.821     3512745.28449   2723977.31145  23960700.882    23960713.155
       213.000         153.000
  22948545.379     -990933.89049   -578874.89246  22948545.033    22948554.612
       222.000         171.000
  22014384.877    -2570086.23349  -1988456.62946  22014385.108    22014394.098
       229.000         181.000
 03  3 21 22 27  0.0000000  0 10G10G23G18G17G16G 6G15G30G29G26
  24501497.004     3596788.78949   2791884.60545  24501498.266    24501508.404
       201.000         133.000
  21044662.658    -2972563.30849  -2080094.91047  21044662.094    21044669.735
       245.000         211.000
  21891079.559    -4214285.98349  -3259378.55947  21891078.851    21891085.900
       236.000         190.000
  20988498.133    -1587543.63449  -1226805.84647  20988497.416    20988504.913
       243.000         210.000
  23532768.421    -2744506.52249  -2122946.76945  23532768.224    23532775.717
       217.000         156.000
  20507646.696      239743.85849    189415.74147  20507646.682    20507653.426
       243.000         211.000
  22367144.583    -3341909.61549  -2584899.64446  22367143.699    22367152.129
       229.000         178.000
  23980549.949     3617057.56649   2805259.37545  23980550.141    23980562.968
       212.000         152.000
  22948982.423     -988636.34049   -577084.60446  22948982.520    22948992.184
       221.000         171.000
  22007348.661    -2607061.66949  -2017268.62346  22007348.829    22007357.174
       229.000         180.000
 03  3 21 22 27 30.0000000  0 10G10G23G18G17G16G 6G15G30G29G26
  24521852.086     3703754.99449   2875234.67445  24521853.004    24521864.006
       200.000         133.000
  21035701.826    -3019652.90649  -2116788.07047  21035701.297    21035709.126
       243.000         211.000
  21875916.718    -4293967.22349  -3321467.76547  21875915.679    21875923.032
       234.000         190.000
  20984857.973    -1606672.70149  -1241711.61347  20984857.396    20984865.006
       241.000         210.000
  23524645.266    -2787194.03249  -2156209.72045  23524645.797    23524652.413
       218.000         156.000
  20513613.145      271097.44349    213847.07047  20513613.151    20513619.841
       242.000         210.000
  22355245.919    -3404437.26449  -2633622.43646  22355244.336    22355253.357
       227.000         179.000
  24000397.296     3721355.53449   2886530.27145  24000397.900    24000410.769
       211.000         151.000
  22949521.397     -985804.26249   -574877.79746  22949521.247    22949530.233
       222.000         171.000
  22000420.271    -2643471.16849  -2045639.62246  22000420.326    22000428.665
       228.000         181.000
 03  3 21 22 28  0.0000000  0 10G10G23G18G17G16G 6G15G30G29G26
  24542215.938     3810767.57149   2958620.90045  24542215.178    24542226.976
       201.000         133.000
  21026827.188    -3066289.44449  -2153128.18447  21026826.331    21026834.427
       243.000         211.000
  21860820.438    -4373297.75949  -3383283.69947  21860819.629    21860826.781
       235.000         190.000
  20981250.295    -1625631.34549  -1256484.57147  20981249.603    20981257.138
       242.000         210.000
  23516620.136    -2829366.40849  -2189071.27145  23516619.213    23516627.953
       216.000         156.000
  20519667.222      302911.68349    238637.36247  20519667.010    20519674.100
       242.000         210.000
  22343373.198    -3466828.40249  -2682238.83846  22343372.285    22343381.110
       229.000         179.000
  24020241.313     3825635.08049   2967786.81445  24020243.262    24020253.759
       214.000         150.000
  22950161.929     -982438.37649   -572255.03446  22950162.053    22950171.280
       222.000         172.000
  21993599.684    -2679313.73149  -2073568.86346  21993599.418    21993608.706
       229.000         181.000
 03  3 21 22 28 30.0000000  0 10G10G23G18G17G16G 6G15G30G29G26
  24562588.629     3917826.12349   3042042.95944  24562587.275    24562601.094
       200.000         131.000
  21018039.136    -3112470.66949  -2189113.52647  21018038.725    21018046.485
       244.000         211.000
  21845791.593    -4452274.54149  -3444823.98547  21845791.333    21845798.159
       236.000         191.000
  20977675.168    -1644418.59149  -1271123.98347  20977674.698    20977682.637
       242.000         210.000
  23508693.415    -2871020.81449  -2221529.20645  23508693.090    23508701.097
       218.000         157.000
  20525809.289      335188.46649    263788.07047  20525809.218    20525816.488
       243.000         210.000
  22331526.909    -3529081.16149  -2730747.42846  22331525.986    22331534.989
       229.000         180.000
  24040081.699     3929895.48249   3049028.42645  24040083.497    24040092.894
       213.000         150.000
  22950904.465     -978536.44749   -569214.57546  22950905.149    22950913.017
       223.000         172.000
  21986887.774    -2714585.27749  -2101053.16046  21986887.155    21986896.441
       229.000         181.000
 03  3 21 22 29  0.0000000  0 10G10G23G18G17G16G 6G15G30G29G26
  24582969.116     4024925.72449   3125497.00345  24582969.954    24582981.437
       201.000         132.000
  21009337.380    -3158198.68649  -2224745.70447  21009336.859    21009344.476
       244.000         211.000
  21830829.836    -4530898.97749  -3506089.70847  21830829.501    21830836.778
       236.000         191.000
  20974132.319    -1663036.67749  -1285631.57147  20974131.781    20974139.776
       242.000         210.000
  23500865.225    -2912158.84249  -2253584.78945  23500865.779    23500873.593
       220.000         159.000
  20532038.926      367925.20849    289297.19047  20532039.055    20532046.192
       243.000         211.000
  22319706.375    -3591198.11249  -2779150.19946  22319705.979    22319714.450
       228.000         180.000
  24059917.084     4034131.12949   3130250.76145  24059917.616    24059928.421
       211.000         149.000
  22951748.715     -974100.92549   -565758.33746  22951748.675    22951757.264
       224.000         173.000
  21980284.282    -2749286.48149  -2128093.03446  21980284.586    21980292.097
       227.000         181.000
 03  3 21 22 29 30.0000000  0 10G10G23G18G17G16G 6G15G30G29G26
  24603357.623     4132067.48749   3208983.90245  24603356.351    24603370.833
       203.000         133.000
  21000722.552    -3203469.86649  -2260021.91047  21000722.023    21000729.586
       243.000         211.000
  21815936.066    -4609166.11549  -3567077.01847  21815935.482    21815941.984
       236.000         192.000
  20970622.199    -1681482.26749  -1300004.75847  20970621.511    20970629.197
       242.000         210.000
  23493136.166    -2952775.87949  -2285234.39645  23493135.631    23493144.107
       218.000         159.000
  20538356.809      401125.23549    315167.30947  20538356.791    20538363.748
       243.000         211.000
  22307912.340    -3653175.73349  -2827444.40146  22307911.724    22307919.910
       228.000         179.000
  24079747.938     4138342.77849   3211454.39545  24079748.917    24079760.922
       210.000         148.000
  22952695.224     -969128.04349   -561883.35646  22952695.689    22952703.933
       224.000         173.000
  21973790.453    -2783411.96649  -2154684.28946  21973790.961    21973798.180
       229.000         181.000
 03  3 21 22 30  0.0000000  0 10G10G23G18G17G16G 6G15G30G29G26
  24623753.366     4239247.19549   3292500.39845  24623752.731    24623765.547
       202.000         133.000
  20992194.381    -3248285.67049  -2294943.27547  20992193.677    20992201.292
       244.000         211.000
  21801110.256    -4687076.45949  -3627786.30347  21801109.576    21801116.835
       237.000         192.000
  20967144.456    -1699757.94249  -1314245.53347  20967144.038    20967151.497
       242.000         210.000
  23485505.879    -2992872.80749  -2316478.70145  23485505.133    23485513.408
       217.000         159.000
  20544762.447      434786.75149    341397.03847  20544762.367    20544769.118
       244.000         211.000
  22296144.503    -3715016.15849  -2875631.67746  22296143.851    22296152.301
       229.000         179.000
  24099573.560     4242525.76349   3292635.68945  24099574.762    24099587.085
       212.000         148.000
  22953743.580     -963619.47449   -557590.95646  22953743.734    22953752.973
       223.000         174.000
  21967406.269    -2816961.56849  -2180826.79846  21967406.011    21967413.596
       230.000         182.000
 03  3 21 22 30 30.0000000  0 10G10G23G18G17G16G 6G15G30G29G26
  24644155.928     4346462.82149   3376044.90145  24644156.126    24644168.615
       203.000         132.000
  20983752.975    -3292645.62849  -2329509.43947  20983752.510    20983760.210
       243.000         211.000
  21786352.676    -4764628.10149  -3688216.09547  21786352.502    21786359.464
       236.000         193.000
  20963699.021    -1717863.85549  -1328354.04047  20963698.703    20963706.167
       241.000         210.000
  23477974.833    -3032448.21649  -2347316.64245  23477975.096    23477982.929
       218.000         159.000
  20551255.882      468909.88149    367986.45347  20551255.932    20551262.986
       243.000         210.000
  22284402.752    -3776719.25449  -2923711.97946  22284402.000    22284410.863
       227.000         179.000
  24119393.176     4346677.33049   3373792.46845  24119394.641    24119406.957
       210.000         148.000
  22954893.775     -957574.69549   -552880.73546  22954893.108    22954902.832
       220.000         174.000
  21961131.853    -2849933.07049  -2206518.86146  21961131.295    21961139.989
       225.000         181.000
 03  3 21 22 31  0.0000000  0 10G10G23G18G17G16G 6G15G30G29G26
  24664565.065     4453712.89249   3459616.24145  24664564.557    24664578.295
       202.000         132.000
  20975398.417    -3336548.69749  -2363719.58347  20975397.924    20975405.626
       243.000         212.000
  21771663.642    -4841819.46649  -3748365.13947  21771663.121    21771669.948
       236.000         193.000
  20960285.975    -1735799.45849  -1342329.82547  20960285.536    20960293.409
       241.000         210.000
  23470543.545    -3071500.46649  -2377746.93645  23470543.481    23470551.803
       217.000         159.000
  20557837.295      503495.36149    394936.14547  20557837.245    20557844.269
       242.000         210.000
  22272687.286    -3838284.30549  -2971684.69846  22272686.590    22272694.947
       228.000         180.000
  24139206.357     4450795.67349   3454923.37945  24139206.485    24139218.900
       209.000         147.000
  22956146.072     -950992.71649   -547751.92446  22956145.191    22956155.265
       220.000         172.000
  21954967.802    -2882323.70249  -2231758.28546  21954967.442    21954976.011
       226.000         181.000
 03  3 21 22 31 30.0000000  0 10G10G23G18G17G16G 6G15G30G29G26
  24684980.166     4560993.75449   3543211.61844  24684980.064    24684994.042
       201.000         128.000
  20967130.684    -3379995.92349  -2397574.52547  20967130.158    20967137.785
       243.000         212.000
  21757043.008    -4918650.93749  -3808233.76447  21757042.873    21757049.470
       236.000         193.000
  20956905.144    -1753565.79649  -1356173.72247  20956904.597    20956912.434
       240.000         210.000
  23463211.528    -3110030.25349  -2407770.11145  23463211.487    23463219.513
       217.000         160.000
  20564506.408      538541.53749    422244.82847  20564506.488    20564513.260
       242.000         210.000
  22260997.752    -3899712.60249  -3019550.85946  22260996.933    22261005.310
       227.000         180.000
  24159012.534     4554876.42649   3536025.00445  24159013.083    24159026.808
       211.000         146.000
  22957500.421     -943874.85049   -542205.55346  22957500.703    22957509.568
       220.000         172.000
  21948914.584    -2914133.11249  -2256544.80046  21948914.453    21948923.453
       227.000         181.000
 03  3 21 22 32  0.0000000  0 10G10G23G18G17G16G 6G15G30G29G26
  24705401.016     4668305.02349   3626830.63644  24705401.416    24705412.128
       201.000         127.000
  20958950.069    -3422985.09649  -2431072.54547  20958949.541    20958956.976
       243.000         212.000
  21742491.611    -4995118.84249  -3867819.08047  21742491.426    21742498.706
       237.000         194.000
  20953556.846    -1771161.07949  -1369884.33147  20953556.365    20953564.130
       241.000         210.000
  23455979.533    -3148034.40849  -2437383.71445  23455979.803    23455987.397
       219.000         161.000
  20571263.544      574050.26049    449913.93347  20571263.720    20571270.521
       242.000         210.000
  22249334.719    -3961002.26249  -3067308.97646  22249333.957    22249342.412
       229.000         180.000
  24178811.405     4658918.83849   3617096.73045  24178812.157    24178824.966
       211.000         146.000
  22958957.363     -936218.85449   -536239.83946  22958957.065    22958966.810
       222.000         172.000
  21942972.790    -2945357.32449  -2280875.32446  21942972.626    21942982.272
       227.000         181.000
 03  3 21 22 32 30.0000000  0  9G23G18G17G16G 6G15G30G29G26
  20950856.522    -3465516.97049  -2464214.22847  20950856.014    20950863.343
       243.000         212.000
  21728009.606    -5071222.55149  -3927120.61747  21728009.022    21728016.281
       237.000         195.000
  20950240.835    -1788587.04349  -1383463.00447  20950240.300    20950248.206
       241.000         210.000
  23448847.656    -3185513.19349  -2466587.93045  23448848.160    23448854.840
       219.000         162.000
  20578108.485      610020.42449    477942.60247  20578108.372    20578115.279
       242.000         210.000
  22237697.918    -4022154.38349  -3114959.93546  22237697.782    22237705.648
       228.000         180.000
  24198602.113     4762919.16549   3698135.65345  24198602.116    24198616.932
       208.000         145.000
  22960516.572     -928025.80549   -529855.64746  22960516.825    22960524.955
       223.000         172.000
  21937142.611    -2975995.42349  -2304749.13846  21937143.132    21937151.173
       227.000         181.000
 03  3 21 22 33  0.0000000  0  9G23G18G17G16G 6G15G30G29G26
  20942850.042    -3507591.47149  -2496999.51547  20942849.697    20942857.032
       244.000         212.000
  21713596.924    -5146961.59149  -3986137.99347  21713596.650    21713603.477
       237.000         195.000
  20946957.038    -1805843.48149  -1396909.57547  20946956.554    20946964.120
       241.000         210.000
  23441815.789    -3222465.68149  -2495382.05245  23441814.849    23441824.031
       219.000         162.000
  20585041.092      646451.71849    506330.59247  20585040.803    20585048.154
       241.000         209.000
  22226087.128    -4083169.17449  -3162503.89046  22226086.431    22226095.210
       228.000         180.000
  24218384.100     4866874.64149   3779139.63745  24218385.091    24218397.937
       207.000         144.000
  22962177.989     -919295.46549   -523052.77546  22962178.724    22962186.777
       225.000         173.000
  21931424.175    -3006045.58049  -2328164.81546  21931424.201    21931432.631
       226.000         181.000
 03  3 21 22 33 30.0000000  0  9G23G18G17G16G 6G15G30G29G26
  20934930.645    -3549207.91349  -2529427.87247  20934930.169    20934937.641
       243.000         212.000
  21699254.035    -5222334.06249  -4044869.72447  21699253.529    21699260.347
       237.000         196.000
  20943705.669    -1822929.65349  -1410223.47747  20943705.424    20943713.150
       241.000         210.000
  23434884.408    -3258890.69149  -2523765.13246  23434884.307    23434892.034
       221.000         163.000
  20592061.574      683344.79549    535078.41247  20592061.912    20592068.583
       242.000         209.000
  22214502.651    -4144045.87849  -3209940.23346  22214502.360    22214510.700
       228.000         180.000
  24238157.409     4970783.14849   3860107.02445  24238157.932    24238171.588
       208.000         143.000
  22963941.795     -910027.29649   -515830.82746  22963942.583    22963949.739
       225.000         174.000
  21925818.139    -3035505.65549  -2351120.68346  21925818.772    21925826.790
       228.000         181.000
 03  3 21 22 34  0.0000000  0  9G23G18G17G16G 6G15G30G29G26
  20927098.494    -3590365.79749  -2561498.91347  20927098.181    20927105.308
       244.000         212.000
  21684981.125    -5297338.46049  -4103314.65447  21684980.440    21684987.111
       236.000         195.000
  20940486.646    -1839845.88549  -1423404.95947  20940486.343    20940493.937
       241.000         211.000
  23428053.610    -3294786.98149  -2551736.24946  23428052.757    23428061.339
       219.000         163.000
  20599170.083      720699.61549    564186.03147  20599170.381    20599177.104
       242.000         209.000
  22202944.460    -4204784.45849  -3257268.96246  22202944.341    22202952.595
       229.000         181.000
  24257921.384     5074641.93649   3941035.65445  24257922.949    24257934.863
       207.000         143.000
  22965807.856     -900220.81649   -508189.42746  22965807.442    22965816.534
       223.000         173.000
  21920325.003    -3064373.33349  -2373614.95046  21920325.824    21920333.497
       227.000         182.000
 03  3 21 22 34 30.0000000  0  9G23G18G17G16G 6G15G30G29G26
  20919353.741    -3631064.94649  -2593212.49447  20919353.343    20919360.552
       244.000         212.000
  21670778.360    -5371973.62949  -4161471.87047  21670777.263    21670784.807
       236.000         195.000
  20937299.935    -1856592.36549  -1436454.16047  20937299.249    20937307.305
       240.000         211.000
  23421323.392    -3330153.73649  -2579294.73245  23421322.416    23421330.441
       218.000         162.000
  20606366.351      758515.85949    593653.20847  20606366.269    20606373.325
       241.000         209.000
  22191412.614    -4265384.78449  -3304489.95746  22191412.045    22191420.514
       228.000         182.000
  24277675.344     5178448.46949   4021923.57645  24277674.746    24277689.474
       207.000         142.000
  22967776.346     -889876.20149   -500128.71246  22967776.299    22967785.569
       221.000         172.000
  21914944.621    -3092647.00649  -2395646.36546  21914943.980    21914952.978
       227.000         181.000
 03  3 21 22 35  0.0000000  0  9G23G18G17G16G 6G15G30G29G26
  20911696.407    -3671304.46549  -2624567.92947  20911696.044    20911703.303
       244.000         212.000
  21656646.210    -5446237.78849  -4219339.99147  21656645.346    21656652.620
       236.000         195.000
  20934145.450    -1873168.82649  -1449370.88847  20934144.983    20934152.764
       241.000         210.000
  23414694.249    -3364989.28249  -2606439.30046  23414694.155    23414702.177
       218.000         163.000
  20613650.411      796794.01449    623480.31147  20613650.327    20613657.594
       242.000         209.000
  22179907.219    -4325846.18249  -3351602.69146  22179906.370    22179914.594
       229.000         181.000
  24297418.689     5282200.60749   4102769.08245  24297418.957    24297432.506
       206.000         141.000
  22969847.315     -878992.75849   -491648.12446  22969846.726    22969856.012
       222.000         172.000
  21909677.722    -3120324.31049  -2417213.08146  21909678.845    21909686.292
       229.000         182.000
 03  3 21 22 35 30.0000000  0  9G23G18G17G16G 6G15G30G29G26
  20904125.940    -3711087.47949  -2655567.64548  20904125.505    20904132.640
       244.000         213.000
  21642584.260    -5520133.05649  -4276920.65947  21642584.001    21642590.827
       236.000         195.000
  20931022.761    -1889578.76949  -1462157.85447  20931022.435    20931029.613
       241.000         210.000
  23408165.805    -3399296.37549  -2633172.08546  23408165.304    23408173.365
       218.000         163.000
  20621021.795      835530.69749    653664.71047  20621021.984    20621028.759
       242.000         209.000
  22168427.545    -4386172.03649  -3398609.79846  22168426.927    22168435.130
       228.000         181.000
  24317150.674     5385892.34149   4183567.53845  24317151.806    24317164.457
       206.000         141.000
  22972020.284     -867573.70049   -482750.18146  22972020.311    22972028.981
       222.000         172.000
  21904524.300    -3147406.77649  -2438316.25746  21904524.783    21904533.068
       229.000         184.000
 03  3 21 22 36  0.0000000  0  9G23G18G17G16G 6G15G30G29G26
  20896643.052    -3750410.22249  -2686208.70648  20896642.595    20896649.949
       244.000         213.000
  21628593.742    -5593654.25649  -4334209.83947  21628593.796    21628600.428
       238.000         196.000
  20927932.544    -1905818.09749  -1474811.87547  20927932.384    20927939.949
       241.000         210.000
  23401738.690    -3433070.47549  -2659489.54045  23401738.593    23401746.590
       218.000         162.000
  20628481.080      874729.24949    684209.00647  20628481.030    20628488.095
       242.000         209.000
  22156974.357    -4446358.70349  -3445508.46346  22156973.866    22156982.080
       228.000         181.000
  24336871.542     5489524.56149   4264319.60445  24336872.214    24336885.876
       207.000         141.000
  22974295.896     -855615.52549   -473432.14246  22974296.006    22974304.202
       222.000         171.000
  21899484.870    -3173889.04249  -2458951.76046  21899485.122    21899493.624
       228.000         184.000
 03  3 21 22 36 30.0000000  0  9G23G18G17G16G 6G15G30G29G26
  20889247.689    -3789273.18649  -2716491.50148  20889247.135    20889254.536
       243.000         213.000
  21614674.500    -5666800.96249  -4391207.22147  21614674.043    21614680.838
       237.000         196.000
  20924874.670    -1921887.60049  -1487333.57147  20924874.321    20924881.905
       241.000         211.000
  23395412.989    -3466311.44349  -2685391.59145  23395412.403    23395421.112
       218.000         161.000
  20636028.089      914388.92749    715112.62047  20636028.095    20636035.199
       242.000         209.000
  22145547.536    -4506406.77149  -3492299.11446  22145546.527    22145555.802
       229.000         182.000
  24356580.486     5593094.14949   4345022.86145  24356581.200    24356597.144
       211.000         142.000
  22976674.166     -843118.57349   -463694.26246  22976674.050    22976682.785
       223.000         171.000
  21894559.883    -3199769.91049  -2479118.65346  21894559.682    21894568.545
       228.000         184.000
 03  3 21 22 37  0.0000000  0  9G23G18G17G16G 6G15G30G29G26
  20881939.847    -3827675.91949  -2746415.67548  20881939.064    20881946.867
       243.000         213.000
  21600826.588    -5739571.73449  -4447911.66147  21600825.999    21600833.226
       237.000         197.000
  20921849.188    -1937786.89049  -1499722.63347  20921849.175    20921856.496
       242.000         211.000
  23389189.137    -3499018.10649  -2710877.28245  23389189.341    23389197.088
       217.000         162.000
  20643662.832      954509.72249    746375.54747  20643662.700    20643669.766
       241.000         209.000
  22134147.198    -4566315.84549  -3538981.45846  22134145.600    22134155.023
       228.000         182.000
  24376276.917     5696598.65249   4425675.39245  24376277.564    24376291.426
       208.000         143.000
  22979154.967     -830082.74949   -453536.49846  22979154.562    22979163.492
       221.000         171.000
  21889749.658    -3225047.54749  -2498815.49346  21889749.602    21889757.978
       227.000         183.000
 03  3 21 22 37 30.0000000  0  9G23G18G17G16G 6G15G30G29G26
  20874719.585    -3865618.28449  -2775981.11948  20874718.923    20874726.800
       243.000         213.000
  21587050.452    -5811965.45449  -4504322.29147  21587050.086    21587056.793
       237.000         196.000
  20918856.008    -1953516.41649  -1511979.41047  20918855.568    20918863.146
       241.000         211.000
  23383067.144    -3531189.87149  -2735946.16745  23383067.519    23383075.415
       218.000         162.000
  20651385.216      995091.30849    777997.52547  20651384.994    20651392.237
       242.000         209.000
  22122773.239    -4626085.93249  -3585555.50246  22122772.253    22122781.229
       229.000         182.000
  24395960.446     5800035.43349   4506275.15545  24395960.348    24395977.199
       208.000         143.000
  22981738.164     -816507.96649   -442958.76846  22981737.784    22981747.118
       222.000         172.000
  21885054.501    -3249720.28049  -2518040.99546  21885054.342    21885063.055
       227.000         183.000
 03  3 21 22 38  0.0000000  0  9G23G18G17G16G 6G15G30G29G26
  20867586.807    -3903101.01249  -2805188.40648  20867586.171    20867593.855
       243.000         213.000
  21573346.284    -5883981.40449  -4560438.55547  21573345.883    21573352.283
       237.000         196.000
  20915894.872    -1969077.15449  -1524104.66547  20915894.338    20915901.947
       241.000         210.000
  23377046.880    -3562826.58349  -2760598.14245  23377046.158    23377055.027
       218.000         162.000
  20659195.158     1036132.76149    809977.84547  20659195.277    20659202.484
       242.000         209.000
  22111425.684    -4685717.55149  -3632021.65446  22111425.079    22111433.166
       229.000         182.000
  24415630.718     5903401.21049   4586819.57345  24415631.890    24415646.153
       209.000         144.000
  22984423.627     -802395.22949   -431961.88146  22984423.685    22984432.457
       221.000         171.000
  21880474.697    -3273787.03549  -2536794.28846  21880474.892    21880483.245
       226.000         182.000
 03  3 21 22 38 30.0000000  0  9G23G18G17G16G 6G15G30G29G26
  20860541.565    -3940123.48049  -2834037.05448  20860541.198    20860548.599
       243.000         213.000
  21559714.209    -5955618.21649  -4616259.38847  21559713.721    21559719.846
       237.000         196.000
  20912966.021    -1984468.44549  -1536097.88147  20912965.695    20912973.131
       241.000         210.000
  23371128.469    -3593927.14549  -2784832.32745  23371128.734    23371136.629
       218.000         162.000
  20667092.631     1077634.22449    842316.61547  20667092.799    20667099.778
       242.000         209.000
  22100104.532    -4745210.18349  -3678379.51346  22100104.376    22100112.819
       229.000         183.000
  24435287.052     6006693.79349   4667306.96345  24435288.172    24435301.786
       207.000         142.000
  22987211.475     -787744.06049   -420545.41846  22987210.975    22987220.374
       221.000         170.000
  21876010.578    -3297245.80349  -2555073.83246  21876010.533    21876019.214
       227.000         183.000
 03  3 21 22 39  0.0000000  0  9G23G18G17G16G 6G15G30G29G26
  20853584.088    -3976685.56149  -2862526.95348  20853583.824    20853591.134
       244.000         213.000
  21546154.485    -6026874.70849  -4671783.87647  21546154.198    21546160.316
       237.000         196.000
  20910069.385    -1999690.40249  -1547959.14647  20910069.040    20910076.346
       241.000         210.000
  23365312.457    -3624490.63449  -2808648.02346  23365312.371    23365320.203
       220.000         163.000
  20675077.720     1119595.61749    875013.77247  20675077.981    20675084.687
       242.000         209.000
  22088810.010    -4804563.77149  -3724629.01846  22088809.725    22088817.339
       229.000         183.000
  24454928.739     6109910.60449   4747735.30645  24454930.124    24454943.415
       209.000         142.000
  22990102.032     -772554.49149   -408709.41846  22990102.893    22990110.089
       223.000         170.000
  21871662.524    -3320094.95649  -2572878.34846  21871662.643    21871671.211
       227.000         183.000
 03  3 21 22 39 30.0000000  0  9G23G18G17G16G 6G15G30G29G26
  20846714.040    -4012787.70249  -2890658.45748  20846713.600    20846720.888
       243.000         213.000
  21532667.348    -6097749.95249  -4727011.27947  21532666.745    21532673.750
       238.000         197.000
  20907204.924    -2014743.40549  -1559688.75347  20907204.673    20907211.925
       241.000         210.000
  23359598.745    -3654517.03649  -2832045.21246  23359597.937    23359606.062
       220.000         163.000
  20683150.179     1162016.02349    908068.60047  20683150.223    20683157.205
       242.000         209.000
  22077541.751    -4863778.62749  -3770770.41646  22077541.186    22077549.842
       229.000         183.000
  24474555.492     6213048.66249   4828102.26945  24474556.427    24474570.440
       209.000         142.000
  22993095.094     -756827.08049   -396454.32046  22993095.661    22993103.827
       224.000         171.000
  21867430.667    -3342333.40649  -2590207.00046  21867430.503    21867439.375
       226.000         183.000
 03  3 21 22 40  0.0000000  0  9G23G18G17G16G 6G15G30G29G26
  20839931.607    -4048429.44449  -2918431.21248  20839931.216    20839938.652
       243.000         213.000
  21519252.984    -6168242.51149  -4781940.49547  21519252.501    21519259.195
       238.000         197.000
  20904372.742    -2029626.94849  -1571286.32547  20904372.204    20904380.008
       241.000         211.000
  23353987.549    -3684005.15449  -2855022.96346  23353987.351    23353994.842
       219.000         163.000
  20691309.879     1204895.67049    941481.27547  20691309.644    20691317.102
       241.000         209.000
  22066299.921    -4922854.45349  -3816803.49346  22066299.479    22066307.444
       229.000         183.000
  24494166.785     6316105.77449   4908406.17945  24494166.811    24494181.760
       206.000         140.000
  22996190.504     -740561.48149   -383779.85146  22996190.958    22996198.335
       222.000         170.000
  21863315.445    -3363959.18449  -2607058.24246  21863315.642    21863324.402
       228.000         184.000
 03  3 21 22 40 30.0000000  0  9G23G18G17G16G 6G15G30G29G26
  20833236.963    -4083610.08249  -2945844.66648  20833236.730    20833244.183
       244.000         213.000
  21505911.809    -6238350.56149  -4836570.08647  21505911.407    21505918.043
       238.000         197.000
  20901572.841    -2044340.39249  -1582751.34647  20901572.353    20901579.988
       242.000         211.000
  23348478.636    -3712953.80149  -2877580.32745  23348478.005    23348487.077
       217.000         162.000
  20699557.038     1248234.98449    975252.13247  20699557.085    20699564.329
       242.000         209.000
  22055084.601    -4981790.76449  -3862727.85046  22055083.553    22055092.732
       229.000         183.000
  24513762.161     6419079.95449   4988645.42245  24513763.435    24513777.348
       205.000         138.000
  22999388.232     -723757.29649   -370685.71146  22999388.994    22999396.398
       222.000         169.000
  21859317.291    -3384970.10049  -2623430.37046  21859317.639    21859325.858
       228.000         184.000
 03  3 21 22 41  0.0000000  0  9G23G18G17G16G 6G15G30G29G26
  20826630.282    -4118328.43049  -2972897.88748  20826629.724    20826637.261
       243.000         213.000
  21492644.302    -6308071.74049  -4890898.22247  21492644.032    21492650.488
       238.000         198.000
  20898805.546    -2058882.72549  -1594083.02947  20898804.998    20898812.515
       241.000         211.000
  23343072.740    -3741361.17149  -2899715.93545  23343072.927    23343081.022
       218.000         162.000
  20707891.913     1292034.69649   1009381.74547  20707892.035    20707898.907
       242.000         209.000
  22043896.175    -5040585.95249  -3908542.23646  22043895.389    22043904.108
       229.000         183.000
  24533341.638     6521969.88949   5068819.03645  24533343.600    24533358.077
       206.000         137.000
  23002688.635     -706413.55949   -357171.15346  23002689.110    23002697.068
       222.000         170.000
  21855436.582    -3405363.46449  -2639321.28046  21855436.586    21855444.643
       228.000         183.000
 03  3 21 22 41 30.0000000  0  9G23G18G17G16G 6G15G30G29G26
  20820111.045    -4152586.99649  -2999592.84948  20820110.378    20820118.020
       243.000         213.000
  21479450.072    -6377407.82349  -4944926.29147  21479449.656    21479456.091
       239.000         198.000
  20896070.375    -2073256.09649  -1605283.06647  20896070.082    20896077.448
       241.000         210.000
  23337769.757    -3769229.10949  -2921431.19745  23337769.718    23337777.185
       219.000         162.000
  20716313.807     1336291.72749   1043867.71147  20716313.804    20716320.911
       242.000         209.000
  22032734.232    -5099242.70049  -3954248.75446  22032732.946    22032742.370
       229.000         183.000
  24552904.243     6624770.38749   5148922.92945  24552905.717    24552919.345
       202.000         135.000
  23006091.155     -688533.16049   -343238.41146  23006091.184    23006099.999
       222.000         171.000
  21851673.100    -3425140.44649  -2654731.90546  21851673.411    21851682.466
       229.000         184.000
 03  3 21 22 42  0.0000000  0  9G23G18G17G16G 6G15G30G29G26
  20813679.193    -4186386.17549  -3025929.84048  20813678.690    20813686.084
       243.000         213.000
  21466329.253    -6446357.98449  -4998653.63547  21466328.850    21466335.454
       239.000         199.000
  20893367.204    -2087461.54949  -1616352.24547  20893366.643    20893374.022
       241.000         210.000
  23332569.364    -3796557.54449  -2942726.08745  23332568.919    23332576.845
       219.000         162.000
  20724822.576     1381005.47849   1078709.56347  20724822.574    20724829.520
       242.000         208.000
  22021598.506    -5157760.99849  -3999847.38646  22021597.635    22021606.491
       230.000         184.000
  24572449.179     6727478.54049   5228954.90045  24572449.757    24572465.348
       201.000         134.000
  23009595.817     -670116.53349   -328887.83146  23009596.118    23009604.816
       222.000         172.000
  21848027.155    -3444300.06049  -2669661.47246  21848027.755    21848035.783
       230.000         185.000
 03  3 21 22 42 30.0000000  0  9G23G18G17G16G 6G15G30G29G26
  20807334.959    -4219725.19849  -3051908.27248  20807334.392    20807341.708
       243.000         213.000
  21453282.212    -6514920.15749  -5052078.65947  21453281.732    21453288.885
       239.000         199.000
  20890696.244    -2101497.72649  -1627289.52547  20890695.732    20890703.247
       242.000         210.000
  23327471.937    -3823344.92249  -2963599.37245  23327472.087    23327480.043
       217.000         162.000
  20733418.333     1426176.47549   1113907.70447  20733418.523    20733425.330
       242.000         208.000
  22010489.353    -5216139.88749  -4045337.39546  22010488.316    22010496.640
       230.000         185.000
  24591976.064     6830092.81849   5308913.68945  24591978.268    24591992.891
       197.000         133.000
  23013202.495     -651163.15449   -314118.99946  23013202.202    23013210.794
       220.000         171.000
  21844499.254    -3462839.82549  -2684108.01746  21844498.418    21844507.229
       228.000         184.000
 03  3 21 22 43  0.0000000  0  9G23G18G17G16G 6G15G30G29G26
  20801078.235    -4252604.16749  -3077528.22247  20801077.843    20801085.004
       243.000         212.000
  21440309.235    -6583093.39949  -5105200.62247  21440309.023    21440315.668
       240.000         200.000
  20888057.374    -2115364.90749  -1638095.12447  20888056.839    20888064.587
       240.000         210.000
  23322477.481    -3849590.83049  -2984050.72545  23322478.054    23322485.090
       218.000         161.000
  20742101.078     1471804.15249   1149461.70147  20742101.502    20742108.282
       243.000         209.000
  21999406.734    -5274379.25749  -4090718.68546  21999406.488    21999414.407
       230.000         185.000
  24611484.683     6932610.40249   5388797.14945  24611487.172    24611500.859
       200.000         132.000
  23016911.318     -631673.45349   -298932.24646  23016911.714    23016920.057
       221.000         170.000
  21841089.277    -3480758.61049  -2698070.70046  21841089.658    21841097.566
       229.000         183.000
 03  3 21 22 43 30.0000000  0  9G23G18G17G16G 6G15G30G29G26
  20794909.061    -4285023.08349  -3102789.69047  20794908.654    20794915.970
       243.000         212.000
  21427410.564    -6650876.61549  -5158018.66647  21427410.273    21427416.963
       240.000         200.000
  20885450.662    -2129063.03049  -1648768.99547  20885450.174    20885457.975
       241.000         210.000
  23317586.221    -3875294.93949  -3004079.90045  23317586.101    23317594.377
       219.000         162.000
  20750870.695     1517888.16049   1185371.27747  20750871.121    20750877.978
       243.000         209.000
  21988350.761    -5332478.94149  -4135991.13146  21988350.352    21988358.839
       231.000         186.000
  24630974.840     7035028.86449   5468603.35145  24630976.260    24630991.085
       201.000         132.000
  23020722.197     -611647.50949   -283327.64646  23020722.615    23020730.450
       222.000         170.000
  21837797.845    -3498055.01849  -2711548.39946  21837798.417    21837806.372
       229.000         184.000
 03  3 21 22 44  0.0000000  0  9G23G18G17G16G 6G15G30G29G26
  20788827.452    -4316982.05249  -3127692.75348  20788827.214    20788834.504
       243.000         213.000
  21414586.256    -6718268.82649  -5210532.03147  21414585.751    21414592.666
       240.000         200.000
  20882876.169    -2142592.01149  -1659311.05847  20882875.736    20882883.167
       240.000         210.000
  23312798.137    -3900456.66249  -3023686.43345  23312798.535    23312806.011
       217.000         162.000
  20759727.064     1564428.14449   1221636.16547  20759727.140    20759733.957
       242.000         209.000
  21977321.351    -5390438.95749  -4181154.74346  21977319.848    21977329.526
       230.000         186.000
  24650445.581     7137345.90349   5548330.52845  24650446.701    24650462.561
       201.000         132.000
  23024635.068     -591085.74649   -267305.52846  23024635.207    23024643.858
       224.000         172.000
  21834625.164    -3514727.65949  -2724540.04746  21834624.754    21834633.830
       228.000         184.000
 03  3 21 22 44 30.0000000  0  9G23G18G17G16G 6G15G30G29G26
  20782833.526    -4348480.58349  -3152237.03948  20782833.194    20782840.529
       244.000         214.000
  21401836.488    -6785268.70849  -5262739.68647  21401836.327    21401842.953
       239.000         201.000
  20880333.959    -2155951.47849  -1669721.03647  20880333.676    20880340.958
       241.000         211.000
  23308113.298    -3925075.27949  -3042869.75945  23308112.569    23308120.989
       217.000         161.000
  20768670.101     1611424.09249   1258256.34447  20768670.159    20768677.198
       242.000         209.000
  21966318.515    -5448258.66449  -4226209.03146  21966318.154    21966326.903
       231.000         186.000
  24669896.595     7239559.42349   5627977.06244  24669898.944    24669911.820
       198.000         131.000
  23028649.886     -569987.85549   -250865.64746  23028650.207    23028658.954
       223.000         173.000
  21831571.527    -3530774.68749  -2737044.21946  21831571.817    21831579.273
       229.000         184.000
 03  3 21 22 45  0.0000000  0  8G23G18G17G16G 6G15G29G26
  20776927.141    -4379518.92949  -3176422.74048  20776926.563    20776933.936
       243.000         214.000
  21389161.816    -6851874.60149  -5314640.33347  21389161.282    21389168.219
       240.000         201.000
  20877824.078    -2169141.22549  -1679998.76047  20877823.693    20877831.049
       241.000         211.000
  23303531.964    -3949149.65949  -3061628.99945  23303531.621    23303539.671
       219.000         162.000
  20777699.805     1658875.56649   1295231.48147  20777699.848    20777706.830
       241.000         208.000
  21955342.475    -5505937.98749  -4271153.92646  21955341.973    21955350.031
       232.000         186.000
  23032766.591     -548354.50649   -234008.52946  23032766.448    23032775.086
       222.000         172.000
  21828637.190    -3546194.92249  -2749059.95646  21828637.509    21828645.269
       229.000         183.000
 03  3 21 22 45 30.0000000  0  8G23G18G17G16G 6G15G29G26
  20771108.228    -4410097.51749  -3200250.18548  20771107.861    20771115.142
       244.000         214.000
  21376562.172    -6918086.18349  -5366233.72647  21376561.574    21376568.443
       240.000         201.000
  20875346.417    -2182161.41149  -1690144.36147  20875345.909    20875353.528
       241.000         211.000
  23299054.470    -3972679.90049  -3079964.25146  23299054.940    23299061.226
       220.000         163.000
  20786816.035     1706781.85049   1332561.00447  20786815.877    20786823.253
       241.000         208.000
  21944393.174    -5563477.01449  -4315989.50246  21944392.683    21944400.568
       232.000         187.000
  23036984.976     -526186.09549   -216734.45946  23036984.737    23036993.744
       220.000         170.000
  21825822.266    -3560987.34049  -2760586.50246  21825822.038    21825830.205
       229.000         183.000
 03  3 21 22 46  0.0000000  0  8G23G18G17G16G 6G15G29G26
  20765376.793    -4440216.40649  -3223719.42048  20765376.429    20765383.664
       243.000         214.000
  21364037.744    -6983902.32249  -5417518.98647  21364037.415    21364044.068
       239.000         201.000
  20872901.022    -2195011.95649  -1700157.77247  20872900.442    20872908.222
       241.000         211.000
  23294680.598    -3995665.90349  -3097875.40545  23294680.338    23294687.536
       218.000         162.000
  20796018.713     1755142.55049   1370244.62547  20796018.786    20796026.109
       241.000         208.000
  21933470.566    -5620875.68249  -4360715.69846  21933470.284    21933478.073
       233.000         187.000
  23041305.148     -503483.06849   -199043.81746  23041305.106    23041314.173
       221.000         170.000
  21823127.094    -3575150.66449  -2771622.83946  21823127.653    21823135.122
       229.000         184.000
 03  3 21 22 46 30.0000000  0  8G23G18G17G16G 6G15G29G26
  20759732.747    -4469875.81549  -3246830.62248  20759732.326    20759739.581
       243.000         214.000
  21351588.652    -7049322.37149  -5468495.60447  21351588.323    21351594.784
       240.000         201.000
  20870487.825    -2207693.07749  -1710039.17047  20870487.382    20870495.152
       241.000         210.000
  23290410.134    -4018107.19749  -3115362.11745  23290409.735    23290416.457
       219.000         160.000
  20805307.777     1803956.76249   1408281.63347  20805308.095    20805315.204
       241.000         208.000
  21922574.769    -5678133.93949  -4405332.48546  21922574.088    21922582.527
       232.000         187.000
  23045727.166     -480245.85549   -180936.92146  23045726.446    23045736.208
       222.000         170.000
  21820551.844    -3588683.96749  -2782168.24546  21820552.076    21820560.185
       230.000         184.000
 03  3 21 22 47  0.0000000  0  8G23G18G17G16G 6G15G29G26
  20754176.217    -4499075.46749  -3269583.57148  20754175.913    20754183.272
       244.000         214.000
  21339215.213    -7114345.05349  -5519162.58447  21339214.659    21339221.604
       239.000         202.000
  20868107.092    -2220203.90449  -1719787.86947  20868106.670    20868114.165
       242.000         211.000
  23286243.511    -4040003.15249  -3132423.90545  23286243.249    23286250.176
       219.000         160.000
  20814683.215     1853224.44749   1446671.99647  20814683.594    20814690.597
       241.000         208.000
  21911705.675    -5735251.22749  -4449839.43846  21911705.562    21911712.894
       233.000         187.000
  23050250.559     -456474.78749   -162414.05146  23050250.853    23050259.803
       223.000         171.000
  21818096.642    -3601585.67949  -2792221.50746  21818096.566    21818104.570
       228.000         183.000
 03  3 21 22 47 30.0000000  0  8G23G18G17G16G 6G15G29G26
  20748707.134    -4527815.79249  -3291978.60548  20748706.769    20748714.272
       244.000         214.000
  21326917.493    -7178969.43449  -5569519.20347  21326917.352    21326924.037
       239.000         202.000
  20865758.633    -2232545.09349  -1729404.38747  20865758.186    20865765.818
       241.000         211.000
  23282180.716    -4061353.54749  -3149060.57245  23282179.772    23282187.772
       217.000         161.000
  20824144.767     1902944.89349   1485415.16147  20824144.954    20824152.265
       241.000         208.000
  21900863.450    -5792227.70649  -4494236.65247  21900862.938    21900871.353
       233.000         188.000
  23054875.597     -432170.38149   -143475.57346  23054875.991    23054884.946
       222.000         170.000
  21815761.820    -3613854.83249  -2801781.86946  21815762.232    21815770.080
       227.000         183.000
 03  3 21 22 48  0.0000000  0  8G23G18G17G16G 6G15G29G26
  20743325.411    -4556096.63949  -3314015.61048  20743325.135    20743332.255
       244.000         214.000
  21314696.008    -7243194.06949  -5619564.33347  21314695.863    21314702.296
       240.000         202.000
  20863442.603    -2244716.12649  -1738888.31347  20863442.229    20863449.850
       241.000         211.000
  23278221.686    -4082157.80049  -3165271.67845  23278221.013    23278228.854
       218.000         161.000
  20833692.482     1953118.07749   1524511.10547  20833692.655    20833699.724
       241.000         207.000
  21890048.073    -5849062.54049  -4538523.50647  21890047.655    21890055.668
       232.000         188.000
  23059602.075     -407332.60149   -124121.48646  23059602.939    23059609.865
       223.000         170.000
  21813547.703    -3625489.90749  -2810848.14746  21813548.205    21813555.932
       229.000         183.000
 03  3 21 22 48 30.0000000  0  8G23G18G17G16G 6G15G29G26
  20738031.138    -4583918.34049  -3335694.83448  20738030.890    20738038.030
       244.000         214.000
  21302550.704    -7307018.19349  -5669297.37447  21302550.012    21302556.608
       240.000         202.000
  20861159.003    -2256716.53149  -1748239.28947  20861158.500    20861166.242
       241.000         211.000
  23274366.663    -4102415.68649  -3181057.04445  23274365.922    23274374.201
       218.000         161.000
  20843326.202     2003743.28149   1563959.27247  20843326.245    20843333.207
       241.000         207.000
  21879259.695    -5905755.70749  -4582699.96247  21879258.724    21879267.258
       232.000         188.000
  23064430.002     -381962.18349   -104352.35146  23064429.927    23064438.451
       223.000         170.000
  21811454.580    -3636489.82849  -2819419.48346  21811455.623    21811462.005
       229.000         184.000
 03  3 21 22 49  0.0000000  0  8G23G18G17G16G 6G15G29G26
  20732824.001    -4611282.37549  -3357017.43948  20732823.435    20732830.947
       245.000         215.000
  21290481.476    -7370442.20749  -5718718.64647  21290480.997    21290487.455
       241.000         203.000
  20858907.557    -2268548.01249  -1757458.63447  20858907.209    20858914.796
       242.000         211.000
  23270615.494    -4122127.98649  -3196417.28645  23270615.188    23270623.800
       218.000         162.000
  20853045.511     2054818.49649   1603758.09947  20853045.607    20853052.684
       242.000         207.000
  21868497.969    -5962308.20749  -4626766.80947  21868496.925    21868505.687
       231.000         188.000
  23069358.845     -356060.94749    -84169.59146  23069359.235    23069367.502
       222.000         170.000
  21809482.234    -3646854.98449  -2827496.19146  21809482.000    21809491.197
       229.000         183.000
 03  3 21 22 49 30.0000000  0  8G23G18G17G16G 6G15G29G26
  20727704.220    -4638187.00749  -3377982.06948  20727703.639    20727710.966
       244.000         214.000
  21278488.947    -7433463.18449  -5767825.86147  21278488.489    21278495.349
       240.000         203.000
  20856688.712    -2280208.45149  -1766544.70247  20856687.935    20856695.854
       241.000         211.000
  23266968.503    -4141292.57349  -3211350.72045  23266968.033    23266976.246
       217.000         161.000
  20862850.841     2106345.35749   1643908.85447  20862850.859    20862858.267
       240.000         207.000
  21857763.465    -6018718.01049  -4670722.47247  21857763.275    21857771.611
       233.000         189.000
  23074388.973     -329627.31749    -63571.99746  23074388.283    23074398.833
       221.000         170.000
  21807631.057    -3656582.21449  -2835075.85446  21807630.572    21807639.928
       226.000         182.000
 03  3 21 22 50  0.0000000  0  8G23G18G17G16G 6G15G29G26
  20722671.474    -4664634.11749  -3398590.18448  20722671.143    20722678.203
       244.000         214.000
  21266572.994    -7496081.57349  -5816619.37347  21266572.488    21266579.313
       240.000         203.000
  20854502.115    -2291698.82849  -1775498.25447  20854501.849    20854509.541
       241.000         211.000
  23263425.434    -4159910.76249  -3225858.41145  23263424.726    23263432.470
       216.000         160.000
  20872741.506     2158321.51449   1684409.71547  20872741.162    20872748.930
       240.000         207.000
  21847056.032    -6074986.60449  -4714568.09447  21847055.528    21847064.246
       234.000         190.000
  23079519.961     -302663.41449    -42561.19746  23079520.161    23079529.115
       221.000         170.000
  21805901.115    -3665672.09749  -2842158.86646  21805901.548    21805909.521
       228.000         183.000
 03  3 21 22 50 30.0000000  0  8G23G18G17G16G 6G15G29G26
  20717725.710    -4690624.09449  -3418842.09448  20717725.227    20717732.683
       243.000         214.000
  21254733.839    -7558296.79949  -5865098.73247  21254733.414    21254740.238
       240.000         204.000
  20852348.032    -2303018.89149  -1784319.09447  20852347.810    20852355.161
       241.000         211.000
  23259986.507    -4177982.44449  -3239940.23745  23259985.897    23259994.542
       219.000         160.000
  20882717.553     2210746.30449   1725260.15947  20882717.416    20882725.111
       240.000         206.000
  21836375.417    -6131113.63649  -4758303.40447  21836374.732    21836383.456
       233.000         190.000
  23084751.867     -275169.93649    -21137.73346  23084752.019    23084760.877
       223.000         170.000
  21804292.957    -3674123.72349  -2848744.52846  21804293.072    21804301.958
       228.000         183.000
 03  3 21 22 51  0.0000000  0  8G23G18G17G16G 6G15G29G26
  20712866.944    -4716156.89149  -3438737.76048  20712866.581    20712873.763
       244.000         214.000
  21242971.535    -7620107.89349  -5913263.18447  21242971.357    21242977.799
       240.000         204.000
  20850226.365    -2314168.55849  -1793007.15747  20850225.849    20850233.547
       241.000         211.000
  23256651.802    -4195507.19649  -3253595.89445  23256652.624    23256660.661
       219.000         161.000
  20892778.967     2263619.39449   1766459.92247  20892779.260    20892786.387
       240.000         206.000
  21825721.812    -6187098.57449  -4801928.00647  21825721.098    21825729.640
       233.000         189.000
  23090084.467     -247147.40249       697.98946  23090084.457    23090092.765
       223.000         170.000
  21802806.458    -3681936.00349  -2854832.01146  21802806.251    21802814.905
       228.000         182.000
 03  3 21 22 51 30.0000000  0  8G23G18G17G16G 6G15G29G26
  20708095.188    -4741232.81249  -3458277.41748  20708094.634    20708102.012
       244.000         214.000
  21231286.460    -7681513.54949  -5961111.71047  21231286.047    21231292.437
       240.000         204.000
  20848137.030    -2325147.91649  -1801562.51347  20848136.505    20848144.308
       241.000         210.000
  23253421.179    -4212484.82449  -3266825.22846  23253421.102    23253428.900
       220.000         163.000
  20902925.581     2316940.08549   1808008.46547  20902925.706    20902933.131
       239.000         206.000
  21815095.188    -6242941.39849  -4845441.86547  21815094.504    21815102.951
       233.000         189.000
  23095517.560     -218596.28049     22945.59046  23095518.765    23095526.056
       223.000         170.000
  21801441.607    -3689108.18249  -2860420.71246  21801441.926    21801449.738
       227.000         182.000
 03  3 21 22 52  0.0000000  0  8G23G18G17G16G 6G15G29G26
  20703410.178    -4765852.38549  -3477461.47848  20703409.778    20703416.935
       244.000         214.000
  21219678.598    -7742513.23749  -6008643.90247  21219678.113    21219684.807
       240.000         204.000
  20846080.203    -2335956.47449  -1809984.77547  20846079.839    20846087.463
       241.000         210.000
  23250294.703    -4228915.24349  -3279628.16345  23250294.506    23250302.257
       219.000         162.000
  20913157.201     2370707.61249   1849905.19247  20913157.173    20913165.166
       240.000         205.000
  21804495.730    -6298641.87349  -4888844.79447  21804494.952    21804503.262
       232.000         189.000
  23101051.100     -189517.39249     45604.42746  23101050.535    23101060.029
       222.000         170.000
  21800198.781    -3695639.26049  -2865509.85946  21800199.076    21800206.784
       230.000         182.000
 03  3 21 22 52 30.0000000  0  8G23G18G17G16G 6G15G29G26
  20698812.098    -4790015.37149  -3496289.75748  20698811.741    20698819.007
       244.000         214.000
  21208148.140    -7803105.53449  -6055858.64647  21208147.885    21208154.273
       240.000         204.000
  20844055.954    -2346594.06649  -1818273.82347  20844055.551    20844062.937
       241.000         210.000
  23247272.268    -4244797.93349  -3292004.28646  23247271.279    23247280.465
       218.000         163.000
  20923473.833     2424921.81949   1892149.98347  20923473.900    20923481.624
       239.000         205.000
  21793923.393    -6354199.35749  -4932136.31247  21793922.711    21793931.069
       233.000         189.000
  23106685.149     -159910.81649     68674.46446  23106685.884    23106694.513
       222.000         171.000
  21799078.140    -3701527.98849  -2870098.47946  21799078.512    21799087.016
       228.000         182.000
 03  3 21 22 53  0.0000000  0  8G23G18G17G16G 6G15G29G26
  20694300.919    -4813722.02249  -3514762.44848  20694300.464    20694307.984
       244.000         214.000
  21196695.509    -7863289.69649  -6102755.35447  21196695.153    21196701.492
       241.000         204.000
  20842064.368    -2357060.05249  -1826429.15147  20842064.119    20842071.604
       241.000         210.000
  23244354.088    -4260132.84249  -3303953.55346  23244353.849    23244361.916
       220.000         164.000
  20933875.365     2479582.02249   1934742.29847  20933875.829    20933883.136
       239.000         205.000
  21783378.430    -6409613.59149  -4975316.19747  21783377.931    21783386.365
       234.000         190.000
  23112419.479     -129777.19349     92155.18046  23112420.584    23112428.748
       226.000         171.000
  21798080.047    -3706773.39349  -2874185.80946  21798080.353    21798088.203
       229.000         183.000
 03  3 21 22 53 30.0000000  0  9G23G18G17G16G 6G15G29G26G 2
  20689877.503    -4836966.90749  -3532875.32848  20689877.206    20689884.293
       244.000         215.000
  21185321.707    -7923059.11049  -6149328.89247  21185321.207    21185327.971
       240.000         204.000
  20840106.615    -2367348.41049  -1834446.06547  20840106.265    20840113.694
       241.000         210.000
  23241541.269    -4274913.93349  -3315471.28146  23241540.566    23241549.636
       219.000         164.000
  20944362.793     2534693.35649   1977686.14847  20944362.989    20944370.245
       239.000         205.000
  21772861.986    -6464878.26149  -5018379.54047  21772861.662    21772870.048
       234.000         191.000
  23118255.139      -99111.40649    116050.55946  23118255.625    23118263.316
       223.000         171.000
  21797205.723    -3711368.79749  -2877766.64446  21797205.948    21797213.504
       228.000         182.000
  25210556.218    -5185238.43049  -4002879.55545  25210555.576    25210566.799
       204.000         138.000
 03  3 21 22 54  0.0000000  0  9G23G18G17G16G 6G15G29G26G 2
  20685542.111    -4859749.85549  -3550628.25348  20685541.727    20685548.940
       245.000         215.000
  21174027.042    -7982412.33949  -6195578.12647  21174026.826    21174033.359
       240.000         204.000
  20838182.700    -2377458.94749  -1842324.41747  20838182.227    20838189.557
       241.000         210.000
  23238833.849    -4289140.70249  -3326557.07446  23238833.500    23238842.020
       219.000         163.000
  20954935.969     2590255.58549   2020981.34747  20954936.309    20954943.790
       239.000         205.000
  21762374.042    -6519992.75849  -5061325.87347  21762373.632    21762381.814
       233.000         190.000
  23124191.853      -67913.75949    140360.36946  23124192.115    23124200.525
       223.000         170.000
  21796455.072    -3715312.96349  -2880840.03546  21796455.718    21796463.259
       228.000         182.000
  25201805.404    -5231223.30649  -4038711.87245  25201804.993    25201816.200
       203.000         138.000
 03  3 21 22 54 30.0000000  0  9G23G18G17G16G 6G15G29G26G 2
  20681292.209    -4882083.29049  -3568030.90848  20681291.660    20681298.969
       244.000         214.000
  21162809.604    -8041360.65549  -6241511.84347  21162809.312    21162815.538
       241.000         205.000
  20836290.420    -2387403.09749  -1850073.11647  20836289.817    20836297.258
       241.000         210.000
  23236229.842    -4302825.05349  -3337220.21046  23236230.103    23236238.279
       220.000         164.000
  20965592.559     2646255.79549   2064617.81747  20965592.672    20965600.209
       240.000         205.000
  21751912.333    -6574969.13549  -5104164.58247  21751911.805    21751919.642
       234.000         190.000
  23130227.340      -36197.06449    165074.64946  23130227.177    23130235.657
       223.000         170.000
  21795826.338    -3718617.42449  -2883414.93846  21795826.094    21795834.637
       229.000         183.000
  25193128.885    -5276817.99549  -4074240.16845  25193127.441    25193138.748
       203.000         137.000
 03  3 21 22 55  0.0000000  0  9G23G18G17G16G 6G15G29G26G 2
  20677127.905    -4903966.37349  -3585082.64248  20677127.363    20677134.860
       243.000         214.000
  21151669.560    -8099902.07049  -6287128.49647  21151669.144    21151675.253
       240.000         205.000
  20834429.946    -2397179.74249  -1857691.29247  20834429.335    20834436.909
       241.000         210.000
  23233729.239    -4315965.79049  -3347459.73346  23233728.095    23233737.005
       220.000         164.000
  20976332.596     2702694.77149   2108596.18947  20976332.347    20976340.320
       238.000         204.000
  21741477.388    -6629805.71249  -5146894.35547  21741476.929    21741485.211
       235.000         191.000
  23136361.781       -3960.65549    190193.87346  23136362.100    23136371.105
       223.000         170.000
  21795319.739    -3721279.85449  -2885489.57646  21795319.834    21795327.307
       230.000         182.000
  25184527.069    -5322019.92749  -4109462.40645  25184526.245    25184536.339
       203.000         136.000
 03  3 21 22 55 30.0000000  0  9G23G18G17G16G 6G15G29G26G 2
  20673049.659    -4925397.48449  -3601782.19348  20673049.376    20673056.508
       244.000         214.000
  21140607.435    -8158033.84649  -6332425.95147  21140607.222    21140613.796
       240.000         205.000
  20832601.922    -2406786.11249  -1865176.79347  20832601.650    20832609.034
       241.000         210.000
  23231332.353    -4328560.98949  -3357274.17746  23231332.543    23231341.290
       221.000         164.000
  20987156.278     2759573.78349   2152917.44047  20987156.024    20987164.046
       238.000         204.000
  21731069.327    -6684500.25949  -5189513.45447  21731068.584    21731076.890
       234.000         191.000
  23142595.359       28796.73049    215719.07246  23142595.564    23142604.224
       223.000         171.000
  21794935.705    -3723297.69649  -2887061.94346  21794935.890    21794944.024
       229.000         182.000
  25176000.424    -5366826.27949  -4144376.40745  25175999.278    25176012.409
       201.000         136.000
 03  3 21 22 56  0.0000000  0  9G23G18G17G16G 6G15G29G26G 2
  20669057.633    -4946375.87549  -3618128.97048  20669057.159    20669064.603
       244.000         214.000
  21129623.661    -8215753.94849  -6377402.61947  21129623.336    21129629.954
       241.000         206.000
  20830806.598    -2416220.90349  -1872528.59147  20830806.313    20830814.005
       241.000         211.000
  23229039.729    -4340609.39049  -3366662.54446  23229040.000    23229048.102
       222.000         165.000
  20998063.839     2816893.23449   2197581.89447  20998064.033    20998071.595
       239.000         203.000
  21720688.600    -6739051.05549  -5232020.54847  21720687.851    21720696.097
       235.000         191.000
  23148928.087       62075.37049    241650.43646  23148927.931    23148936.349
       223.000         171.000
  21794674.758    -3724669.27749  -2888130.72446  21794674.801    21794683.198
       230.000         183.000
  25167549.748    -5411234.74749  -4178980.36945  25167549.328    25167560.652
       203.000         137.000
 03  3 21 22 56 30.0000000  0  9G23G18G17G16G 6G15G29G26G 2
  20665151.504    -4966902.37549  -3634123.63248  20665151.044    20665158.345
       244.000         215.000
  21118718.318    -8273061.85249  -6422058.09547  21118718.086    21118724.585
       241.000         206.000
  20829043.772    -2425484.42649  -1879746.93247  20829043.233    20829050.914
       241.000         211.000
  23226851.145    -4352111.17949  -3375624.99046  23226850.646    23226859.363
       220.000         166.000
  21009054.985     2874651.95449   2242588.63247  21009054.874    21009062.588
       238.000         203.000
  21710335.242    -6793458.22749  -5274415.72247  21710334.458    21710343.079
       234.000         192.000
  23155359.826       95874.11749    267987.07946  23155359.708    23155367.997
       223.000         172.000
  21794536.847    -3725393.91249  -2888695.39546  21794537.226    21794544.891
       229.000         183.000
  25159174.939    -5455244.63649  -4213273.75345  25159174.926    25159185.487
       202.000         137.000
 03  3 21 22 57  0.0000000  0  9G23G18G17G16G 6G15G29G26G 2
  20661331.460    -4986977.02849  -3649766.20348  20661331.298    20661338.153
       245.000         215.000
  21107891.632    -8329956.40649  -6466391.47947  21107891.231    21107897.637
       241.000         206.000
  20827313.730    -2434576.00749  -1886831.29647  20827313.311    20827321.096
       241.000         211.000
  23224766.429    -4363066.22349  -3384161.39446  23224766.579    23224775.205
       220.000         166.000
  21020129.573     2932849.53149   2287937.34347  21020129.957    21020137.399
       239.000         204.000
  21700009.342    -6847721.11949  -5316698.47347  21700008.227    21700016.827
       234.000         192.000
  23161890.539      130192.69449    294728.78946  23161890.327    23161899.614
       224.000         171.000
  21794522.179    -3725470.79349  -2888755.32246  21794523.166    21794530.345
       230.000         184.000
  25150876.211    -5498854.48049  -4247255.40145  25150874.302    25150887.526
       203.000         136.000
 03  3 21 22 57 30.0000000  0  9G23G18G17G16G 6G15G29G26G 2
  20657597.407    -5006599.70449  -3665056.58848  20657597.323    20657604.239
       245.000         215.000
  21097143.777    -8386436.52049  -6510401.93147  21097143.461    21097150.031
       240.000         206.000
  20825616.570    -2443494.78849  -1893781.01347  20825616.186    20825623.925
       241.000         211.000
  23222785.965    -4373473.88949  -3392271.27146  23222786.360    23222794.222
       222.000         166.000
  21031287.783     2991485.61049   2333627.72647  21031288.322    21031295.374
       240.000         204.000
  21689711.024    -6901838.78449  -5358868.05547  21689710.626    21689718.650
       235.000         192.000
  23168520.076      165030.77249    321875.31446  23168520.207    23168530.057
       223.000         171.000
  21794631.197    -3724898.78149  -2888309.61346  21794631.421    21794639.373
       231.000         185.000
  25142653.895    -5542062.66549  -4280924.09045  25142652.794    25142664.204
       204.000         137.000
 03  3 21 22 58  0.0000000  0  9G23G18G17G16G 6G15G29G26G 2
  20653948.950    -5025772.63449  -3679996.51848  20653948.579    20653955.682
       245.000         215.000
  21086474.708    -8442502.96549  -6554090.03447  21086474.328    21086480.857
       241.000         206.000
  20823952.030    -2452242.01149  -1900597.05047  20823951.738    20823959.133
       241.000         211.000
  23220909.313    -4383336.29449  -3399956.26546  23220909.179    23220917.478
       221.000         166.000
  21042528.996     3050557.86249   2379658.00047  21042529.070    21042536.786
       239.000         204.000
  21679440.048    -6955812.79849  -5400925.70647  21679439.616    21679447.757
       235.000         192.000
  23175247.775      200385.69749    349424.56546  23175247.310    23175256.313
       221.000         169.000
  21794863.364    -3723679.02149  -2887359.16646  21794862.830    21794870.965
       230.000         184.000
  25134508.045    -5584869.75249  -4314280.24645  25134508.332    25134519.211
       203.000         138.000
 03  3 21 22 58 30.0000000  0  9G23G18G17G16G 6G15G29G26G 2
  20650386.281    -5044494.48549  -3694584.96348  20650385.935    20650393.104
       244.000         215.000
  21075884.817    -8498153.25749  -6597453.86447  21075884.279    21075890.956
       241.000         207.000
  20822320.539    -2460815.82349  -1907277.95047  20822320.238    20822327.727
       241.000         211.000
  23219136.722    -4392651.38149  -3407214.78446  23219137.735    23219144.824
       222.000         166.000
  21053853.250     3110067.21649   2426028.86447  21053853.640    21053861.251
       239.000         204.000
  21669196.871    -7009640.95549  -5442869.71047  21669196.338    21669204.498
       235.000         192.000
  23182073.995      236258.53249    377377.37646  23182074.244    23182082.717
       220.000         168.000
  21795219.109    -3721809.09749  -2885902.10246  21795219.014    21795227.215
       231.000         184.000
  25126438.981    -5627272.95249  -4347321.66245  25126438.698    25126451.009
       204.000         139.000
 03  3 21 22 59  0.0000000  0  9G23G18G17G16G 6G15G29G26G 2
  20646909.320    -5062765.78249  -3708822.32448  20646909.152    20646916.212
       244.000         215.000
  21065374.111    -8553386.74249  -6640492.91447  21065373.675    21065380.081
       240.000         207.000
  20820722.083    -2469216.00449  -1913823.55547  20820721.894    20820729.367
       242.000         211.000
  23217468.222    -4401419.56749  -3414047.14246  23217468.161    23217476.122
       222.000         166.000
  21065260.586     3170012.76749   2472739.62347  21065261.133    21065268.393
       240.000         204.000
  21658981.556    -7063322.90349  -5484699.76947  21658981.209    21658989.328
       235.000         192.000
  23188998.685      272648.17349    405732.89046  23188999.300    23189007.453
       223.000         168.000
  21795698.657    -3719288.75249  -2883938.21446  21795698.622    21795707.178
       230.000         184.000
  25118446.910    -5669271.45349  -4380047.72645  25118446.771    25118457.498
       206.000         140.000
 03  3 21 22 59 30.0000000  0  9G23G18G17G16G 6G15G29G26G 2
  20643517.756    -5080588.95249  -3722710.49348  20643517.390    20643524.615
       246.000         215.000
  21054942.565    -8608204.74349  -6683208.20947  21054942.397    21054948.813
       242.000         207.000
  20819156.402    -2477443.78149  -1920234.82547  20819156.018    20819163.519
       242.000         211.000
  23215903.405    -4409642.91849  -3420454.95846  23215902.825    23215910.704
       222.000         166.000
  21076750.469     3230391.58049   2519787.98347  21076750.559    21076758.024
       240.000         204.000
  21648793.732    -7116860.42349  -5526417.28947  21648793.212    21648801.518
       236.000         192.000
  23196021.379      309551.85149    434488.97346  23196021.638    23196030.613
       225.000         169.000
  21796301.776    -3716119.32549  -2881468.55646  21796302.014    21796309.810
       232.000         183.000
  25110531.735    -5710866.05349  -4412459.05045  25110531.291    25110541.651
       205.000         139.000
 03  3 21 23  0  0.0000000  0  9G23G18G17G16G 6G15G29G26G 2
  20640211.697    -5097962.10149  -3736248.00348  20640211.279    20640218.619
       244.000         215.000
  21044590.760    -8662603.99949  -6725597.20847  21044590.263    21044596.809
       242.000         207.000
  20817623.938    -2485496.98749  -1926510.06447  20817623.479    20817631.112
       241.000         211.000
  23214442.503    -4417319.13549  -3426436.42646  23214442.206    23214450.949
       221.000         166.000
  21088322.971     3291205.31649   2567175.24947  21088323.238    21088330.717
       239.000         204.000
  21638633.932    -7170250.37849  -5568019.82647  21638632.826    21638641.590
       235.000         192.000
  23203142.184      346971.07349    463646.76446  23203142.759    23203150.618
       223.000         169.000
  21797028.992    -3712297.92649  -2878490.86546  21797029.461    21797036.940
       232.000         184.000
  25102694.107    -5752053.36049  -4444553.04645  25102693.367    25102704.369
       204.000         140.000
 03  3 21 23  0 30.0000000  0  9G23G18G17G16G 6G15G29G26G 2
  20636990.811    -5114888.14349  -3749437.11348  20636990.699    20636997.431
       246.000         215.000
  21034318.241    -8716586.37849  -6767661.36447  21034317.785    21034324.273
       242.000         208.000
  20816124.389    -2493377.22849  -1932650.52147  20816123.977    20816131.334
       242.000         211.000
  23213085.496    -4424450.91049  -3431993.65546  23213086.125    23213093.078
       222.000         165.000
  21099977.602     3352450.76749   2614898.92147  21099977.729    21099985.350
       239.000         203.000
  21628501.663    -7223494.99449  -5609509.10647  21628500.830    21628509.461
       235.000         192.000
  23210360.344      384902.57749    493203.73746  23210359.602    23210369.319
       221.000         167.000
  21797879.896    -3707826.60449  -2875006.74846  21797880.481    21797888.892
       232.000         186.000
  25094933.539    -5792834.85849  -4476330.78945  25094932.999    25094943.937
       205.000         139.000
 03  3 21 23  1  0.0000000  0  9G23G18G17G16G 6G15G29G26G 2
  20633855.287    -5131365.54349  -3762276.63548  20633854.750    20633861.872
       244.000         215.000
  21024125.570    -8770149.00849  -6809398.45447  21024125.351    21024131.672
       241.000         208.000
  20814658.196    -2501082.17849  -1938654.39147  20814657.572    20814665.282
       241.000         211.000
  23211832.332    -4431036.24149  -3437125.08146  23211831.973    23211839.979
       222.000         165.000
  21111714.654     3414129.25349   2662960.01847  21111714.664    21111722.579
       238.000         203.000
  21618397.671    -7276591.91849  -5650883.30947  21618397.555    21618405.380
       235.000         192.000
  23217676.106      423347.72449    523160.94646  23217676.337    23217684.630
       222.000         167.000
  21798855.009    -3702702.78449  -2871014.17746  21798855.856    21798863.443
       232.000         186.000
  25087250.950    -5833207.29049  -4507789.80245  25087251.237    25087261.833
       206.000         139.000
 03  3 21 23  1 30.0000000  0  9G23G18G17G16G 6G15G29G26G 2
  20630804.590    -5147396.81449  -3774768.52248  20630804.361    20630811.575
       245.000         215.000
  21014012.533    -8823293.45649  -6850809.68647  21014012.152    21014018.661
       241.000         208.000
  20813224.916    -2508614.07049  -1944523.41247  20813224.534    20813232.193
       241.000         211.000
  23210682.805    -4437077.68549  -3441832.70046  23210683.468    23210690.390
       223.000         166.000
  21123533.483     3476237.82549   2711356.25647  21123533.682    21123541.344
       238.000         203.000
  21608321.465    -7329542.88549  -5692143.77647  21608320.451    21608328.977
       235.000         192.000
  23225089.189      462303.02449    553515.68546  23225089.695    23225098.052
       223.000         167.000
  21799953.925    -3696928.19949  -2866514.50846  21799953.696    21799962.387
       229.000         184.000
  25079645.971    -5873171.93549  -4538931.05445  25079644.933    25079655.061
       203.000         139.000
 03  3 21 23  2  0.0000000  0  9G23G18G17G16G 6G15G29G26G 2
  20627838.744    -5162982.56649  -3786913.25048  20627838.485    20627845.677
       244.000         215.000
  21003979.068    -8876019.21749  -6891894.67447  21003978.818    21003985.369
       241.000         208.000
  20811824.712    -2515972.28349  -1950257.09947  20811824.504    20811832.189
       241.000         211.000
  23209636.799    -4442575.44849  -3446116.69146  23209637.013    23209645.254
       222.000         167.000
  21135434.081     3538775.31449   2760086.69847  21135434.603    21135441.915
       239.000         203.000
  21598273.064    -7382347.39649  -5733290.12747  21598272.517    21598280.609
       235.000         192.000
  23232599.099      501767.52649    584267.21946  23232599.196    23232608.176
       221.000         168.000
  21801176.491    -3690502.52149  -2861507.50746  21801176.699    21801184.875
       229.000         183.000
  25072118.558    -5912727.76649  -4569753.75345  25072118.224    25072128.426
       205.000         138.000
 03  3 21 23  2 30.0000000  0  9G23G18G17G16G 6G15G29G26G 2
  20624957.810    -5178121.92149  -3798710.12948  20624957.539    20624964.605
       245.000         215.000
  20994025.779    -8928324.14049  -6932651.72847  20994025.559    20994032.056
       242.000         208.000
  20810457.998    -2523154.64949  -1955853.76147  20810457.600    20810465.330
       241.000         211.000
  23208694.342    -4447528.08249  -3449975.88246  23208694.075    23208701.651
       223.000         167.000
  21147416.507     3601742.48749   2809151.96347  21147416.978    21147424.282
       239.000         203.000
  21588252.926    -7435003.37549  -5774320.73047  21588252.374    21588260.143
       235.000         192.000
  23240205.917      541741.90249    615416.04046  23240205.770    23240215.312
       222.000         168.000
  21802523.514    -3683423.86849  -2855991.68046  21802523.937    21802532.243
       231.000         184.000
  25064669.574    -5951872.33049  -4600255.97745  25064668.831    25064679.383
       206.000         140.000
 03  3 21 23  3  0.0000000  0  9G23G18G17G16G 6G15G29G26G 2
  20622161.336    -5192817.27349  -3810161.03948  20622160.805    20622168.181
       244.000         215.000
  20984152.416    -8980209.00149  -6973081.47047  20984152.044    20984158.513
       241.000         208.000
  20809124.397    -2530162.60649  -1961314.52347  20809124.153    20809131.882
       241.000         211.000
  23207855.306    -4451937.73049  -3453411.98146  23207855.106    23207862.778
       223.000         166.000
  21159480.035     3665136.57249   2858549.89047  21159480.267    21159487.865
       239.000         202.000
  21578260.776    -7487512.36649  -5815236.80547  21578260.321    21578268.655
       236.000         193.000
  23247909.385      582223.40949    646960.02846  23247909.987    23247918.069
       220.000         168.000
  21803994.522    -3675693.70149  -2849968.19046  21803995.018    21804003.473
       231.000         185.000
  25057298.696    -5990606.25349  -4630438.20745  25057298.044    25057308.500
       207.000         140.000
 03  3 21 23  3 30.0000000  0  9G23G18G17G16G 6G15G29G26G 2
  20619449.267    -5207068.88849  -3821266.17948  20619448.853    20619456.227
       245.000         215.000
  20974359.087    -9031673.15149  -7013183.38647  20974358.724    20974364.972
       243.000         208.000
  20807824.227    -2536995.19649  -1966638.63647  20807823.893    20807831.499
       242.000         211.000
  23207119.399    -4455804.63749  -3456425.15446  23207119.176    23207126.996
       223.000         166.000
  21171624.652     3728956.73449   2908279.82947  21171624.649    21171632.614
       240.000         202.000
  21568296.802    -7539873.80349  -5856037.90147  21568296.359    21568304.394
       236.000         193.000
  23255709.106      623211.22849    678898.53946  23255708.878    23255718.566
       221.000         167.000
  21805589.567    -3667311.61349  -2843436.69946  21805589.764    21805597.839
       231.000         185.000
  25050006.220    -6028928.55249  -4660299.72545  25050006.132    25050015.604
       206.000         141.000
 03  3 21 23  4  0.0000000  0  9G23G18G17G16G 6G15G29G26G 2
  20616821.835    -5220876.35249  -3832025.22148  20616821.561    20616828.741
       245.000         215.000
  20964646.171    -9082714.88049  -7052956.14147  20964645.898    20964652.146
       242.000         208.000
  20806557.560    -2543651.64649  -1971825.48947  20806557.150    20806565.016
       242.000         211.000
  23206487.084    -4459127.93549  -3459014.74046  23206486.943    23206494.836
       223.000         166.000
  21183850.438     3793203.29449   2958342.02747  21183850.455    21183858.090
       239.000         202.000
  21558361.106    -7592086.11249  -5896722.78847  21558360.458    21558368.596
       235.000         193.000
  23263605.068      664705.34549    711231.59246  23263605.411    23263614.239
       219.000         166.000
  21807308.942    -3658276.25849  -2836396.17246  21807308.624    21807317.758
       231.000         185.000
  25042792.337    -6066837.48149  -4689839.12445  25042792.076    25042802.698
       203.000         140.000
 03  3 21 23  4 30.0000000  0  9G23G18G17G16G 6G15G29G26G 2
  20614278.684    -5234240.78249  -3842439.05348  20614278.302    20614285.365
       244.000         215.000
  20955013.730    -9133334.06449  -7092399.64347  20955013.626    20955019.629
       241.000         209.000
  20805324.534    -2550131.54349  -1976874.78447  20805324.224    20805331.842
       242.000         211.000
  23205958.044    -4461908.54649  -3461181.46246  23205956.880    23205966.017
       221.000         166.000
  21196157.089     3857874.80549   3008735.34547  21196157.056    21196164.930
       238.000         202.000
  21548453.882    -7644148.95549  -5937291.21747  21548453.486    21548461.930
       235.000         193.000
  23271597.210      706704.20849    743957.94146  23271597.668    23271606.633
       220.000         166.000
  21809152.656    -3648587.88649  -2828846.80746  21809153.187    21809161.295
       232.000         186.000
  25035657.311    -6104332.36749  -4719055.89545  25035656.805    25035667.924
       207.000         141.000
 03  3 21 23  5  0.0000000  0  9G23G18G17G16G 6G15G29G26G 2
  20611819.376    -5247164.44849  -3852509.43148  20611819.194    20611825.905
       244.000         215.000
  20945461.434    -9183531.65549  -7131514.62747  20945461.009    20945467.303
       242.000         209.000
  20804124.795    -2556436.33749  -1981787.62047  20804124.604    20804131.728
       241.000         211.000
  23205531.609    -4464148.27149  -3462926.71546  23205530.396    23205538.372
       220.000         165.000
  21208544.059     3922968.77149   3059457.84847  21208544.001    21208551.578
       238.000         201.000
  21538574.831    -7696063.76249  -5977744.28747  21538574.005    21538582.252
       235.000         194.000
  23279684.924      749205.17749    777075.54846  23279685.079    23279694.168
       218.000         166.000
  21811120.442    -3638247.85149  -2820789.63446  21811120.785    21811128.657
       231.000         186.000
  25028600.988    -6141413.92049  -4747950.55145  25028601.190    25028611.256
       208.000         142.000
 03  3 21 23  5 30.0000000  0  9G23G18G17G16G 6G15G29G26G 2
  20609443.990    -5259647.33549  -3862236.33448  20609443.399    20609450.535
       244.000         215.000
  20935989.579    -9233306.55449  -7170300.23947  20935989.216    20935995.212
       242.000         209.000
  20802958.594    -2562565.02449  -1986563.22547  20802957.932    20802965.698
       242.000         211.000
  23205208.288    -4465846.97549  -3464250.37146  23205208.329    23205215.142
       221.000         164.000
  21221011.349     3988484.73049   3110509.18647  21221011.410    21221018.936
       238.000         201.000
  21528724.105    -7747829.42249  -6018081.13347  21528723.485    21528731.571
       235.000         194.000
  23287868.050      792207.83549    810584.06546  23287867.765    23287877.875
       218.000         165.000
  21813212.193    -3627255.51349  -2812224.16246  21813212.048    21813220.184
       232.000         186.000
  25021623.483    -6178080.84849  -4776522.12945  25021622.022    25021633.323
       207.000         142.000
 03  3 21 23  6  0.0000000  0  9G23G18G17G16G 6G15G29G26G 2
  20607152.482    -5271689.11949  -3871619.53448  20607152.055    20607159.355
       244.000         215.000
  20926598.468    -9282657.34549  -7208755.37847  20926598.277    20926604.450
       242.000         209.000
  20801826.204    -2568515.97049  -1991200.34647  20801825.946    20801833.305
       242.000         211.000
  23204988.028    -4467004.48249  -3465152.33546  23204987.951    23204995.364
       220.000         164.000
  21233558.914     4054422.50149   3161889.20247  21233559.073    21233566.516
       238.000         200.000
  21518902.045    -7799444.60449  -6058300.73647  21518901.864    21518909.349
       237.000         194.000
  23296146.704      835711.99249    844483.37746  23296147.013    23296156.177
       218.000         165.000
  21815428.319    -3615609.76949  -2803149.55246  21815427.963    21815437.036
       231.000         186.000
  25014725.331    -6214331.12249  -4804769.07845  25014725.236    25014734.739
       205.000         142.000
 03  3 21 23  6 30.0000000  0  9G23G18G17G16G 6G15G29G26G 2
  20604944.413    -5283292.22549  -3880660.90648  20604943.904    20604951.125
       244.000         214.000
  20917287.775    -9331585.20849  -7246880.96247  20917287.293    20917293.715
       241.000         209.000
  20800727.344    -2574290.64649  -1995700.10847  20800726.547    20800734.408
       242.000         211.000
  23204870.397    -4467622.69949  -3465634.07246  23204869.563    23204877.577
       220.000         164.000
  21246186.260     4120779.37749   3213595.79147  21246186.661    21246194.227
       238.000         200.000
  21509108.525    -7850910.61549  -6098404.09147  21509108.064    21509115.982
       236.000         195.000
  23304520.139      879714.63749    878771.10346  23304520.007    23304529.788
       220.000         165.000
  21817768.381    -3603312.33049  -2793567.13446  21817768.323    21817776.704
       230.000         185.000
  25007906.314    -6250165.79649  -4832692.17945  25007906.007    25007915.826
       204.000         143.000
 03  3 21 23  7  0.0000000  0  9G23G18G17G16G 6G15G29G26G 2
  20602819.858    -5294456.75949  -3889360.53648  20602819.725    20602826.588
       244.000         214.000
  20908057.859    -9380088.60149  -7284675.79347  20908057.703    20908063.764
       242.000         209.000
  20799662.096    -2579888.34149  -2000061.96447  20799661.594    20799669.092
       241.000         211.000
  23204855.418    -4467701.02849  -3465695.11546  23204855.173    23204862.854
       221.000         164.000
  21258893.279     4187554.97549   3265628.65647  21258893.394    21258901.196
       238.000         200.000
  21499343.429    -7902226.20849  -6138390.24647  21499342.415    21499350.264
       236.000         195.000
  23312988.494      924215.43449    913447.00846  23312988.814    23312997.965
       220.000         166.000
  21820232.611    -3590362.36749  -2783476.26446  21820232.857    21820240.948
       231.000         185.000
  25001166.545    -6285583.33249  -4860290.21645  25001165.923    25001176.969
       209.000         144.000
 03  3 21 23  7 30.0000000  0  9G23G18G17G16G 6G15G29G26G 2
  20600778.603    -5305183.76649  -3897719.23048  20600778.168    20600785.084
       244.000         215.000
  20898908.623    -9428167.92349  -7322140.17447  20898908.277    20898914.549
       241.000         209.000
  20798630.664    -2585308.38649  -2004285.38547  20798630.398    20798638.058
       242.000         211.000
  23204942.986    -4467240.84449  -3465336.54246  23204943.162    23204950.625
       222.000         164.000
  21271679.652     4254747.82149   3317986.65847  21271679.723    21271687.702
       237.000         200.000
  21489606.840    -7953391.49749  -6178259.27247  21489605.815    21489614.399
       235.000         194.000
  23321551.338      969212.69149    948509.76746  23321551.456    23321560.174
       221.000         166.000
  21822821.152    -3576760.37349  -2772877.31246  21822821.865    21822829.873
       232.000         186.000
  24994506.372    -6320583.35949  -4887562.94245  24994505.554    24994516.033
       207.000         143.000
 03  3 21 23  8  0.0000000  0  9G23G18G17G16G 6G15G29G26G 2
  20598820.387    -5315474.13549  -3905737.68448  20598819.564    20598827.170
       244.000         215.000
  20889840.218    -9475822.61749  -7359273.67347  20889839.555    20889846.076
       241.000         209.000
  20797633.139    -2590550.69549  -2008370.30947  20797632.419    20797640.390
       242.000         211.000
  23205132.880    -4466242.88749  -3464558.93346  23205132.541    23205141.026
       220.000         164.000
  21284545.273     4322356.73249   3370668.86247  21284545.646    21284553.115
       238.000         200.000
  21479899.043    -8004406.17349  -6218010.93447  21479898.865    21479906.635
       237.000         195.000
  23330208.299     1014705.17349    983958.42846  23330207.753    23330217.863
       219.000         166.000
  21825533.716    -3562506.38949  -2761770.30546  21825533.877    21825541.798
       232.000         186.000
  24987925.578    -6355165.23549  -4914509.84745  24987925.139    24987934.579
       206.000         141.000
 03  3 21 23  8 30.0000000  0  9G23G18G17G16G 6G15G29G26G 2
  20596945.211    -5325328.12549  -3913416.11648  20596944.812    20596952.019
       246.000         215.000
  20880852.706    -9523051.85649  -7396075.65647  20880852.137    20880858.508
       243.000         209.000
  20796669.549    -2595614.57349  -2012316.20947  20796669.186    20796676.626
       244.000         211.000
  23205425.039    -4464707.25349  -3463362.34046  23205424.209    23205433.165
       222.000         165.000
  21297490.028     4390381.02349   3423674.72447  21297490.294    21297497.880
       240.000         200.000
  21470220.244    -8055269.28449  -6257644.50647  21470219.376    21470227.338
       239.000         196.000
  23338959.238     1060691.97749   1019792.27946  23338958.605    23338969.227
       220.000         165.000
  21828370.231    -3547600.24649  -2750155.12646  21828370.214    21828377.851
       232.000         185.000
  24981424.597    -6389327.73049  -4941129.96645  24981423.990    24981434.636
       206.000         141.000
 03  3 21 23  9  0.0000000  0  9G23G18G17G16G 6G15G29G26G 2
  20595153.016    -5334746.50649  -3920755.10048  20595152.443    20595159.764
       244.000         215.000
  20871946.350    -9569855.03349  -7432545.63747  20871945.992    20871952.390
       241.000         209.000
  20795740.023    -2600499.54149  -2016122.69447  20795739.649    20795747.051
       242.000         211.000
  23205819.367    -4462634.58649  -3461747.28646  23205819.006    23205827.299
       221.000         165.000
  21310513.565     4458819.57949   3477003.39547  21310513.518    21310521.335
       237.000         199.000
  21460570.179    -8105980.38649  -6297159.63247  21460569.627    21460577.422
       237.000         196.000
  23347804.025     1107172.05049   1056010.47746  23347803.802    23347813.592
       218.000         164.000
  21831330.813    -3532041.77849  -2738031.63746  21831330.904    21831338.196
       229.000         184.000
  24975003.596    -6423070.15249  -4967422.72345  24975003.215    24975012.770
       207.000         141.000
 03  3 21 23  9 30.0000000  0  9G23G18G17G16G 6G15G29G26G 2
  20593443.247    -5343731.18349  -3927756.14648  20593442.876    20593450.094
       244.000         215.000
  20863120.934    -9616232.95849  -7468684.25647  20863120.852    20863126.966
       240.000         209.000
  20794844.448    -2605206.03349  -2019790.10547  20794843.959    20794851.623
       242.000         211.000
  23206315.781    -4460026.39049  -3459714.94746  23206315.732    23206324.155
       221.000         165.000
  21323615.437     4527670.24049   3530653.19647  21323615.858    21323623.120
       238.000         199.000
  21450949.013    -8156539.94449  -6336556.66347  21450948.417    21450956.276
       237.000         196.000
  23356742.260     1154142.88149   1092611.06746  23356742.863    23356751.056
       219.000         164.000
  21834415.380    -3515832.25349  -2725400.84846  21834415.828    21834423.534
       229.000         183.000
  24968662.756    -6456392.86049  -4993388.46945  24968663.924    24968671.889
       209.000         143.000
 03  3 21 23 10  0.0000000  0  9G23G18G17G16G 6G15G29G26G 2
  20591815.744    -5352283.63749  -3934420.39048  20591815.363    20591822.511
       244.000         215.000
  20854376.358    -9662185.92249  -7504491.73047  20854375.816    20854382.234
       240.000         209.000
  20793982.701    -2609734.47249  -2023318.77247  20793982.416    20793989.725
       242.000         211.000
  23206913.798    -4456883.92949  -3457266.30746  23206913.698    23206921.782
       218.000         164.000
  21336795.413     4596931.04549   3584622.60047  21336795.754    21336803.471
       237.000         199.000
  21441356.657    -8206948.19049  -6375835.79147  21441356.258    21441363.923
       237.000         196.000
  23365773.621     1201602.37149   1129592.45246  23365773.632    23365782.828
       218.000         164.000
  21837623.636    -3498972.70149  -2712263.53946  21837624.027    21837631.968
       229.000         183.000
  24962401.781    -6489295.96849  -5019027.25545  24962400.869    24962410.460
       206.000         144.000
 03  3 21 23 10 30.0000000  0  9G23G18G17G16G 6G15G29G26G 2
  20590270.721    -5360402.74649  -3940746.96048  20590270.472    20590277.198
       244.000         215.000
  20845713.043    -9707711.63549  -7539966.28647  20845712.563    20845718.757
       240.000         209.000
  20793155.313    -2614082.43649  -2026706.81047  20793155.018    20793162.558
       242.000         211.000
  23207613.535    -4453206.28149  -3454400.60946  23207613.264    23207622.480
       220.000         164.000
  21350053.600     4666602.88449   3638912.28447  21350053.416    21350061.145
       236.000         199.000
  21431793.561    -8257202.84349  -6414995.23847  21431792.849    21431800.755
       237.000         197.000
  23374897.951     1249551.24449   1166955.16446  23374897.995    23374907.249
       220.000         164.000
  21840955.898    -3481461.26449  -2698618.27646  21840956.640    21840963.988
       229.000         183.000
  24956220.890    -6521776.88449  -5044337.04445  24956220.528    24956230.687
       210.000         144.000
 03  3 21 23 11  0.0000000  0  9G23G18G17G16G 6G15G29G26G 2
  20588807.771    -5368090.75249  -3946737.60748  20588807.515    20588814.399
       244.000         215.000
  20837130.829    -9752811.17049  -7575108.75247  20837130.255    20837136.927
       241.000         209.000
  20792362.082    -2618250.85649  -2029954.94647  20792361.618    20792369.267
       242.000         211.000
  23208415.054    -4448995.44749  -3451119.46646  23208415.268    23208422.824
       220.000         164.000
  21363389.384     4736683.01349   3693520.11547  21363389.024    21363397.187
       236.000         198.000
  21422259.427    -8307304.84749  -6454035.73747  21422258.579    21422266.610
       237.000         197.000
  23384115.133     1297986.88749   1204697.18946  23384115.324    23384124.557
       220.000         165.000
  21844411.902    -3463299.64949  -2684466.37346  21844412.348    21844419.872
       229.000         183.000
  24950120.335    -6553836.24849  -5069318.35045  24950119.452    24950131.029
       209.000         144.000
 03  3 21 23 11 30.0000000  0  9G23G18G17G16G 6G15G29G26G 2
  20587426.709    -5375348.25049  -3952392.80348  20587426.581    20587433.458
       244.000         215.000
  20828629.909    -9797483.81549  -7609918.58047  20828629.730    20828635.907
       240.000         210.000
  20791603.142    -2622239.03249  -2033062.63147  20791602.843    20791610.253
       242.000         211.000
  23209317.825    -4444251.72349  -3447423.08646  23209317.794    23209325.410
       219.000         164.000
  21376802.619     4807170.55349   3748445.41547  21376802.488    21376810.810
       236.000         198.000
  21412754.511    -8357253.46049  -6492956.71747  21412753.719    21412761.960
       237.000         197.000
  23393424.689     1346908.09549   1242817.56646  23393425.049    23393433.241
       218.000         164.000
  21847991.669    -3444487.66049  -2669807.68746  21847992.350    21848000.006
       229.000         182.000
  24944099.909    -6585473.17149  -5093970.50045  24944098.240    24944109.954
       207.000         144.000
 03  3 21 23 12  0.0000000  0  9G23G18G17G16G 6G15G29G26G 2
  20586127.484    -5382176.05849  -3957713.16748  20586127.311    20586134.180
       244.000         215.000
  20820210.273    -9841729.22149  -7644395.48947  20820210.059    20820216.299
       241.000         210.000
  20790878.566    -2626046.51549  -2036029.51047  20790878.185    20790885.672
       242.000         211.000
  23210321.791    -4438976.04549  -3443312.19346  23210321.859    23210329.795
       221.000         164.000
  21390293.324     4878064.35849   3803687.27447  21390293.568    21390301.331
       236.000         197.000
  21403278.831    -8407048.12749  -6531757.74247  21403278.359    21403286.213
       237.000         197.000
  23402826.215     1396313.46949   1281315.20546  23402825.611    23402835.801
       217.000         164.000
  21851695.176    -3425025.65249  -2654642.47746  21851695.056    21851703.253
       229.000         182.000
  24938159.843    -6616687.07649  -5118293.02045  24938159.681    24938169.751
       209.000         145.000
 03  3 21 23 12 30.0000000  0  9G23G18G17G16G 6G15G29G26G 2
  20584908.651    -5388581.25549  -3962704.22448  20584908.504    20584915.395
       244.000         215.000
  20811870.822    -9885553.28049  -7678544.07847  20811870.402    20811876.691
       241.000         210.000
  20790187.380    -2629678.80249  -2038859.87347  20790187.013    20790194.744
       242.000         211.000
  23211425.732    -4433175.31849  -3438792.17546  23211424.735    23211433.701
       219.000         163.000
  21403859.956     4949356.89449   3859239.83047  21403860.196    21403868.163
       236.000         197.000
  21393831.525    -8456694.32549  -6570443.06347  21393830.909    21393838.979
       237.000         197.000
  23412318.299     1446195.51349   1320184.26746  23412318.419    23412327.642
       218.000         163.000
  21855521.156    -3404920.18449  -2638975.87146  21855521.817    21855530.023
       229.000         183.000
  24932299.568    -6647483.57149  -5142290.29045  24932299.308    24932309.642
       209.000         146.000
 03  3 21 23 13  0.0000000  0  9G23G18G17G16G 6G15G29G26G 2
  20583771.631    -5394556.25249  -3967360.06148  20583771.152    20583778.190
       244.000         215.000
  20803613.141    -9928947.37349  -7712357.62847  20803613.008    20803619.117
       241.000         210.000
  20789531.216    -2633127.12349  -2041546.89847  20789530.887    20789538.153
       242.000         211.000
  23212630.824    -4426841.82749  -3433857.00946  23212631.010    23212639.493
       221.000         164.000
  21417503.854     5021055.38449   3915108.71047  21417504.110    21417511.880
       236.000         198.000
  21384414.004    -8506183.22649  -6609005.82547  21384413.409    21384421.286
       236.000         197.000
  23421902.668     1496561.32049   1359430.28846  23421902.244    23421911.683
       220.000         164.000
  21859471.121    -3384163.12149  -2622801.54546  21859470.953    21859479.006
       227.000         182.000
  24926520.203    -6677853.44349  -5165955.08045  24926519.310    24926530.884
       208.000         145.000
 03  3 21 23 13 30.0000000  0  9G23G18G17G16G 6G15G29G26G 2
  20582716.014    -5400103.38849  -3971682.49948  20582715.672    20582722.779
       245.000         215.000
  20795437.165    -9971912.48849  -7745836.90847  20795437.039    20795442.989
       243.000         210.000
  20788909.933    -2636392.20149  -2044091.12747  20788909.537    20788917.117
       243.000         211.000
  23213937.067    -4419977.76949  -3428508.41446  23213937.056    23213944.621
       221.000         165.000
  21431224.367     5093157.03449   3971291.75147  21431224.322    21431232.792
       237.000         197.000
  21375026.203    -8555515.98949  -6647446.91647  21375025.618    21375033.654
       238.000         197.000
  23431578.503     1547407.85449   1399050.90446  23431578.496    23431588.302
       218.000         164.000
  21863544.505    -3362756.38549  -2606120.97146  21863544.263    21863553.505
       227.000         181.000
  24920821.855    -6707797.70449  -5189288.25845  24920821.574    24920832.029
       209.000         145.000
 03  3 21 23 14  0.0000000  0  9G23G18G17G16G 6G15G29G26G 2
  20581741.829    -5405222.84249  -3975671.67748  20581741.347    20581748.465
       245.000         215.000
  20787343.090   -10014447.59549  -7778981.12047  20787342.642    20787348.761
       242.000         210.000
  20788323.594    -2639473.30149  -2046492.00147  20788322.724    20788330.956
       242.000         211.000
  23215344.189    -4412583.44449  -3422746.61346  23215344.581    23215351.467
       221.000         165.000
  21445021.508     5165661.52849   4027788.69447  21445021.491    21445029.578
       235.000         197.000
  21365668.398    -8604691.24149  -6685765.27247  21365667.806    21365675.598
       239.000         198.000
  23441345.602     1598734.57649   1439045.69246  23441345.194    23441355.155
       218.000         163.000
  21867741.618    -3340699.47549  -2588933.78246  21867742.107    21867750.346
       228.000         182.000
  24915204.716    -6737315.19649  -5212288.91945  24915204.033    24915215.158
       209.000         146.000
 03  3 21 23 14 30.0000000  0  9G23G18G17G16G 6G15G29G26G 2
  20580848.333    -5409917.99649  -3979330.23848  20580848.115    20580855.163
       244.000         215.000
  20779330.293   -10056554.73649  -7811791.85447  20779329.909    20779336.086
       241.000         210.000
  20787771.911    -2642372.07649  -2048750.80947  20787771.465    20787779.332
       241.000         211.000
  23216851.649    -4404661.99249  -3416574.06546  23216850.979    23216859.607
       220.000         165.000
  21458894.628     5238565.25249   4084596.71947  21458894.566    21458902.243
       234.000         195.000
  21356340.389    -8653710.75949  -6723962.28047  21356339.614    21356348.186
       238.000         199.000
  23451203.503     1650537.63449   1479411.66145  23451203.749    23451211.323
       220.000         162.000
  21872062.185    -3317995.18249  -2571242.12346  21872062.326    21872071.546
       229.000         183.000
  24909668.643    -6766407.61449  -5234958.32645  24909668.605    24909678.683
       210.000         147.000
 03  3 21 23 15  0.0000000  0  9G23G18G17G16G 6G15G29G26G 2
  20580035.434    -5414189.87849  -3982658.97248  20580035.198    20580042.216
       244.000         215.000
  20771399.039   -10098233.74849  -7844268.98147  20771398.660    20771404.711
       241.000         210.000
  20787255.076    -2645088.23049  -2050867.31047  20787254.833    20787262.497
       241.000         211.000
  23218459.066    -4396214.34249  -3409991.50546  23218458.616    23218467.687
       219.000         164.000
  21472843.496     5311866.70649   4141714.65947  21472843.820    21472851.737
       235.000         195.000
  21347041.913    -8702574.34849  -6762037.78147  21347041.161    21347049.360
       237.000         198.000
  23461151.797     1702815.38749   1520147.52145  23461152.632    23461160.863
       219.000         162.000
  21876505.874    -3294644.29949  -2553046.63346  21876506.330    21876514.417
       228.000         183.000
  24904213.569    -6795074.47049  -5257296.11145  24904213.102    24904223.791
       208.000         146.000
 03  3 21 23 15 30.0000000  0  9G23G18G17G16G 6G15G29G26G 2
  20579302.902    -5418039.41049  -3985658.59748  20579302.595    20579309.645
       244.000         215.000
  20763549.146   -10139484.66949  -7876412.53047  20763548.774    20763555.133
       241.000         210.000
  20786773.080    -2647621.25349  -2052841.10847  20786772.707    20786780.511
       242.000         211.000
  23220166.479    -4387241.35149  -3402999.58946  23220165.844    23220175.399
       220.000         165.000
  21486867.768     5385564.48549   4199141.43247  21486867.901    21486876.134
       234.000         195.000
  21337773.233    -8751281.36649  -6799991.28247  21337772.507    21337780.367
       237.000         198.000
  23471190.174     1755566.37049   1561252.14445  23471190.313    23471199.352
       220.000         161.000
  21881072.347    -3270647.23549  -2534347.62846  21881072.139    21881081.024
       227.000         182.000
  24898839.471    -6823315.34549  -5279301.95545  24898839.742    24898850.166
       209.000         145.000
 03  3 21 23 16  0.0000000  0  9G23G18G17G16G 6G15G29G26G 2
  20578650.599    -5421467.35949  -3988329.72548  20578650.307    20578657.195
       244.000         215.000
  20755780.935   -10180306.97749  -7908222.09447  20755780.582    20755786.916
       241.000         210.000
  20786326.087    -2649970.53949  -2054671.73147  20786325.926    20786333.351
       242.000         211.000
  23221973.916    -4377743.87749  -3395598.98246  23221974.312    23221982.398
       221.000         165.000
  21500967.201     5459657.48649   4256876.17347  21500967.140    21500975.877
       235.000         195.000
  21328534.514    -8799830.95349  -6837822.09847  21328534.253    21328542.025
       238.000         199.000
  23481318.096     1808789.26049   1602724.47545  23481317.842    23481327.791
       217.000         160.000
  21885761.708    -3246004.26049  -2515145.31846  21885761.942    21885770.705
       227.000         182.000
  24893546.493    -6851129.43849  -5300975.28545  24893545.437    24893556.096
       206.000         144.000
 03  3 21 23 16 30.0000000  0  9G23G18G17G16G 6G15G29G26G 2
  20578078.169    -5424475.29949  -3990673.57548  20578078.093    20578084.857
       244.000         215.000
  20748094.213   -10220700.86649  -7939697.82847  20748093.903    20748100.051
       241.000         210.000
  20785914.103    -2652135.79149  -2056358.95647  20785913.951    20785921.791
       242.000         211.000
  23223880.799    -4367723.48449  -3387790.90246  23223880.542    23223887.924
       220.000         166.000
  21515141.575     5534143.85849   4314917.42347  21515142.257    21515150.018
       236.000         195.000
  21319325.835    -8848223.03949  -6875530.20047  21319325.318    21319333.207
       238.000         199.000
  23491535.439     1862481.94849   1644562.86745  23491536.088    23491544.929
       218.000         161.000
  21890573.781    -3220716.48049  -2495440.57246  21890573.881    21890582.930
       227.000         182.000
  24888334.619    -6878517.06149  -5322316.28745  24888334.894    24888344.770
       210.000         146.000
 03  3 21 23 17  0.0000000  0  9G23G18G17G16G 6G15G29G26G 2
  20577585.015    -5427067.03149  -3992693.10248  20577584.605    20577591.651
       244.000         215.000
  20740488.477   -10260669.08549  -7970841.87147  20740488.229    20740494.497
       241.000         210.000
  20785536.581    -2654119.68149  -2057904.85747  20785536.123    20785544.098
       242.000         211.000
  23225886.372    -4357184.01449  -3379578.35346  23225886.513    23225894.600
       220.000         165.000
  21529390.043     5609019.36849   4373261.89747  21529389.983    21529398.397
       235.000         195.000
  21310146.669    -8896460.17249  -6913117.55247  21310146.303    21310154.059
       238.000         200.000
  23501841.482     1916640.18149   1686764.02345  23501842.143    23501850.541
       215.000         161.000
  21895507.913    -3194787.44349  -2475236.13446  21895508.615    21895516.763
       228.000         182.000
  24883203.769    -6905480.63349  -5343326.82745  24883203.347    24883214.533
       211.000         147.000
 03  3 21 23 17 30.0000000  0  9G23G18G17G16G 6G15G29G26G 2
  20577170.988    -5429242.56249  -3994388.32048  20577170.591    20577177.804
       244.000         215.000
  20732964.025   -10300210.36549  -8001653.23247  20732963.708    20732970.055
       241.000         210.000
  20785193.982    -2655920.19649  -2059307.86647  20785193.640    20785201.310
       242.000         212.000
  23227990.792    -4346125.24149  -3370961.15946  23227990.097    23227998.273
       219.000         164.000
  21543712.499     5684283.79649   4431909.43047  21543712.838    21543720.867
       235.000         195.000
  21300997.235    -8944540.57749  -6950582.78147  21300996.367    21301004.505
       238.000         200.000
  23512236.060     1971263.61249   1729327.67545  23512236.607    23512246.204
       217.000         161.000
  21900564.211    -3168216.46049  -2454531.49346  21900564.315    21900573.242
       228.000         183.000
  24878153.896    -6932018.38949  -5364005.58945  24878152.683    24878164.632
       207.000         147.000
 03  3 21 23 18  0.0000000  0  9G23G18G17G16G 6G15G29G26G 2
  20576836.710    -5430999.07849  -3995757.03448  20576836.652    20576843.510
       244.000         215.000
  20725521.497   -10339320.74249  -8032128.82247  20725521.390    20725527.464
       240.000         211.000
  20784887.032    -2657533.17049  -2060564.74147  20784886.682    20784894.624
       242.000         212.000
  23230194.455    -4334544.52049  -3361937.23846  23230193.901    23230202.597
       220.000         165.000
  21558109.336     5759939.46349   4490861.82747  21558109.621    21558117.766
       235.000         194.000
  21291878.377    -8992460.15149  -6987922.68647  21291878.209    21291885.948
       238.000         200.000
  23522719.542     2026354.19549   1772255.34545  23522719.780    23522729.384
       218.000         162.000
  21905743.263    -3141000.66749  -2433324.39246  21905743.649    21905752.260
       227.000         182.000
  24873185.492    -6958126.38949  -5384349.47445  24873184.673    24873195.417
       208.000         147.000
 03  3 21 23 18 30.0000000  0  9G23G18G17G16G 6G15G29G26G 2
  20576581.885    -5432338.82849  -3996800.98448  20576581.559    20576588.571
       246.000         215.000
  20718160.794   -10378001.32849  -8062269.50547  20718160.346    20718166.843
       242.000         211.000
  20784615.604    -2658959.66849  -2061676.31047  20784615.490    20784623.206
       244.000         212.000
  23232497.187    -4322444.05749  -3352508.32346  23232497.117    23232505.929
       221.000         165.000
  21572580.105     5835983.81349   4550117.09947  21572580.213    21572588.674
       236.000         194.000
  21282790.124    -9040219.47149  -7025137.71147  21282789.881    21282797.661
       240.000         201.000
  23533291.222     2081909.16049   1815544.86945  23533291.361    23533300.744
       219.000         162.000
  21911044.640    -3113141.75749  -2411616.15646  21911044.490    21911053.258
       230.000         181.000
  24868298.791    -6983805.62149  -5404359.25245  24868297.636    24868308.781
       207.000         146.000
 03  3 21 23 19  0.0000000  0  9G23G18G17G16G 6G15G29G26G 2
  20576405.949    -5433263.16549  -3997521.25148  20576405.551    20576412.783
       246.000         215.000
  20710881.793   -10416252.32849  -8092075.45947  20710881.415    20710887.730
       240.000         211.000
  20784379.771    -2660199.30749  -2062642.28347  20784379.464    20784387.153
       243.000         212.000
  23234898.387    -4309825.33749  -3342675.59446  23234898.125    23234906.802
       218.000         165.000
  21587124.491     5912414.84849   4609673.66947  21587124.105    21587133.046
       234.000         193.000
  21273732.405    -9087818.13249  -7062227.55847  21273732.012    21273739.933
       238.000         201.000
  23543950.922     2137926.43649   1859194.62645  23543950.452    23543959.439
       217.000         160.000
  21916468.209    -3084640.91449  -2389407.71446  21916468.425    21916476.892
       227.000         181.000
  24863493.729    -7009055.79449  -5424034.69145  24863493.462    24863504.896
       206.000         146.000
 03  3 21 23 19 30.0000000  0  9G23G18G17G16G 6G15G29G26G 2
  20576308.742    -5433773.97949  -3997919.29148  20576308.178    20576315.441
       247.000         215.000
  20703684.519   -10454074.45649  -8121547.22047  20703684.208    20703690.458
       242.000         211.000
  20784179.509    -2661251.67649  -2063462.32947  20784178.992    20784186.699
       243.000         211.000
  23237397.940    -4296690.21949  -3332440.47146  23237397.435    23237405.631
       220.000         164.000
  21601742.075     5989230.40249   4669529.86747  21601741.895    21601750.206
       236.000         193.000
  21264705.109    -9135256.59549  -7099192.57547  21264704.032    21264712.433
       239.000         200.000
  23554698.142     2194403.87449   1903202.95845  23554698.402    23554708.410
       217.000         159.000
  21922013.533    -3055499.77949  -2366700.34646  21922013.566    21922021.865
       228.000         181.000
  24858770.197    -7033877.41449  -5443376.17645  24858769.422    24858781.868
       207.000         147.000
 03  3 21 23 20  0.0000000  0  9G23G18G17G16G 6G15G29G26G 2
  20576290.171    -5433871.75049  -3997995.47748  20576290.011    20576296.877
       246.000         215.000
  20696568.847   -10491467.33849  -8150684.51047  20696568.784    20696575.147
       240.000         211.000
  20784014.968    -2662116.43649  -2064136.19047  20784014.676    20784022.274
       242.000         211.000
  23239995.617    -4283039.48049  -3321803.56646  23239995.526    23240003.835
       218.000         164.000
  21616432.720     6066429.56449   4729684.97647  21616433.105    21616440.915
       234.000         193.000
  21255708.527    -9182533.67749  -7136031.84347  21255707.890    21255715.988
       238.000         200.000
  23565532.804     2251340.21949   1947568.89245  23565533.081    23565542.411
       214.000         158.000
  21927680.609    -3025718.38849  -2343494.09646  21927680.992    21927689.381
       226.000         181.000
  24854128.497    -7058269.55549  -5462383.03345  24854128.125    24854139.504
       207.000         146.000
 03  3 21 23 20 30.0000000  0  9G23G18G17G16G 6G15G29G26G 2
  20576349.801    -5433558.25049  -3997751.18448  20576349.280    20576356.294
       245.000         215.000
  20689534.905   -10528431.00549  -8179487.33447  20689534.663    20689540.486
       241.000         211.000
  20783886.046    -2662794.03549  -2064664.20247  20783885.645    20783893.315
       241.000         211.000
  23242691.006    -4268874.80249  -3310766.16946  23242690.270    23242698.670
       220.000         164.000
  21631195.886     6144010.35549   4790137.47647  21631196.115    21631203.909
       233.000         192.000
  21246742.766    -9229649.40349  -7172745.36547  21246741.997    21246750.165
       238.000         201.000
  23576454.430     2308733.22749   1992290.65645  23576454.760    23576464.117
       216.000         157.000
  21933469.276    -2995298.41349  -2319790.24046  21933469.685    21933477.750
       228.000         182.000
  24849568.204    -7082232.49949  -5481055.45245  24849566.783    24849578.978
       205.000         144.000
 03  3 21 23 21  0.0000000  0  9G23G18G17G16G 6G15G29G26G 2
  20576487.262    -5432835.61549  -3997188.07748  20576486.705    20576493.899
       246.000         214.000
  20682582.416   -10564966.67149  -8207956.65047  20682582.116    20682588.166
       242.000         211.000
  20783792.753    -2663284.13549  -2065046.10647  20783792.260    20783800.046
       243.000         211.000
  23245483.941    -4254198.25549  -3299329.93246  23245484.006    23245491.805
       221.000         165.000
  21646031.122     6221970.37649   4850885.46647  21646031.434    21646039.465
       235.000         192.000
  21237807.573    -9276603.94449  -7209333.28847  21237806.712    21237814.970
       239.000         201.000
  23587462.443     2366580.13149   2037366.11145  23587462.959    23587472.062
       218.000         157.000
  21939379.445    -2964241.41949  -2295589.98346  21939379.733    21939388.739
       231.000         183.000
  24845089.605    -7105767.03649  -5499394.05045  24845089.293    24845101.029
       207.000         144.000
 03  3 21 23 21 30.0000000  0  9G23G18G17G16G 6G15G29G26G 2
  20576702.420    -5431705.00249  -3996307.08448  20576702.315    20576709.194
       245.000         214.000
  20675711.343   -10601074.21649  -8236092.38647  20675711.083    20675717.308
       241.000         211.000
  20783735.260    -2663586.37249  -2065281.63747  20783735.000    20783742.526
       242.000         210.000
  23248374.127    -4239011.23249  -3287495.92646  23248374.695    23248382.912
       220.000         165.000
  21660938.439     6300308.12349   4911927.77747  21660938.704    21660946.648
       233.000         192.000
  21228903.095    -9323397.18949  -7245795.54547  21228902.277    21228910.531
       238.000         201.000
  23598556.545     2424879.26549   2082793.93945  23598557.169    23598566.403
       217.000         157.000
  21945410.524    -2932548.46749  -2270894.20246  21945411.018    21945418.776
       228.000         182.000
  24840692.894    -7128872.95749  -5517398.64845  24840692.656    24840704.455
       208.000         147.000
 03  3 21 23 22  0.0000000  0  9G23G18G17G16G 6G15G29G26G 2
  20576995.219    -5430166.45249  -3995108.20848  20576994.793    20577001.708
       245.000         214.000
  20668921.912   -10636752.86649  -8263893.90347  20668921.503    20668927.651
       241.000         211.000
  20783713.851    -2663699.00249  -2065369.41647  20783713.564    20783720.981
       242.000         210.000
  23251361.388    -4223313.67449  -3275264.09646  23251361.108    23251370.002
       221.000         165.000
  21675917.474     6379023.15249   4973264.08647  21675917.624    21675925.718
       233.000         191.000
  21220029.599    -9370027.23949  -7282130.63147  21220029.289    21220036.777
       239.000         201.000
  23609736.558     2483630.11149   2128573.75845  23609736.969    23609745.514
       215.000         157.000
  21951562.549    -2900219.38849  -2245702.72846  21951563.239    21951571.283
       227.000         181.000
  24836377.919    -7151548.93549  -5535068.21645  24836377.384    24836387.933
       209.000         146.000
 03  3 21 23 22 30.0000000  0  9G23G18G17G16G 6G15G29G26G 2
  20577365.379    -5428221.00349  -3993592.27748  20577364.977    20577372.063
       244.000         214.000
  20662214.148   -10672002.21749  -8291360.91047  20662214.037    20662220.096
       241.000         211.000
  20783728.529    -2663621.87949  -2065309.34247  20783728.254    20783735.597
       242.000         211.000
  23254445.365    -4207106.89949  -3262635.46446  23254444.923    23254453.801
       219.000         165.000
  21690967.972     6458113.93149   5034893.18647  21690968.525    21690976.499
       233.000         191.000
  21211187.441    -9416493.48749  -7318338.07547  21211186.911    21211194.838
       239.000         201.000
  23621002.087     2542830.99449   2174704.24745  23621001.581    23621012.130
       214.000         157.000
  21957835.450    -2867254.92649  -2220016.17846  21957835.917    21957844.404
       228.000         180.000
  24832144.644    -7173794.52449  -5552402.42245  24832144.344    24832155.224
       210.000         146.000
 03  3 21 23 23  0.0000000  0  9G23G18G17G16G 6G15G29G26G 2
  20577812.639    -5425870.66049  -3991760.83248  20577812.387    20577819.326
       245.000         214.000
  20655587.992   -10706823.39849  -8318494.27047  20655587.904    20655593.695
       242.000         212.000
  20783779.358    -2663355.19849  -2065101.54647  20783779.069    20783786.535
       243.000         211.000
  23257625.873    -4190393.01849  -3249611.68546  23257626.260    23257633.714
       219.000         165.000
  21706089.568     6537577.89549   5096813.08047  21706089.847    21706098.088
       233.000         191.000
  21202376.318    -9462796.23949  -7354418.11547  21202375.681    21202383.528
       239.000         201.000
  23632352.645     2602478.96049   2221183.09745  23632353.432    23632362.206
       214.000         157.000
  21964228.930    -2833657.02949  -2193836.02946  21964229.141    21964237.513
       227.000         180.000
  24827993.501    -7195610.62349  -5569401.97945  24827993.178    24828003.728
       207.000         147.000
 03  3 21 23 23 30.0000000  0  9G23G18G17G16G 6G15G29G26G 2
  20578336.725    -5423116.59549  -3989614.80848  20578336.274    20578343.448
       245.000         214.000
  20649043.239   -10741216.33649  -8345293.94147  20649042.955    20649049.102
       241.000         212.000
  20783866.359    -2662898.26249  -2064745.50547  20783865.889    20783873.636
       242.000         211.000
  23260902.889    -4173173.28049  -3236193.74746  23260904.041    23260910.848
       219.000         164.000
  21721281.828     6617413.60849   5159022.64247  21721281.979    21721290.185
       233.000         191.000
  21193596.293    -9508934.99049  -7390370.37047  21193595.629    21193603.700
       238.000         201.000
  23643788.269     2662572.59149   2268009.23945  23643788.476    23643797.213
       214.000         156.000
  21970742.669    -2799426.74749  -2167163.12046  21970742.551    21970751.751
       228.000         181.000
  24823923.823    -7216996.99549  -5586066.65945  24823922.446    24823934.950
       207.000         146.000
 03  3 21 23 24  0.0000000  0  9G23G18G17G16G 6G15G29G26G 2
  20578937.313    -5419960.32249  -3987155.36948  20578936.818    20578943.964
       244.000         214.000
  20642579.861   -10775181.24749  -8371760.08547  20642579.729    20642585.580
       243.000         212.000
  20783989.514    -2662251.03649  -2064241.18947  20783989.074    20783996.888
       242.000         211.000
  23264275.599    -4155449.40049  -3222382.95446  23264275.987    23264284.143
       219.000         163.000
  21736544.466     6697619.12749   5221520.37647  21736544.593    21736552.961
       233.000         191.000
  21184847.561    -9554909.47349  -7426194.62447  21184847.146    21184854.870
       238.000         201.000
  23655308.233     2723109.60949   2315180.87545  23655308.631    23655316.658
       214.000         156.000
  21977376.572    -2764565.33249  -2139998.40046  21977377.078    21977385.277
       228.000         180.000
  24819935.938    -7237953.79749  -5602396.61745  24819936.286    24819946.256
       209.000         147.000
 03  3 21 23 24 30.0000000  0  9G23G18G17G16G 6G15G29G26G 2
  20579614.221    -5416403.09549  -3984383.50148  20579613.840    20579621.239
       245.000         214.000
  20636197.996   -10808718.36449  -8397892.88047  20636197.688    20636203.499
       243.000         212.000
  20784148.921    -2661413.22149  -2063588.36147  20784148.623    20784156.097
       242.000         211.000
  23267743.976    -4137222.87949  -3208180.50646  23267744.016    23267751.844
       218.000         163.000
  21751877.199     6778192.88649   5284305.03947  21751877.539    21751885.980
       233.000         190.000
  21176130.352    -9600719.14049  -7461890.44547  21176129.900    21176137.229
       239.000         201.000
  23666912.200     2784088.29849   2362696.67045  23666913.597    23666921.821
       214.000         157.000
  21984130.457    -2729074.05949  -2112342.88446  21984130.983    21984139.437
       228.000         181.000
  24816030.021    -7258480.91949  -5618391.79745  24816029.960    24816039.236
       209.000         148.000
 03  3 21 23 25  0.0000000  0 10G23G18G17G16G 6G15G 3G29G26G 2
  20580367.326    -5412445.76749  -3981299.86648  20580367.098    20580374.125
       245.000         214.000
  20629897.458   -10841827.50149  -8423692.18547  20629896.950    20629902.908
       242.000         212.000
  20784344.893    -2660383.62549  -2062786.08447  20784344.478    20784352.265
       242.000         211.000
  23271307.880    -4118494.72449  -3193587.16346  23271307.799    23271315.744
       217.000         163.000
  21767279.773     6859133.39149   5347375.48447  21767279.736    21767288.170
       232.000         190.000
  21167444.582    -9646363.19449  -7497457.20747  21167444.193    21167452.121
       239.000         201.000
  24579951.052    -4170959.20649  -3203480.94845  24579950.924    24579963.280
       204.000         136.000
  23678600.055     2845507.00049   2410555.32945  23678600.916    23678609.440
       215.000         158.000
  21991004.040    -2692953.49449  -2084197.01946  21991004.804    21991013.206
       229.000         182.000
  24812205.744    -7278578.01749  -5634051.87245  24812205.118    24812216.326
       209.000         149.000
 03  3 21 23 25 30.0000000  0 10G23G18G17G16G 6G15G 3G29G26G 2
  20581196.305    -5408089.64849  -3977905.49248  20581195.994    20581202.795
       245.000         214.000
  20623678.402   -10874508.68049  -8449158.02047  20623678.085    20623684.195
       242.000         212.000
  20784577.480    -2659161.39649  -2061833.71447  20784576.937    20784584.739
       243.000         210.000
  23274966.905    -4099266.35649  -3178604.03746  23274966.376    23274975.742
       217.000         163.000
  21782751.827     6940439.25349   5410730.61947  21782752.264    21782760.389
       232.000         190.000
  21158790.441    -9691840.71649  -7532894.22347  21158789.635    21158797.840
       238.000         201.000
  24560777.645    -4271716.30649  -3281992.90045  24560778.087    24560788.565
       203.000         137.000
  23690371.061     2907363.91349   2458755.46745  23690372.117    23690379.915
       214.000         157.000
  21997997.198    -2656204.72649  -2055561.67246  21997998.063    21998005.562
       228.000         181.000
  24808463.370    -7298244.89549  -5649376.68545  24808462.779    24808474.477
       209.000         150.000
 03  3 21 23 26  0.0000000  0 10G23G18G17G16G 6G15G 3G29G26G 2
  20582100.858    -5403336.30749  -3974201.58548  20582100.768    20582107.517
       245.000         214.000
  20617540.711   -10906762.47249  -8474290.81647  20617540.494    20617546.780
       243.000         212.000
  20784846.790    -2657746.23649  -2060730.99947  20784846.330    20784854.164
       242.000         211.000
  23278720.705    -4079539.48149  -3163232.48746  23278721.037    23278729.579
       215.000         163.000
  21798292.986     7022108.44649   5474368.87747  21798293.056    21798301.735
       232.000         190.000
  21150168.042    -9737151.47849  -7568201.28647  21150167.574    21150175.444
       238.000         201.000
  24541628.616    -4372345.86149  -3360405.46145  24541628.424    24541640.538
       203.000         137.000
  23702225.010     2969656.92949   2507295.39645  23702224.831    23702234.730
       215.000         158.000
  22005109.509    -2618829.39749  -2026438.08246  22005109.799    22005117.886
       228.000         180.000
  24804802.909    -7317481.77349  -5664366.45645  24804801.743    24804812.593
       208.000         149.000
 03  3 21 23 26 30.0000000  0 10G23G18G17G16G 6G15G 3G29G26G 2
  20583080.804    -5398186.81949  -3970188.99648  20583080.370    20583087.321
       245.000         214.000
  20611484.413   -10938588.69249  -8499090.44848  20611483.997    20611490.199
       243.000         213.000
  20785152.852    -2656137.99849  -2059477.83947  20785152.628    20785160.091
       243.000         211.000
  23282569.066    -4059315.31349  -3147473.40746  23282568.963    23282577.750
       217.000         164.000
  21813903.047     7104139.52249   5538289.11947  21813903.279    21813911.779
       233.000         190.000
  21141577.568    -9782294.73749  -7603377.83447  21141577.201    21141584.907
       239.000         202.000
  24522504.360    -4472845.12749  -3438716.52045  24522504.903    24522514.814
       204.000         137.000
  23714161.640     3032384.41649   2556173.87945  23714161.308    23714170.383
       215.000         158.000
  22012340.840    -2580828.43449  -1996826.97846  22012341.093    22012349.259
       227.000         179.000
  24801223.917    -7336288.38749  -5679020.93845  24801222.911    24801233.318
       208.000         148.000
 03  3 21 23 27  0.0000000  0 10G23G18G17G16G 6G15G 3G29G26G 2
  20584135.854    -5392642.35149  -3965868.63148  20584135.460    20584142.521
       245.000         214.000
  20605509.444   -10969987.36049  -8523556.92447  20605509.163    20605515.226
       242.000         212.000
  20785495.956    -2654335.18849  -2058073.06347  20785495.621    20785503.239
       242.000         211.000
  23286511.993    -4038595.14249  -3131327.83646  23286511.444    23286520.676
       215.000         163.000
  21829581.677     7186530.94949   5602490.14747  21829581.795    21829590.077
       233.000         189.000
  21133019.104    -9827269.86749  -7638423.37247  21133018.396    21133026.531
       239.000         202.000
  24503405.318    -4573211.68549  -3516924.15945  24503404.976    24503415.103
       203.000         138.000
  23726180.498     3095544.50149   2605389.44545  23726180.197    23726189.965
       213.000         159.000
  22019690.906    -2542203.08449  -1966729.33046  22019691.285    22019699.497
       228.000         179.000
  24797726.899    -7354664.64949  -5693340.07545  24797726.641    24797736.368
       207.000         148.000
 03  3 21 23 27 30.0000000  0 10G23G18G17G16G 6G15G 3G29G26G 2
  20585265.695    -5386704.80249  -3961241.96948  20585265.347    20585272.331
       245.000         214.000
  20599615.624   -11000959.38649  -8547690.94947  20599615.333    20599621.364
       242.000         212.000
  20785875.858    -2652338.75449  -2056517.40547  20785875.458    20785883.239
       242.000         210.000
  23290548.902    -4017381.37749  -3114797.65846  23290548.359    23290556.990
       216.000         163.000
  21845328.433     7269280.38849   5666970.14447  21845328.334    21845336.645
       231.000         189.000
  21124492.547    -9872076.90549  -7673337.92247  21124492.118    21124500.140
       239.000         202.000
  24484331.858    -4673443.57349  -3595026.84845  24484331.280    24484340.536
       207.000         138.000
  23738281.308     3159134.73949   2654940.18845  23738281.650    23738291.759
       215.000         160.000
  22027159.513    -2502954.95749  -1936146.40946  22027160.284    22027168.615
       228.000         179.000
  24794311.748    -7372611.12549  -5707324.32245  24794311.675    24794322.434
       209.000         149.000
 03  3 21 23 28  0.0000000  0 10G23G18G17G16G 6G15G 3G29G26G 2
  20586470.162    -5380375.49449  -3956310.03948  20586469.704    20586476.802
       245.000         214.000
  20593802.941   -11031504.90449  -8571492.63147  20593802.717    20593808.750
       242.000         212.000
  20786292.779    -2650147.67549  -2054810.08147  20786292.349    20786300.156
       242.000         211.000
  23294679.354    -3995675.24849  -3097883.78946  23294678.719    23294688.314
       217.000         164.000
  21861142.927     7352386.02149   5731727.70547  21861142.866    21861151.573
       232.000         188.000
  21115998.209    -9916715.25549  -7708121.02747  21115997.679    21116005.542
       239.000         202.000
  24465284.486    -4773538.43249  -3673022.76945  24465284.926    24465294.032
       207.000         138.000
  23750463.627     3223153.11449   2704824.55545  23750464.106    23750473.715
       214.000         160.000
  22034746.529    -2463085.57049  -1905079.37846  22034746.952    22034755.732
       229.000         179.000
  24790978.257    -7390127.96949  -5720973.80545  24790977.234    24790988.670
       207.000         149.000
 03  3 21 23 28 30.0000000  0 10G23G18G17G16G 6G15G 3G29G26G 2
  20587748.922    -5373655.40349  -3951073.60448  20587748.558    20587755.847
       245.000         214.000
  20588071.537   -11061623.81749  -8594961.89547  20588071.165    20588077.097
       243.000         212.000
  20786746.948    -2647761.30349  -2052950.57847  20786746.445    20786754.153
       242.000         211.000
  23298903.282    -3973478.11249  -3080587.33046  23298902.405    23298912.276
       215.000         163.000
  21877025.075     7435846.60449   5796761.84247  21877025.390    21877033.842
       232.000         188.000
  21107536.131    -9961183.83549  -7742771.85147  21107535.257    21107543.526
       238.000         202.000
  24446263.630    -4873493.81049  -3750910.00245  24446262.345    24446273.233
       206.000         138.000
  23762727.215     3287598.13449   2755041.35745  23762727.146    23762736.652
       215.000         161.000
  22042451.581    -2422595.70549  -1873528.86046  22042452.128    22042460.075
       227.000         179.000
  24787726.639    -7407214.83049  -5734288.20645  24787726.074    24787737.185
       210.000         149.000
 03  3 21 23 29  0.0000000  0 10G23G18G17G16G 6G15G 3G29G26G 2
  20589101.818    -5366545.89049  -3945533.72748  20589101.582    20589108.541
       245.000         215.000
  20582421.228   -11091316.30149  -8618098.87947  20582420.887    20582426.914
       242.000         212.000
  20787238.339    -2645179.17049  -2050938.53847  20787237.985    20787245.680
       242.000         211.000
  23303220.367    -3950791.65649  -3062909.59946  23303220.136    23303229.092
       218.000         164.000
  21892974.313     7519660.18549   5862071.04546  21892974.739    21892983.041
       232.000         187.000
  21099106.263   -10005482.31849  -7777290.13947  21099105.543    21099113.697
       238.000         202.000
  24427269.652    -4973307.31449  -3828686.67545  24427269.024    24427278.510
       207.000         138.000
  23775071.661     3352467.61549   2805588.90945  23775071.820    23775081.894
       213.000         162.000
  22050274.269    -2381486.98549  -1841496.12446  22050274.073    22050282.885
       228.000         179.000
  24784557.014    -7423871.91449  -5747267.73845  24784556.638    24784566.571
       209.000         149.000
 03  3 21 23 29 30.0000000  0 10G23G18G17G16G 6G15G 3G29G26G 2
  20590528.489    -5359048.67349  -3939691.73648  20590528.144    20590535.209
       245.000         215.000
  20576851.904   -11120583.03849  -8640904.11047  20576851.582    20576857.661
       242.000         212.000
  20787767.000    -2642400.88849  -2048773.65147  20787766.549    20787774.330
       242.000         211.000
  23307630.337    -3927617.94049  -3044852.17746  23307630.413    23307639.605
       219.000         164.000
  21908990.353     7603824.76549   5927653.76246  21908990.671    21908998.880
       232.000         187.000
  21090708.956   -10049610.22949  -7811675.50147  21090708.296    21090716.251
       239.000         202.000
  24408303.108    -5072976.84349  -3906351.18145  24408303.103    24408313.086
       206.000         139.000
  23787496.254     3417759.24849   2856465.41345  23787496.089    23787506.502
       213.000         160.000
  22058214.566    -2339760.93849  -1808982.34946  22058215.125    22058223.746
       229.000         180.000
  24781469.091    -7440099.61249  -5759912.68845  24781469.046    24781478.953
       210.000         148.000
 03  3 21 23 30  0.0000000  0 10G23G18G17G16G 6G15G 3G29G26G 2
  20592028.788    -5351164.68049  -3933548.36648  20592028.575    20592035.427
       245.000         215.000
  20571363.623   -11149424.13249  -8663377.67347  20571363.132    20571369.370
       242.000         212.000
  20788333.237    -2639425.39549  -2046455.09847  20788332.707    20788340.642
       242.000         211.000
  23312132.760    -3903958.00049  -3026415.89446  23312132.786    23312141.088
       217.000         163.000
  21925073.013     7688338.90949   5993508.85246  21925073.727    21925081.237
       232.000         187.000
  21082344.314   -10093566.79349  -7845927.35247  21082344.027    21082351.581
       239.000         202.000
  24389364.401    -5172499.93249  -3983901.55745  24389364.374    24389373.873
       209.000         140.000
  23800000.755     3483471.60949   2907669.74845  23800000.163    23800010.874
       211.000         159.000
  22066272.080    -2297418.72149  -1775988.44346  22066272.318    22066280.728
       229.000         181.000
  24778462.717    -7455897.66249  -5772222.82545  24778461.048    24778472.936
       207.000         147.000
 03  3 21 23 30 30.0000000  0 10G23G18G17G16G 6G15G 3G29G26G 2
  20593602.399    -5342895.47949  -3927104.83448  20593601.946    20593609.267
       245.000         215.000
  20565956.245   -11177839.74849  -8685519.69447  20565955.925    20565962.216
       242.000         212.000
  20788936.971    -2636252.68749  -2043982.86347  20788936.848    20788944.022
       243.000         211.000
  23316727.260    -3879813.97049  -3007602.38546  23316726.416    23316735.793
       218.000         163.000
  21941221.762     7773200.57749   6059634.74446  21941221.718    21941230.779
       231.000         186.000
  21074012.388   -10137351.51149  -7880045.30047  21074012.225    21074019.493
       240.000         203.000
  24370454.062    -5271874.40349  -4061336.12845  24370453.706    24370463.100
       208.000         142.000
  23812584.931     3549602.37449   2959200.12045  23812585.630    23812595.094
       212.000         158.000
  22074446.474    -2254461.93249  -1742515.65246  22074446.369    22074455.220
       228.000         180.000
  24775537.870    -7471266.33349  -5784198.38945  24775537.712    24775548.084
       209.000         148.000
 03  3 21 23 31  0.0000000  0 10G23G18G17G16G 6G15G 3G29G26G 2
  20595249.008    -5334242.07549  -3920361.92448  20595248.646    20595255.609
       245.000         214.000
  20560629.912   -11205829.87549  -8707330.16547  20560629.842    20560635.675
       243.000         212.000
  20789578.538    -2632881.66049  -2041356.09847  20789578.374    20789585.508
       243.000         211.000
  23321413.791    -3855186.81049  -2988412.40946  23321413.851    23321422.476
       219.000         163.000
  21957436.250     7858408.51749   6126030.45846  21957436.263    21957444.622
       230.000         186.000
  21065713.374   -10180963.38749  -7914028.55947  21065713.040    21065720.337
       239.000         203.000
  24351572.571    -5371097.32749  -4138652.60945  24351571.818    24351582.177
       209.000         143.000
  23825248.643     3616149.95049   3011055.28545  23825249.163    23825259.060
       214.000         158.000
  22082737.704    -2210891.66749  -1708564.82646  22082737.819    22082746.780
       229.000         180.000
  24772695.183    -7486205.30149  -5795839.13945  24772694.690    24772705.393
       210.000         149.000
 03  3 21 23 31 30.0000000  0 10G23G18G17G16G 6G15G 3G29G26G 2
  20596968.441    -5325206.64149  -3913321.32448  20596967.956    20596975.188
       245.000         214.000
  20555384.386   -11233395.67249  -8728809.98848  20555384.164    20555390.115
       243.000         213.000
  20790257.733    -2629312.44249  -2038574.89647  20790257.254    20790265.087
       243.000         211.000
  23326191.670    -3830079.11249  -2968847.97946  23326191.823    23326199.528
       218.000         164.000
  21973716.022     7943960.02849   6192693.90546  21973716.433    21973724.637
       231.000         185.000
  21057447.163   -10224402.73349  -7947877.38047  21057446.893    21057454.416
       240.000         203.000
  24332720.189    -5470167.20849  -4215849.83745  24332719.729    24332729.645
       208.000         143.000
  23837991.097     3683111.47149   3063233.01445  23837990.942    23838001.448
       213.000         157.000
  22091145.210    -2166710.13449  -1674137.68346  22091145.258    22091154.188
       229.000         180.000
  24769933.885    -7500715.60349  -5807145.86545  24769933.632    24769944.146
       209.000         150.000
 03  3 21 23 32  0.0000000  0 10G23G18G17G16G 6G15G 3G29G26G 2
  20598760.405    -5315789.82349  -3905983.54748  20598760.085    20598767.044
       245.000         214.000
  20550219.663   -11260536.50049  -8749958.67348  20550219.369    20550225.199
       242.000         213.000
  20790974.907    -2625543.65949  -2035638.19347  20790974.688    20790982.418
       242.000         211.000
  23331060.919    -3804491.83649  -2948909.88546  23331060.753    23331069.373
       217.000         164.000
  21990061.287     8029854.17549   6259624.32446  21990061.477    21990069.892
       231.000         185.000
  21049214.035   -10267667.85349  -7981590.43947  21049213.453    21049220.980
       240.000         203.000
  24313897.679    -5569080.50249  -4292925.04845  24313898.039    24313906.756
       208.000         144.000
  23850812.136     3750485.80649   3115732.41145  23850812.406    23850821.975
       212.000         156.000
  22099668.872    -2121918.00949  -1639234.76246  22099669.617    22099677.588
       229.000         180.000
  24767254.342    -7514796.72449  -5818118.17445  24767253.817    24767264.763
       209.000         150.000
 03  3 21 23 32 30.0000000  0 10G23G18G17G16G 6G15G 3G29G26G 2
  20600624.536    -5305994.00949  -3898350.45048  20600624.195    20600631.201
       245.000         214.000
  20545135.458   -11287253.90049  -8770777.40748  20545135.189    20545141.298
       243.000         213.000
  20791730.098    -2621575.34449  -2032546.00847  20791729.715    20791737.352
       242.000         211.000
  23336020.664    -3778427.59849  -2928600.11546  23336019.710    23336028.723
       217.000         163.000
  22006471.254     8116088.26449   6326819.62546  22006471.697    22006480.921
       230.000         185.000
  21041014.001   -10310759.16549  -8015168.06847  21041013.469    21041021.231
       240.000         203.000
  24295105.205    -5667836.01849  -4369877.32045  24295104.919    24295114.745
       211.000         146.000
  23863711.072     3818269.91649   3168551.12345  23863710.857    23863721.876
       212.000         156.000
  22108308.328    -2076517.86449  -1603858.05646  22108308.437    22108317.426
       228.000         181.000
  24764656.262    -7528449.77949  -5828756.92245  24764656.385    24764666.415
       212.000         149.000
 03  3 21 23 33  0.0000000  0 10G23G18G17G16G 6G15G 3G29G26G 2
  20602560.432    -5295820.63849  -3890423.15148  20602560.194    20602567.063
       245.000         214.000
  20540131.793   -11313548.28049  -8791266.51448  20540131.323    20540137.648
       242.000         213.000
  20792523.160    -2617407.72149  -2029298.51547  20792522.426    20792530.504
       241.000         210.000
  23341070.731    -3751888.23249  -2907920.11845  23341070.673    23341078.957
       218.000         162.000
  22022945.410     8202660.33749   6394278.29146  22022945.622    22022954.908
       229.000         184.000
  21032847.146   -10353676.25849  -8048609.93947  21032846.793    21032854.492
       240.000         204.000
  24276343.143    -5766431.50549  -4446704.88745  24276343.007    24276352.854
       211.000         147.000
  23876687.625     3886461.49749   3221687.32945  23876687.733    23876696.898
       212.000         156.000
  22117063.157    -2030511.43649  -1568008.91546  22117064.265    22117072.370
       230.000         181.000
  24762139.623    -7541675.24449  -5839062.46345  24762139.837    24762150.117
       210.000         149.000
 03  3 21 23 33 30.0000000  0 10G23G18G17G16G 6G15G 3G29G26G 2
  20604568.171    -5285269.93249  -3882201.81748  20604567.725    20604574.807
       244.000         214.000
  20535208.775   -11339418.66249  -8811425.23248  20535208.401    20535214.424
       243.000         213.000
  20793354.537    -2613038.35049  -2025893.81247  20793353.991    20793361.933
       242.000         210.000
  23346211.434    -3724874.63249  -2886870.58245  23346211.274    23346219.875
       218.000         162.000
  22039483.682     8289569.55649   6461999.68446  22039483.853    22039493.083
       231.000         184.000
  21024713.788   -10396417.40349  -8081914.70947  21024713.364    21024720.923
       240.000         204.000
  24257612.096    -5864863.22749  -4523404.83845  24257611.225    24257621.529
       209.000         148.000
  23889741.416     3955059.58949   3275140.30745  23889741.776    23889750.242
       213.000         154.000
  22125933.232    -1983899.08749  -1531687.62446  22125933.415    22125942.411
       229.000         180.000
  24759704.545    -7554471.93149  -5849033.90545  24759703.634    24759714.608
       205.000         148.000
 03  3 21 23 34  0.0000000  0 10G23G18G17G16G 6G15G 3G29G26G 2
  20606647.223    -5274344.17949  -3873688.24548  20606646.725    20606653.984
       244.000         214.000
  20530366.314   -11364866.13449  -8831254.41348  20530366.003    20530371.845
       242.000         213.000
  20794224.264    -2608467.81449  -2022332.36247  20794223.778    20794231.479
       241.000         211.000
  23351441.810    -3697388.99749  -2865453.23646  23351441.334    23351449.962
       219.000         163.000
  22056085.816     8376813.47449   6529981.86646  22056086.509    22056094.449
       231.000         184.000
  21016613.897   -10438982.43349  -8115082.24447  21016613.391    21016621.337
       240.000         204.000
  24238912.383    -5963129.74349  -4599976.05245  24238911.461    24238922.066
       209.000         148.000
  23902872.107     4024061.74249   3328908.15445  23902872.656    23902882.233
       213.000         154.000
  22134918.134    -1936683.04149  -1494895.93846  22134918.735    22134927.609
       229.000         179.000
  24757350.671    -7566840.78349  -5858671.96145  24757350.803    24757361.375
       208.000         147.000
 03  3 21 23 34 30.0000000  0 10G23G18G17G16G 6G15G 3G29G26G 2
  20608797.410    -5263044.81649  -3864883.54948  20608797.107    20608804.278
       245.000         214.000
  20525604.110   -11389891.36849  -8850754.57948  20525603.560    20525609.970
       243.000         213.000
  20795132.443    -2603695.28649  -2018613.51747  20795132.090    20795139.587
       242.000         210.000
  23356761.789    -3669433.24249  -2843669.56646  23356762.230    23356770.053
       218.000         163.000
  22072751.300     8464390.21949   6598223.39046  22072751.792    22072759.916
       231.000         184.000
  21008547.678   -10481370.59149  -8148111.96547  21008547.026    21008554.843
       240.000         204.000
  24220244.532    -6061228.66149  -4676416.67845  24220244.254    24220254.228
       210.000         148.000
  23916079.180     4093465.56049   3382988.97545  23916079.293    23916089.391
       212.000         154.000
  22144017.676    -1888865.05749  -1457635.19846  22144018.065    22144026.771
       229.000         179.000
  24755078.509    -7578782.05449  -5867976.87245  24755078.676    24755089.048
       209.000         147.000
 03  3 21 23 35  0.0000000  0 10G23G18G17G16G 6G15G 3G29G26G 2
  20611018.450    -5251373.39549  -3855788.93648  20611018.149    20611025.169
       245.000         214.000
  20520922.236   -11414494.53849  -8869925.87048  20520922.061    20520927.870
       242.000         213.000
  20796079.180    -2598720.44549  -2014737.02647  20796078.804    20796085.995
       243.000         210.000
  23362170.698    -3641009.41049  -2821521.15646  23362169.227    23362179.475
       217.000         163.000
  22089479.549     8552297.64949   6666722.60246  22089479.372    22089487.980
       230.000         183.000
  21000515.166   -10523581.45949  -8181003.53347  21000514.476    21000522.342
       240.000         204.000
  24201609.039    -6159157.57149  -4752724.82045  24201608.795    24201618.454
       209.000         149.000
  23929362.383     4163268.83249   3437381.06045  23929363.187    23929372.979
       212.000         154.000
  22153231.355    -1840446.98449  -1419906.85246  22153232.216    22153239.911
       228.000         179.000
  24752887.481    -7590296.35349  -5876949.08845  24752886.983    24752897.248
       209.000         149.000
 03  3 21 23 35 30.0000000  0 10G23G18G17G16G 6G15G 3G29G26G 2
  20613310.206    -5239330.15349  -3846404.58748  20613309.763    20613316.661
       244.000         214.000
  20516320.848   -11438675.12149  -8888767.86848  20516320.457    20516326.198
       242.000         213.000
  20797064.745    -2593541.43649  -2010701.44447  20797064.462    20797071.972
       244.000         210.000
  23367668.409    -3612118.10749  -2799008.48445  23367668.710    23367676.543
       217.000         162.000
  22106270.452     8640535.03549   6735478.91946  22106270.777    22106279.233
       229.000         182.000
  20992516.796   -10565613.10949  -8213755.44847  20992516.403    20992523.995
       240.000         204.000
  24183006.634    -6256912.94049  -4828897.74345  24183006.223    24183017.157
       210.000         149.000
  23942721.476     4233470.62649   3492083.68045  23942721.789    23942732.127
       212.000         153.000
  22162559.183    -1791429.33649  -1381711.31346  22162559.210    22162567.545
       228.000         178.000
  24750777.745    -7601382.86349  -5885587.92845  24750776.864    24750789.321
       208.000         150.000
 03  3 21 23 36  0.0000000  0 10G23G18G17G16G 6G15G 3G29G26G 2
  20615672.167    -5226918.06449  -3836732.82648  20615671.887    20615678.687
       244.000         213.000
  20511799.390   -11462435.24949  -8907282.23648  20511799.197    20511805.132
       240.000         213.000
  20798088.959    -2588159.40649  -2006507.65647  20798088.613    20798095.995
       244.000         210.000
  23373254.521    -3582762.76749  -2776134.22345  23373254.233    23373263.133
       216.000         161.000
  22123123.615     8729099.04449   6804489.75346  22123124.060    22123132.279
       230.000         181.000
  20984552.385   -10607466.52049  -8246368.47447  20984551.907    20984559.857
       239.000         204.000
  24164437.524    -6354493.77649  -4904934.65945  24164437.438    24164448.169
       211.000         150.000
  23956155.638     4304067.22449   3547093.93645  23956155.788    23956166.174
       213.000         153.000
  22172000.461    -1741815.13349  -1343050.93646  22172001.203    22172009.633
       228.000         177.000
  24748749.062    -7612043.39249  -5893894.81945  24748748.918    24748759.899
       209.000         150.000
 03  3 21 23 36 30.0000000  0 10G23G18G17G16G 6G15G 3G29G26G 2
  20618104.107    -5214137.75349  -3826774.14548  20618103.594    20618110.862
       244.000         213.000
  20507358.152   -11485774.26149  -8925468.46348  20507357.922    20507363.767
       240.000         213.000
  20799152.123    -2582572.55249  -2002154.26747  20799151.287    20799159.303
       243.000         210.000
  23378928.821    -3552944.40849  -2752899.17245  23378928.854    23378937.173
       216.000         162.000
  22140038.863     8817988.67549   6873754.30446  22140039.310    22140047.770
       230.000         181.000
  20976622.129   -10649140.04949  -8278841.33547  20976621.827    20976629.386
       241.000         205.000
  24145902.377    -6451896.72849  -4980832.98045  24145901.960    24145912.604
       211.000         150.000
  23969664.734     4375057.60949   3602411.03245  23969664.916    23969675.628
       213.000         154.000
  22181555.164    -1691605.59649  -1303926.66546  22181555.469    22181563.255
       229.000         177.000
  24746801.526    -7622277.59549  -5901869.53845  24746800.477    24746810.791
       206.000         148.000
 03  3 21 23 37  0.0000000  0 10G23G18G17G16G 6G15G 3G29G26G 2
  20620605.662    -5200991.90749  -3816530.62648  20620605.452    20620612.407
       244.000         213.000
  20502996.707   -11508693.67749  -8943327.73348  20502996.391    20503002.494
       241.000         213.000
  20800254.064    -2576781.39049  -1997641.67947  20800253.324    20800261.327
       242.000         209.000
  23384690.659    -3522666.17449  -2729305.78845  23384690.236    23384699.058
       216.000         162.000
  22157015.458     8907200.60049   6943269.99246  22157016.137    22157024.145
       230.000         181.000
  20968726.110   -10690634.41449  -8311174.58047  20968725.354    20968733.234
       240.000         205.000
  24127401.222    -6549120.62849  -5056591.76245  24127400.658    24127411.106
       210.000         150.000
  23983248.114     4446438.28349   3658032.26045  23983248.483    23983258.518
       213.000         155.000
  22191222.502    -1640803.48349  -1264340.62346  22191223.206    22191230.659
       229.000         177.000
  24744934.772    -7632086.88649  -5909513.16045  24744934.059    24744945.316
       205.000         147.000
 03  3 21 23 37 30.0000000  0 10G23G18G17G16G 6G15G 3G29G26G 2
  20623176.783    -5187480.82549  -3806002.50448  20623176.412    20623183.516
       244.000         213.000
  20498715.282   -11531192.86049  -8960859.54648  20498714.935    20498720.909
       241.000         213.000
  20801395.174    -2570784.62949  -1992968.88747  20801394.664    20801402.689
       243.000         209.000
  23390539.908    -3491928.72449  -2705354.55345  23390540.176    23390547.751
       216.000         162.000
  22174053.295     8996734.21149   7013036.34146  22174053.372    22174062.407
       231.000         181.000
  20960864.397   -10731947.58849  -8343366.64847  20960863.686    20960871.274
       241.000         204.000
  24108934.799    -6646161.88149  -5132208.22645  24108935.092    24108944.629
       210.000         149.000
  23996905.482     4518208.19049   3713956.77145  23996905.768    23996915.329
       213.000         155.000
  22201002.487    -1589409.30349  -1224293.24646  22201002.886    22201011.042
       229.000         177.000
  24743149.377    -7641470.52149  -5916825.09845  24743150.204    24743160.458
       210.000         148.000
 03  3 21 23 38  0.0000000  0 10G23G18G17G16G 6G15G 3G29G26G 2
  20625816.939    -5173606.56849  -3795191.39648  20625816.564    20625823.770
       244.000         213.000
  20494513.556   -11553273.00849  -8978064.84248  20494513.104    20494519.040
       241.000         213.000
  20802575.503    -2564582.05149  -1988135.71947  20802574.977    20802582.859
       242.000         209.000
  23396475.974    -3460734.50449  -2681047.40845  23396476.217    23396483.880
       216.000         162.000
  22191151.798     9086586.86749   7083051.30146  22191152.155    22191160.704
       229.000         181.000
  20953037.240   -10773079.39949  -8375417.39147  20953036.854    20953044.073
       240.000         204.000
  24090503.718    -6743018.50849  -5207680.84345  24090504.571    24090513.381
       213.000         149.000
  24010636.503     4590364.64449   3770182.49645  24010637.192    24010646.982
       213.000         154.000
  22210894.720    -1537425.66049  -1183786.54946  22210894.837    22210903.191
       228.000         177.000
  24741444.711    -7650429.48749  -5923806.11945  24741444.235    24741455.059
       209.000         150.000
 03  3 21 23 38 30.0000000  0 10G23G18G17G16G 6G15G 3G29G26G 2
  20628525.975    -5159370.47449  -3784098.33548  20628525.609    20628532.712
       244.000         213.000
  20490391.509   -11574934.39249  -8994943.83448  20490391.317    20490397.182
       240.000         213.000
  20803795.149    -2558172.46749  -1983141.24647  20803794.563    20803802.446
       242.000         209.000
  23402498.493    -3429085.36449  -2656385.77245  23402497.908    23402507.621
       217.000         162.000
  22208310.690     9176756.99849   7153313.63746  22208310.896    22208319.788
       230.000         181.000
  20945244.823   -10814028.95449  -8407326.11447  20945244.109    20945252.026
       241.000         205.000
  24072108.293    -6839687.88449  -5283007.53745  24072108.736    24072117.569
       213.000         150.000
  24024440.728     4662905.60549   3826707.84445  24024441.285    24024451.067
       212.000         155.000
  22220898.847    -1484854.05549  -1142821.68546  22220899.062    22220907.376
       227.000         176.000
  24739820.548    -7658964.00849  -5930456.38645  24739819.479    24739830.514
       209.000         149.000
 03  3 21 23 39  0.0000000  0 10G23G18G17G16G 6G15G 3G29G26G 2
  20631303.640    -5144773.94749  -3772724.41448  20631303.336    20631310.376
       244.000         213.000
  20486349.121   -11596177.49249  -9011496.88348  20486349.036    20486354.643
       241.000         213.000
  20805054.305    -2551555.59049  -1977985.24347  20805053.871    20805061.531
       242.000         209.000
  23408607.337    -3396983.25449  -2631371.19245  23408607.228    23408616.042
       217.000         162.000
  22225529.621     9267242.57849   7223821.78146  22225530.046    22225538.644
       228.000         180.000
  20937487.131   -10854795.75249  -8439092.42647  20937486.500    20937494.259
       240.000         205.000
  24053748.869    -6936167.67449  -5358186.50345  24053748.277    24053757.860
       213.000         150.000
  24038317.706     4735828.89449   3883531.09545  24038317.809    24038328.631
       210.000         154.000
  22231014.368    -1431696.31649  -1101400.11746  22231014.599    22231022.843
       227.000         176.000
  24738277.113    -7667074.45749  -5936776.20945  24738276.927    24738287.743
       208.000         149.000
 03  3 21 23 39 30.0000000  0 10G23G18G17G16G 6G15G 3G29G26G 2
  20634149.662    -5129818.09849  -3761070.50448  20634149.206    20634156.207
       244.000         213.000
  20482386.240   -11617002.67649  -9027724.28248  20482385.749    20482391.824
       240.000         213.000
  20806353.174    -2544730.16349  -1972666.73947  20806352.962    20806360.681
       243.000         209.000
  23414802.158    -3364429.70949  -2606004.82345  23414802.050    23414811.630
       215.000         162.000
  22242808.305     9358042.19749   7294574.62146  22242808.434    22242817.500
       229.000         180.000
  20929764.455   -10895378.47049  -8470715.30347  20929763.816    20929771.833
       241.000         205.000
  24035425.933    -7032454.99549  -5433215.47645  24035425.561    24035435.474
       211.000         149.000
  24052267.081     4809132.81549   3940650.97145  24052267.392    24052277.465
       211.000         153.000
  22241241.217    -1377953.87049  -1059522.92346  22241241.389    22241250.252
       226.000         176.000
  24736814.365    -7674760.81149  -5942765.57745  24736813.670    24736825.220
       208.000         150.000
 03  3 21 23 40  0.0000000  0 10G23G18G17G16G 6G15G 3G29G26G 2
  20637063.491    -5114505.69949  -3749138.76248  20637063.188    20637070.271
       244.000         213.000
  20478502.474   -11637411.48349  -9043627.23348  20478502.088    20478508.274
       240.000         213.000
  20807691.524    -2537697.06549  -1967186.41847  20807690.995    20807698.739
       243.000         209.000
  23421082.146    -3331428.21149  -2580289.41245  23421082.042    23421090.249
       216.000         161.000
  22260146.111     9449152.44549   7365569.50246  22260147.111    22260155.656
       228.000         179.000
  20922076.707   -10935777.64749  -8502195.16047  20922076.418    20922084.157
       241.000         205.000
  24017139.835    -7128548.68249  -5508093.58245  24017139.121    24017149.521
       211.000         149.000
  24066288.218     4882813.76949   3998064.65345  24066288.655    24066298.848
       212.000         152.000
  22251578.732    -1323630.03549  -1017192.71046  22251579.372    22251587.340
       227.000         176.000
  24735432.011    -7682024.85649  -5948425.88945  24735431.657    24735441.820
       209.000         149.000
 03  3 21 23 40 30.0000000  0 10G23G18G17G16G 6G15G 3G29G26G 2
  20640045.125    -5098837.07449  -3736929.44248  20640044.864    20640052.059
       244.000         213.000
  20474698.168   -11657403.07549  -9059205.07748  20474698.022    20474703.998
       241.000         213.000
  20809069.777    -2530454.19249  -1961542.62647  20809069.321    20809077.275
       243.000         209.000
  23427447.267    -3297979.36249  -2554225.40345  23427447.266    23427455.992
       215.000         160.000
  22277542.911     9540572.63649   7436805.91046  22277543.468    22277552.208
       227.000         179.000
  20914424.274   -10975991.46949  -8533530.58547  20914423.616    20914431.551
       240.000         206.000
  23998891.226    -7224445.10149  -5582817.96745  23998890.724    23998900.779
       211.000         149.000
  24080380.926     4956870.86849   4055771.42245  24080380.130    24080391.372
       213.000         151.000
  22262026.695    -1268725.47749   -974409.97946  22262026.720    22262035.565
       226.000         176.000
  24734130.078    -7688865.83149  -5953756.53345  24734129.958    24734140.616
       209.000         148.000
 03  3 21 23 41  0.0000000  0 10G23G18G17G16G 6G15G 3G29G26G 2
  20643094.244    -5082813.88549  -3724443.84148  20643094.053    20643101.262
       244.000         214.000
  20470973.170   -11676978.25949  -9074458.44948  20470972.950    20470978.676
       240.000         213.000
  20810488.105    -2523000.75549  -1955734.76347  20810487.759    20810495.533
       243.000         209.000
  23433896.949    -3264085.42849  -2527814.57245  23433897.151    23433906.117
       215.000         160.000
  22294998.207     9632300.57949   7508282.11646  22294998.614    22295007.700
       228.000         179.000
  20906807.221   -11016019.30349  -8564721.07947  20906807.029    20906814.511
       241.000         206.000
  23980680.612    -7320141.80549  -5657386.73145  23980680.940    23980689.762
       212.000         150.000
  24094544.673     5031301.84049   4113769.52145  24094544.544    24094554.852
       211.000         150.000
  22272584.809    -1213242.08549   -931176.20546  22272584.960    22272592.947
       227.000         176.000
  24732908.840    -7695284.30849  -5958757.95245  24732909.503    24732918.881
       206.000         148.000
 03  3 21 23 41 30.0000000  0 10G23G18G17G16G 6G15G 3G29G26G 2
  20646210.377    -5066438.45549  -3711683.76348  20646209.946    20646217.147
       244.000         213.000
  20467327.088   -11696138.44849  -9089388.44748  20467326.755    20467332.906
       240.000         213.000
  20811946.411    -2515337.32549  -1949763.26247  20811945.950    20811953.749
       243.000         209.000
  23440430.895    -3229749.36949  -2501059.24145  23440430.707    23440439.561
       216.000         159.000
  22312511.606     9724333.60749   7579996.05446  22312511.800    22312520.881
       227.000         179.000
  20899225.616   -11055861.09249  -8595766.60747  20899225.098    20899232.938
       241.000         206.000
  23962508.452    -7415636.92149  -5731798.41445  23962508.211    23962517.328
       214.000         150.000
  24108779.006     5106103.64749   4172056.56545  24108779.649    24108789.892
       211.000         150.000
  22283252.489    -1157182.86649   -887493.73146  22283253.255    22283260.441
       227.000         176.000
  24731767.490    -7701281.87949  -5963431.39145  24731766.844    24731778.922
       206.000         147.000
 03  3 21 23 42  0.0000000  0 10G23G18G17G16G 6G15G 3G29G26G 2
  20649393.358    -5049711.70549  -3698649.93348  20649392.963    20649400.099
       244.000         213.000
  20463760.030   -11714883.39249  -9103994.87948  20463759.794    20463765.778
       240.000         214.000
  20813444.916    -2507462.74349  -1943627.23747  20813444.462    20813452.434
       243.000         209.000
  23447048.871    -3194972.38849  -2473960.33545  23447048.746    23447057.140
       214.000         160.000
  22330082.776     9816670.45349   7651946.73446  22330083.055    22330091.881
       226.000         178.000
  20891679.593   -11095515.37749  -8626666.03447  20891679.022    20891686.361
       243.000         206.000
  23944375.064    -7510927.60649  -5806050.79945  23944374.035    23944384.629
       212.000         151.000
  24123083.548     5181274.68849   4230631.33545  24123083.557    24123094.553
       212.000         151.000
  22294029.591    -1100548.86849   -843363.36846  22294030.554    22294038.939
       227.000         176.000
  24730706.256    -7706858.34149  -5967776.69345  24730705.549    24730716.210
       206.000         145.000
 03  3 21 23 42 30.0000000  0 10G23G18G17G16G 6G15G 3G29G26G 2
  20652642.844    -5032635.44249  -3685343.75948  20652642.593    20652649.686
       244.000         213.000
  20460271.772   -11733214.18349  -9118278.59648  20460271.589    20460277.456
       239.000         213.000
  20814983.754    -2499376.39049  -1937326.19547  20814983.507    20814991.160
       242.000         210.000
  23453750.138    -3159756.94049  -2446519.77345  23453749.197    23453758.487
       214.000         160.000
  22347711.303     9909308.74249   7724132.30046  22347711.631    22347720.124
       226.000         178.000
  20884169.437   -11134981.73849  -8657419.02447  20884168.861    20884176.315
       243.000         206.000
  23926280.989    -7606011.57349  -5880142.10645  23926281.440    23926290.107
       211.000         151.000
  24137457.941     5256812.52349   4289491.92345  24137457.166    24137467.866
       214.000         151.000
  22304915.634    -1043342.52849   -798787.04146  22304916.408    22304925.035
       226.000         175.000
  24729725.149    -7712014.43549  -5971794.44245  24729725.257    24729735.590
       207.000         145.000
 03  3 21 23 43  0.0000000  0 10G23G18G17G16G 6G15G 3G29G26G 2
  20655958.552    -5015211.49449  -3671766.65348  20655958.208    20655965.411
       244.000         213.000
  20456862.177   -11751131.42049  -9132240.05548  20456861.809    20456867.996
       240.000         213.000
  20816563.029    -2491077.22349  -1930859.32047  20816562.664    20816570.361
       242.000         209.000
  23460534.273    -3124105.49649  -2418739.46145  23460534.070    23460543.472
       215.000         159.000
  22365396.764    10002246.16349   7796550.96746  22365396.568    22365406.468
       227.000         177.000
  20876695.132   -11174259.57049  -8688025.09747  20876694.465    20876702.122
       243.000         206.000
  23908226.720    -7700886.63149  -5954070.62745  23908226.499    23908236.715
       214.000         153.000
  24151901.568     5332714.35149   4348636.14145  24151901.497    24151911.502
       214.000         152.000
  22315910.197     -985566.19049   -753766.54946  22315910.846    22315919.391
       227.000         176.000
  24728823.776    -7716750.99649  -5975485.28045  24728822.942    24728834.191
       205.000         145.000
 03  3 21 23 43 30.0000000  0 10G23G18G17G16G 6G15G 3G29G26G 2
  20659340.057    -4997441.34549  -3657919.78648  20659339.777    20659346.764
       243.000         213.000
  20453531.228   -11768635.98549  -9145879.95948  20453531.025    20453536.804
       241.000         214.000
  20818182.835    -2482565.18349  -1924226.57747  20818182.502    20818190.243
       243.000         209.000
  23467401.213    -3088019.92749  -2390620.88345  23467401.356    23467410.239
       216.000         159.000
  22383138.906    10095480.76549   7869201.19046  22383139.605    22383148.281
       227.000         177.000
  20869256.853   -11213348.04049  -8718483.63447  20869256.225    20869263.788
       243.000         207.000
  23890212.692    -7795550.34849  -6027834.47945  23890212.180    23890222.553
       214.000         154.000
  24166414.180     5408978.23549   4408062.48045  24166414.599    24166424.277
       214.000         153.000
  22327012.817     -927221.70449   -708303.38246  22327013.510    22327021.078
       227.000         177.000
  24728001.927    -7721068.52449  -5978849.59945  24728000.551    24728013.225
       201.000         144.000
 03  3 21 23 44  0.0000000  0 10G23G18G17G16G 6G15G 3G29G26G 2
  20662787.233    -4979326.40949  -3643804.24847  20662786.730    20662794.026
       243.000         212.000
  20450278.660   -11785728.03149  -9159198.41648  20450278.427    20450284.348
       240.000         213.000
  20819843.281    -2473839.61049  -1917427.43847  20819842.843    20819850.964
       242.000         210.000
  23474350.415    -3051502.21149  -2362165.55545  23474350.575    23474358.836
       215.000         159.000
  22400937.201    10189010.44049   7942081.34046  22400937.594    22400946.374
       228.000         178.000
  20861854.666   -11252246.62149  -8748794.19347  20861854.169    20861861.899
       243.000         207.000
  23872239.399    -7889999.98449  -6101431.50845  23872238.993    23872249.483
       214.000         154.000
  24180995.217     5485601.96249   4467769.21945  24180995.035    24181005.853
       213.000         152.000
  22338223.286     -868310.97449   -662398.95046  22338224.399    22338231.926
       227.000         176.000
  24727259.809    -7724967.63149  -5981887.89845  24727259.165    24727271.957
       204.000         144.000
 03  3 21 23 44 30.0000000  0 10G23G18G17G16G 6G15G 3G29G26G 2
  20666299.587    -4960868.53649  -3629421.49647  20666299.249    20666306.482
       243.000         212.000
  20447104.471   -11802408.53649  -9172196.19548  20447104.464    20447110.104
       240.000         214.000
  20821544.431    -2464899.84049  -1910461.40047  20821544.045    20821551.793
       243.000         209.000
  23481381.153    -3014555.08849  -2333375.64045  23481380.559    23481390.534
       213.000         159.000
  22418791.067    10282832.93249   8015189.66746  22418791.254    22418800.526
       226.000         178.000
  20854488.775   -11290954.63849  -8778956.26847  20854488.448    20854495.800
       243.000         207.000
  23854307.279    -7984233.21849  -6174859.90845  23854306.098    23854317.064
       213.000         155.000
  24195644.310     5562582.96049   4527754.33645  24195645.563    24195655.196
       213.000         153.000
  22349540.967     -808836.44549   -616055.20546  22349540.815    22349550.462
       225.000         176.000
  24726597.545    -7728449.16749  -5984600.78745  24726598.602    24726608.036
       208.000         145.000
 03  3 21 23 45  0.0000000  0 10G23G18G17G16G 6G15G 3G29G26G 2
  20669877.011    -4942068.97449  -3614772.48647  20669876.582    20669883.859
       243.000         212.000
  20444008.526   -11818677.93949  -9184873.63348  20444008.208    20444014.116
       240.000         213.000
  20823286.672    -2455744.56449  -1903327.43147  20823286.499    20823293.945
       244.000         209.000
  23488493.357    -2977180.20749  -2304252.39045  23488492.985    23488502.655
       215.000         158.000
  22436700.236    10376946.52549   8088524.83046  22436700.525    22436710.396
       225.000         177.000
  20847159.324   -11329471.01349  -8808969.00647  20847158.762    20847166.407
       243.000         207.000
  23836416.934    -8078247.24149  -6248117.48945  23836416.882    23836427.155
       214.000         156.000
  24210361.097     5639919.25349   4588016.31645  24210361.595    24210370.825
       213.000         152.000
  22360965.439     -748800.04249   -569273.64246  22360964.886    22360974.479
       225.000         174.000
  24726014.708    -7731513.61249  -5986988.68345  24726013.797    24726024.787
       205.000         145.000
 03  3 21 23 45 30.0000000  0 10G23G18G17G16G 6G15G 3G29G26G 2
  20673519.112    -4922929.44949  -3599858.57647  20673518.821    20673525.888
       243.000         212.000
  20440990.551   -11834537.08449  -9197231.39548  20440990.107    20440996.189
       240.000         213.000
  20825069.885    -2446373.98349  -1896025.69247  20825069.454    20825077.111
       243.000         209.000
  23495686.671    -2939379.86849  -2274797.65145  23495686.565    23495694.946
       213.000         157.000
  22454664.450    10471349.19349   8162085.23246  22454665.019    22454674.391
       225.000         176.000
  20839866.468   -11367794.96849  -8838831.81447  20839865.561    20839873.459
       243.000         207.000
  23818568.781    -8172039.75149  -6321202.47045  23818567.869    23818578.632
       215.000         156.000
  24225144.993     5717608.48549   4648553.31345  24225145.621    24225155.248
       214.000         151.000
  22372496.510     -688203.76249   -522055.80446  22372498.112    22372505.532
       225.000         174.000
  24725510.684    -7734161.65249  -5989052.09545  24725509.516    24725521.789
       205.000         144.000
 03  3 21 23 46  0.0000000  0 10G23G18G17G16G 6G15G 3G29G26G 2
  20677225.716    -4903451.22849  -3584680.74247  20677225.605    20677232.688
       243.000         212.000
  20438050.688   -11849986.17849  -9209269.63348  20438050.372    20438056.121
       240.000         213.000
  20826894.304    -2436786.75049  -1888555.13847  20826894.141    20826901.632
       243.000         209.000
  23502960.382    -2901156.02949  -2245012.89945  23502960.279    23502969.426
       212.000         157.000
  22472683.460    10566039.05649   8235869.41346  22472683.745    22472692.527
       224.000         175.000
  20832610.405   -11405925.31549  -8868543.75747  20832609.954    20832617.398
       243.000         207.000
  23800763.283    -8265607.99549  -6394112.69545  23800762.955    23800772.992
       213.000         156.000
  24239995.688     5795648.68549   4709363.78545  24239995.900    24240006.114
       212.000         149.000
  22384133.855     -627049.43049   -474403.11146  22384134.856    22384142.350
       225.000         174.000
  24725085.912    -7736393.44249  -5990791.17945  24725085.430    24725096.755
       203.000         145.000
 03  3 21 23 46 30.0000000  0 10G23G18G17G16G 6G15G 3G29G26G 2
  20680996.223    -4883637.05549  -3569241.12947  20680995.944    20681002.923
       243.000         212.000
  20435188.500   -11865026.95149  -9220989.69648  20435188.224    20435194.365
       240.000         214.000
  20828759.975    -2426982.95749  -1880915.83347  20828759.570    20828767.504
       243.000         209.000
  23510314.058    -2862512.00549  -2214900.71445  23510314.848    23510322.813
       215.000         156.000
  22490756.589    10661012.80449   8309874.82446  22490756.673    22490765.182
       225.000         174.000
  20825391.178   -11443862.47549  -8898105.15947  20825390.562    20825398.144
       243.000         207.000
  23783000.645    -8358950.67049  -6466847.15245  23783000.132    23783010.521
       214.000         156.000
  24254912.427     5874036.38949   4770445.06245  24254913.153    24254923.071
       211.000         148.000
  22395876.721     -565340.59849   -426318.34546  22395876.467    22395885.342
       225.000         173.000
  24724739.900    -7738211.16549  -5992207.59645  24724739.049    24724750.863
       206.000         145.000
 03  3 21 23 47  0.0000000  0 10G23G18G17G16G 6G15G 3G29G26G 2
  20684830.555    -4863487.55449  -3553540.21847  20684830.290    20684837.486
       243.000         212.000
  20432404.018   -11879659.41049  -9232391.59148  20432403.931    20432409.773
       240.000         214.000
  20830666.987    -2416961.37949  -1873106.82047  20830666.640    20830674.355
       243.000         209.000
  23517747.856    -2823449.08449  -2184462.14445  23517748.741    23517756.015
       214.000         157.000
  22508883.396    10756269.51749   8384100.71946  22508883.864    22508892.694
       223.000         174.000
  20818209.123   -11481604.56849  -8927514.56347  20818208.554    20818216.262
       244.000         207.000
  23765281.553    -8452064.30449  -6539403.12745  23765280.928    23765292.034
       212.000         155.000
  24269894.974     5952770.08949   4831795.92145  24269894.682    24269905.879
       211.000         147.000
  22407724.752     -503078.26349   -377802.29046  22407725.045    22407734.834
       225.000         174.000
  24724472.797    -7739614.60749  -5993301.21345  24724471.634    24724483.145
       206.000         145.000
 03  3 21 23 47 30.0000000  0 10G23G18G17G16G 6G15G 3G29G26G 2
  20688728.362    -4843004.64149  -3537579.51047  20688728.042    20688735.256
       243.000         212.000
  20429697.125   -11893884.26149  -9243475.87548  20429696.835    20429702.812
       240.000         213.000
  20832615.672    -2406721.17949  -1865127.45447  20832615.201    20832622.922
       242.000         209.000
  23525260.695    -2783969.87549  -2153699.17045  23525259.262    23525269.112
       212.000         156.000
  22527063.470    10851806.69849   8458545.16746  22527063.668    22527072.918
       222.000         173.000
  20811064.249   -11519151.09349  -8956771.57847  20811063.870    20811071.355
       244.000         208.000
  23747606.441    -8544946.59049  -6611778.83545  23747605.255    23747616.644
       214.000         155.000
  24284942.781     6031847.27349   4893414.44845  24284942.404    24284952.605
       210.000         146.000
  22419677.728     -440265.10649   -328857.02846  22419678.999    22419687.115
       226.000         174.000
  24724284.516    -7740604.70749  -5994072.74345  24724284.504    24724295.840
       204.000         145.000
 03  3 21 23 48  0.0000000  0 10G23G18G17G16G 6G15G 3G29G26G 2
  20692689.422    -4822189.33149  -3521359.78747  20692689.079    20692696.161
       243.000         212.000
  20427067.655   -11907702.07249  -9254242.98048  20427067.386    20427073.529
       239.000         213.000
  20834606.068    -2396261.60749  -1856977.14647  20834605.703    20834613.276
       243.000         209.000
  23532851.909    -2744076.33649  -2122613.33545  23532851.446    23532859.720
       213.000         155.000
  22545296.719    10947622.79749   8533206.94746  22545297.315    22545306.046
       223.000         173.000
  20803956.922   -11556500.65549  -8985875.11647  20803956.301    20803964.140
       244.000         208.000
  23729976.082    -8637594.50449  -6683971.91945  23729975.750    23729986.226
       215.000         155.000
  24300055.597     6111266.23249   4955299.28345  24300056.081    24300065.994
       211.000         147.000
  22431735.226     -376902.70849   -279483.77446  22431735.183    22431745.081
       224.000         173.000
  24724174.725    -7741181.70749  -5994522.36245  24724174.360    24724185.103
       206.000         144.000
 03  3 21 23 48 30.0000000  0 10G23G18G17G16G 6G15G 3G29G26G 2
  20696713.240    -4801043.74249  -3504882.70647  20696712.654    20696720.151
       243.000         212.000
  20424515.403   -11921113.87849  -9264693.72748  20424515.132    20424520.970
       240.000         214.000
  20836638.283    -2385582.24449  -1848655.57947  20836637.846    20836645.684
       243.000         209.000
  23540521.839    -2703770.80749  -2091206.48945  23540522.685    23540529.689
       215.000         156.000
  22563582.557    11043715.17749   8608084.00646  22563582.647    22563592.184
       222.000         173.000
  20796887.020   -11593653.09949  -9014825.05647  20796886.385    20796893.866
       244.000         208.000
  23712390.846    -8730005.95849  -6755980.76945  23712390.943    23712400.616
       215.000         156.000
  24315232.920     6191024.09849   5017448.20245  24315232.385    24315243.517
       210.000         147.000
  22443896.745     -312993.79849   -229684.65446  22443897.403    22443906.710
       224.000         172.000
  24724143.570    -7741346.84149  -5994651.03645  24724143.811    24724153.983
       206.000         145.000
 03  3 21 23 49  0.0000000  0 10G23G18G17G16G 6G15G 3G29G26G 2
  20700799.562    -4779569.75449  -3488149.72847  20700799.095    20700806.401
       243.000         212.000
  20422040.374   -11934120.56549  -9274828.79348  20422040.106    20422046.049
       240.000         214.000
  20838712.325    -2374682.75549  -1840162.48347  20838711.960    20838719.779
       243.000         209.000
  23548269.693    -2663056.14949  -2059480.83245  23548269.622    23548277.790
       214.000         156.000
  22581920.422    11140081.31849   8683174.38446  22581920.442    22581930.330
       221.000         173.000
  20789854.769   -11630607.70949  -9043620.83847  20789854.213    20789861.958
       243.000         208.000
  23694850.894    -8822178.69949  -6827803.58645  23694850.866    23694861.108
       214.000         156.000
  24330474.402     6271118.20249   5079859.12845  24330474.553    24330485.530
       210.000         148.000
  22456161.761     -248540.91449   -179461.67546  22456161.973    22456170.768
       222.000         171.000
  24724190.495    -7741101.14449  -5994459.60745  24724190.459    24724200.687
       207.000         144.000
 03  3 21 23 49 30.0000000  0 10G23G18G17G16G 6G15G 3G29G26G 2
  20704948.076    -4757769.26649  -3471162.33847  20704947.833    20704955.145
       243.000         212.000
  20419642.139   -11946723.38049  -9284649.14748  20419642.036    20419647.810
       240.000         214.000
  20840828.457    -2363562.76049  -1831497.56547  20840828.195    20840835.796
       242.000         209.000
  23556094.899    -2621934.87049  -2027438.33745  23556094.955    23556103.686
       216.000         155.000
  22600309.912    11236718.93549   8758476.30346  22600309.741    22600320.392
       223.000         173.000
  20782860.259   -11667364.10749  -9072262.16947  20782859.726    20782867.439
       243.000         208.000
  23677356.748    -8914110.79849  -6899438.88745  23677356.807    23677366.999
       213.000         156.000
  24345779.389     6351545.94049   5142530.00145  24345779.228    24345790.090
       210.000         148.000
  22468529.635     -183546.80849   -128816.95146  22468529.970    22468538.897
       222.000         171.000
  24724315.286    -7740445.77249  -5993948.93145  24724314.963    24724325.052
       206.000         144.000
 03  3 21 23 50  0.0000000  0 10G23G18G17G16G 6G15G 3G29G26G 2
  20709158.475    -4735643.74449  -3453921.67547  20709158.148    20709165.430
       242.000         212.000
  20417320.717   -11958922.58349  -9294155.00348  20417320.323    20417326.106
       239.000         214.000
  20842986.624    -2352221.43749  -1822660.17647  20842986.131    20842994.094
       242.000         209.000
  23563997.155    -2580408.96349  -1995080.54045  23563996.525    23564005.991
       214.000         155.000
  22618750.841    11333626.11949   8833988.27546  22618751.684    22618761.617
       220.000         173.000
  20775903.608   -11703921.37949  -9100748.33247  20775902.982    20775910.864
       243.000         208.000
  23659908.847    -9005799.43649  -6970884.48045  23659908.376    23659918.170
       213.000         157.000
  24361147.383     6432304.98649   5205459.06445  24361148.298    24361159.590
       212.000         150.000
  22481000.160     -118013.37449    -77751.99046  22481001.007    22481010.117
       222.000         172.000
  24724517.857    -7739381.34749  -5993119.53045  24724518.162    24724528.175
       207.000         147.000
 03  3 21 23 50 30.0000000  0 10G23G18G17G16G 6G15G 3G29G26G 2
  20713430.560    -4713193.62349  -3436428.07547  20713430.101    20713437.479
       242.000         212.000
  20415076.048   -11970718.17449  -9303346.35548  20415075.897    20415081.818
       239.000         214.000
  20845187.303    -2340656.99749  -1813648.92547  20845186.817    20845194.453
       241.000         208.000
  23571976.118    -2538479.88749  -1962408.60345  23571976.071    23571984.870
       215.000         155.000
  22637242.769    11430801.75349   8909709.42446  22637242.943    22637253.168
       221.000         173.000
  20768985.286   -11740277.40149  -9129077.67847  20768984.941    20768992.443
       243.000         208.000
  23642507.867    -9097241.15049  -7042137.66945  23642507.193    23642517.482
       214.000         157.000
  24376578.241     6513394.43249   5268645.57045  24376578.676    24376588.531
       213.000         150.000
  22493573.074      -51942.05449    -26267.87446  22493573.793    22493582.191
       224.000         172.000
  24724798.296    -7737907.63249  -5991971.18745  24724797.989    24724809.725
       209.000         149.000
 03  3 21 23 51  0.0000000  0 10G23G18G17G16G 6G15G 3G29G26G 2
  20717763.823    -4690422.05449  -3418683.99547  20717763.421    20717770.717
       241.000         212.000
  20412907.778   -11982112.49649  -9312225.02948  20412907.228    20412913.456
       240.000         214.000
  20847430.310    -2328869.70349  -1804464.02047  20847429.505    20847437.558
       241.000         208.000
  23580030.929    -2496151.42049  -1929425.43345  23580031.254    23580039.789
       217.000         157.000
  22655785.230    11528242.31849   8985637.01746  22655785.856    22655795.417
       223.000         173.000
  20762105.180   -11776432.66549  -9157250.58347  20762104.734    20762112.132
       244.000         208.000
  23625154.234    -9188434.47849  -7113197.30745  23625153.826    23625163.626
       213.000         157.000
  24392071.306     6594810.25349   5332086.39845  24392072.340    24392081.897
       211.000         150.000
  22506247.867       14663.77849     25632.75946  22506247.669    22506257.067
       223.000         172.000
  24725156.312    -7736026.74549  -5990505.58045  24725155.821    24725167.148
       208.000         149.000
 03  3 21 23 51 30.0000000  0 10G23G18G17G16G 6G15G 3G29G26G 2
  20722158.072    -4667330.02349  -3400690.21347  20722157.809    20722165.097
       242.000         212.000
  20410815.922   -11993105.27849  -9320790.81648  20410815.786    20410821.499
       240.000         214.000
  20849716.006    -2316858.02449  -1795104.27647  20849715.662    20849723.277
       241.000         208.000
  23588161.731    -2453425.24449  -1896132.37545  23588162.885    23588169.763
       218.000         158.000
  22674377.877    11625946.28449   9061769.84646  22674378.654    22674387.298
       223.000         172.000
  20755263.583   -11812385.78949  -9185265.97947  20755262.960    20755270.425
       244.000         208.000
  23607848.411    -9279376.63449  -7184061.23445  23607847.767    23607857.518
       214.000         158.000
  24407626.142     6676550.74949   5395780.23645  24407626.742    24407637.038
       213.000         149.000
  22519023.867       81802.11949     77948.31846  22519024.044    22519033.479
       224.000         172.000
  24725591.407    -7733739.19849  -5988723.09345  24725590.700    24725602.001
       207.000         148.000
 03  3 21 23 52  0.0000000  0 10G23G18G17G16G 6G15G 3G29G26G 2
  20726612.962    -4643919.50249  -3382448.24847  20726612.695    20726619.951
       242.000         212.000
  20408800.260   -12003697.58349  -9329044.54548  20408800.012    20408805.918
       239.000         214.000
  20852044.435    -2304622.01149  -1785569.71847  20852043.970    20852052.044
       240.000         208.000
  23596367.654    -2410304.18549  -1862531.61745  23596367.485    23596376.287
       216.000         159.000
  22693020.216    11723911.13749   9138105.96446  22693021.218    22693030.086
       223.000         172.000
  20748460.456   -11848136.31649  -9213123.50547  20748460.130    20748467.187
       244.000         208.000
  23590590.877    -9370065.30849  -7254727.62345  23590590.784    23590600.463
       214.000         159.000
  24423242.237     6758613.25249   5459724.97945  24423242.751    24423254.109
       210.000         147.000
  22531900.866      149470.20849    130676.67646  22531900.940    22531910.765
       224.000         172.000
  24726103.757    -7731046.11549  -5986624.61545  24726103.585    24726113.826
       209.000         147.000
 03  3 21 23 52 30.0000000  0 10G23G18G17G16G 6G15G 3G29G26G 2
  20731128.182    -4620191.98149  -3363959.26947  20731127.869    20731135.129
       242.000         211.000
  20406860.668   -12013890.34449  -9336986.93848  20406860.474    20406866.482
       240.000         214.000
  20854415.667    -2292161.06349  -1775859.88747  20854415.359    20854423.440
       241.000         208.000
  23604647.827    -2366790.35049  -1828624.79045  23604647.363    23604656.540
       215.000         158.000
  22711711.756    11822134.91449   9214643.84146  22711711.959    22711721.723
       221.000         171.000
  20741696.099   -11883683.17049  -9240822.32447  20741695.433    20741703.245
       243.000         208.000
  23573382.120    -9460497.81049  -7325194.39945  23573382.367    23573391.381
       216.000         160.000
  24438919.169     6840995.47449   5523918.85545  24438919.198    24438930.695
       207.000         145.000
  22544878.112      217665.89149    183816.13346  22544879.375    22544887.596
       223.000         173.000
  24726693.449    -7727948.15549  -5984210.63845  24726693.636    24726703.146
       205.000         146.000
 03  3 21 23 53  0.0000000  0 10G23G18G17G16G 6G15G 3G29G26G 2
  20735703.483    -4596148.81649  -3345224.33247  20735703.361    20735710.443
       242.000         212.000
  20404996.965   -12023684.10349  -9344618.42048  20404996.665    20405002.590
       239.000         214.000
  20856829.974    -2279473.69749  -1765973.62947  20856829.557    20856837.411
       241.000         208.000
  23613002.562    -2322885.94249  -1794413.63845  23613002.578    23613011.038
       217.000         157.000
  22730451.999    11920615.47749   9291381.80746  22730452.045    22730462.069
       222.000         171.000
  20734970.716   -11919025.08349  -9268361.45647  20734970.129    20734977.567
       242.000         208.000
  23556222.660    -9550671.37549  -7395459.40445  23556222.217    23556231.850
       217.000         160.000
  24454656.392     6923695.39449   5588360.28145  24454655.784    24454667.052
       207.000         143.000
  22557955.459      286387.12149    237365.11846  22557956.442    22557964.816
       224.000         174.000
  24727359.752    -7724446.22849  -5981481.87545  24727359.565    24727370.436
       208.000         145.000
 03  3 21 23 53 30.0000000  0 10G23G18G17G16G 6G15G 3G29G26G 2
  20740338.497    -4571791.78049  -3326244.82147  20740338.243    20740345.543
       242.000         212.000
  20403209.011   -12033079.91049  -9351939.81348  20403208.882    20403214.546
       240.000         214.000
  20859287.451    -2266559.62549  -1755910.71547  20859287.346    20859294.774
       242.000         208.000
  23621431.219    -2278593.61549  -1759900.19145  23621431.243    23621440.161
       214.000         157.000
  22749240.712    12019350.55249   9368318.08946  22749240.608    22749251.463
       224.000         171.000
  20728284.407   -11954161.42949  -9295740.39547  20728283.798    20728291.449
       242.000         208.000
  23539112.879    -9640583.78449  -7465520.92045  23539111.772    23539121.725
       217.000         160.000
  24470453.594     7006710.22849   5653047.11345  24470453.498    24470464.758
       209.000         141.000
  22571132.279      355631.04049    291321.39946  22571132.830    22571142.028
       225.000         174.000
  24728102.912    -7720541.50449  -5978439.23945  24728103.770    24728112.876
       209.000         145.000
 03  3 21 23 54  0.0000000  0 10G23G18G17G16G 6G15G 3G29G26G 2
  20745032.878    -4547122.59449  -3307022.08147  20745032.663    20745039.577
       241.000         211.000
  20401496.592   -12042078.65249  -9358951.80548  20401496.378    20401502.228
       239.000         214.000
  20861788.189    -2253418.52449  -1745670.89647  20861788.065    20861795.531
       243.000         208.000
  23629933.111    -2233915.90649  -1725086.43945  23629933.507    23629941.758
       216.000         156.000
  22768077.658    12118338.02649   9445451.04446  22768078.937    22768088.082
       223.000         170.000
  20721637.436   -11989091.44649  -9322958.56847  20721637.039    20721644.377
       242.000         208.000
  23522053.172    -9730232.44049  -7535376.89145  23522053.251    23522062.817
       216.000         161.000
  24486310.469     7090037.76549   5717977.62245  24486310.720    24486322.166
       206.000         140.000
  22584408.023      425395.38349    345683.18646  22584408.120    22584416.854
       222.000         173.000
  24728922.718    -7716234.93149  -5975083.49145  24728922.443    24728932.927
       208.000         146.000
 03  3 21 23 54 30.0000000  0 10G23G18G17G16G 6G15G 3G29G26G 2
  20749786.238    -4522143.47449  -3287557.82447  20749785.962    20749793.088
       242.000         212.000
  20399859.443   -12050681.87049  -9365655.59448  20399859.241    20399865.323
       240.000         214.000
  20864332.239    -2240049.71049  -1735253.64547  20864332.223    20864339.534
       242.000         208.000
  23638507.912    -2188855.82949  -1689974.73545  23638507.212    23638517.225
       217.000         157.000
  22786962.039    12217575.09049   9522778.48446  22786962.774    22786971.077
       222.000         170.000
  20715029.783   -12023814.84049  -9350015.73347  20715029.254    20715036.588
       242.000         209.000
  23505043.994    -9819615.36449  -7605025.80945  23505042.937    23505053.036
       215.000         160.000
  24502226.028     7173674.89449   5783149.34045  24502225.712    24502236.325
       204.000         140.000
  22597782.183      495677.01749    400448.05746  22597781.921    22597790.995
       223.000         172.000
  24729818.398    -7711528.15249  -5971415.87045  24729817.743    24729828.120
       208.000         146.000
 03  3 21 23 55  0.0000000  0 10G23G18G17G16G 6G15G 3G29G26G 2
  20754598.486    -4496855.04549  -3267852.54747  20754598.201    20754605.361
       241.000         212.000
  20398297.663   -12058888.91649  -9372050.67248  20398297.263    20398303.313
       239.000         214.000
  20866919.923    -2226451.37949  -1724657.54347  20866919.522    20866927.468
       242.000         208.000
  23647155.308    -2143414.61649  -1654566.06745  23647155.175    23647163.921
       215.000         157.000
  22805893.669    12317060.61649   9600299.52946  22805893.588    22805904.236
       220.000         169.000
  20708461.785   -12058329.51449  -9376910.25647  20708461.071    20708468.911
       242.000         208.000
  23488086.118    -9908729.23249  -7674465.08245  23488085.447    23488095.586
       216.000         161.000
  24518200.220     7257620.30649   5848561.30245  24518199.344    24518210.584
       205.000         141.000
  22611254.565      566474.67249    455615.03346  22611254.774    22611263.242
       223.000         172.000
  24730790.251    -7706420.82949  -5967436.14045  24730789.641    24730800.513
       209.000         146.000
 03  3 21 23 55 30.0000000  0 10G23G18G17G16G 6G15G 3G29G26G 2
  20759469.132    -4471259.66249  -3247908.08847  20759468.659    20759475.757
       241.000         212.000
  20396810.888   -12066701.71549  -9378138.54448  20396810.472    20396816.542
       239.000         214.000
  20869551.268    -2212623.76449  -1713882.78247  20869550.861    20869558.929
       242.000         209.000
  23655874.161    -2097595.51049  -1618862.92545  23655874.039    23655882.839
       216.000         156.000
  22824871.880    12416791.75549   9678011.95846  22824871.800    22824882.851
       219.000         168.000
  20701933.594   -12092635.30049  -9403642.01047  20701932.760    20701940.517
       242.000         209.000
  23471179.725    -9997572.10249  -7743693.18645  23471179.191    23471189.291
       216.000         161.000
  24534232.617     7341871.03049   5914211.15445  24534232.754    24534243.206
       204.000         140.000
  22624824.516      637785.07049    511181.56446  22624824.580    22624833.648
       222.000         171.000
  24731837.848    -7700915.06849  -5963145.93145  24731837.175    24731849.262
       208.000         145.000
 03  3 21 23 56  0.0000000  0 10G23G18G17G16G 6G15G 3G29G26G 2
  20764397.995    -4445358.14549  -3227725.07947  20764397.817    20764404.774
       241.000         212.000
  20395399.185   -12074120.05849  -9383919.05448  20395398.989    20395404.675
       240.000         214.000
  20872226.535    -2198565.31349  -1702928.14847  20872225.879    20872234.015
       241.000         208.000
  23664664.770    -2051400.06149  -1582866.54645  23664665.213    23664673.931
       215.000         156.000
  22843896.583    12516767.03749   9755914.63646  22843897.289    22843905.879
       221.000         167.000
  20695445.507   -12126730.37949  -9430209.58547  20695444.802    20695452.410
       241.000         209.000
  23454325.645   -10086140.50649  -7812707.41345  23454325.638    23454335.169
       217.000         161.000
  24550322.819     7426425.32449   5980097.57245  24550323.125    24550333.911
       205.000         139.000
  22638491.558      709606.60649    567146.35046  22638491.758    22638500.939
       220.000         170.000
  24732961.235    -7695010.75749  -5958545.16645  24732960.977    24732971.372
       209.000         144.000
 03  3 21 23 56 30.0000000  0 10G23G18G17G16G 6G15G 3G29G26G 2
  20769384.660    -4419153.25049  -3207305.67447  20769384.594    20769391.427
       242.000         212.000
  20394062.136   -12081146.12449  -9389393.88948  20394061.765    20394067.621
       239.000         214.000
  20874945.536    -2184276.58249  -1691794.07347  20874945.116    20874953.342
       242.000         208.000
  23673526.406    -2004832.10349  -1546579.87745  23673526.089    23673535.601
       213.000         155.000
  22862967.094    12616983.26149   9834005.05646  22862967.147    22862976.824
       219.000         166.000
  20688997.477   -12160615.01149  -9456613.17347  20688996.955    20689004.466
       242.000         209.000
  23437524.193   -10174433.07649  -7881506.71045  23437525.269    23437533.020
       218.000         162.000
  24566470.067     7511279.87749   6046217.93745  24566470.157    24566480.130
       205.000         140.000
  22652255.223      781935.75649    623506.68446  22652255.200    22652264.519
       221.000         170.000
  24734160.324    -7688709.96249  -5953635.46045  24734160.717    24734170.567
       210.000         145.000
 03  3 21 23 57  0.0000000  0 10G23G18G17G16G 6G15G 3G29G26G 2
  20774428.756    -4392646.73249  -3186651.23147  20774428.243    20774435.248
       241.000         212.000
  20392799.514   -12087781.00649  -9394563.90248  20392799.279    20392805.040
       240.000         214.000
  20877708.629    -2169756.40049  -1680479.64547  20877707.914    20877716.253
       240.000         208.000
  23682458.319    -1957894.14449  -1510004.90845  23682457.686    23682467.067
       213.000         155.000
  22882082.979    12717438.02249   9912281.35846  22882083.203    22882093.044
       220.000         166.000
  20682589.611   -12194288.34849  -9482852.11047  20682588.832    20682596.383
       242.000         209.000
  23420775.662   -10262447.44849  -7950089.24045  23420775.415    23420784.409
       218.000         162.000
  24582674.043     7596431.90749   6112570.11845  24582675.378    24582685.179
       205.000         141.000
  22666115.303      854769.72649    680260.39746  22666115.984    22666124.534
       222.000         170.000
  24735434.673    -7682014.07349  -5948417.90645  24735434.235    24735445.870
       209.000         146.000
 03  3 21 23 57 30.0000000  0 10G23G18G17G16G 6G15G 3G29G26G 2
  20779529.768    -4365840.08549  -3165762.93347  20779529.121    20779536.387
       242.000         211.000
  20391611.366   -12094025.23349  -9399429.51448  20391611.141    20391616.927
       240.000         214.000
  20880515.803    -2155003.98549  -1668984.25947  20880515.260    20880523.332
       241.000         207.000
  23691460.370    -1910588.47249  -1473143.40245  23691460.663    23691468.657
       215.000         155.000
  22901244.056    12818129.46549   9990742.07746  22901244.498    22901255.491
       220.000         166.000
  20676222.170   -12227749.33249  -9508925.57647  20676221.630    20676229.110
       243.000         209.000
  23404080.572   -10350180.67749  -8018452.69245  23404080.662    23404088.920
       217.000         162.000
  24598934.302     7681879.52349   6179152.62845  24598934.262    24598945.863
       203.000         138.000
  22680070.903      928106.35349    737405.77846  22680070.784    22680079.923
       222.000         170.000
  24736783.871    -7674924.03349  -5942893.20845  24736784.351    24736793.514
       210.000         144.000
 03  3 21 23 58  0.0000000  0 10G23G18G17G16G 6G15G 3G29G26G 2
  20784687.660    -4338735.16049  -3144642.20447  20784687.560    20784694.341
       242.000         211.000
  20390497.244   -12099879.91749  -9403991.58948  20390497.023    20390502.718
       240.000         214.000
  20883367.357    -2140018.55449  -1657307.30947  20883366.856    20883375.001
       240.000         207.000
  23700532.034    -1862917.94549  -1435997.59745  23700531.903    23700540.797
       215.000         155.000
  22920449.771    12919054.89949  10069385.12146  22920449.863    22920460.160
       221.000         167.000
  20669895.340   -12260997.23749  -9534833.01147  20669894.840    20669902.471
       243.000         210.000
  23387439.291   -10437630.79149  -8086595.53845  23387438.973    23387448.820
       219.000         162.000
  24615250.168     7767619.84649   6245963.21345  24615249.567    24615261.611
       195.000         137.000
  22694121.486     1001942.58449    794940.47546  22694121.816    22694130.844
       220.000         169.000
  24738207.923    -7667441.07749  -5937062.34545  24738207.885    24738218.736
       209.000         145.000
 03  3 21 23 58 30.0000000  0 10G23G18G17G16G 6G15G 3G29G26G 2
  20789902.116    -4311333.29049  -3123290.09147  20789901.880    20789908.831
       241.000         211.000
  20389457.118   -12105345.67349  -9408250.59848  20389456.863    20389462.642
       240.000         214.000
  20886263.449    -2124799.37949  -1645448.22047  20886263.091    20886271.084
       241.000         207.000
  23709672.486    -1814884.59949  -1398569.06345  23709672.006    23709681.441
       214.000         154.000
  22939699.658    13020212.46949  10148209.04546  22939700.886    22939710.660
       220.000         166.000
  20663609.244   -12294030.73949  -9560573.38147  20663608.731    20663616.415
       242.000         210.000
  23370852.458   -10524794.94149  -8154515.56046  23370851.486    23370861.826
       218.000         164.000
  24631621.336     7853650.79949   6313000.25645  24631621.533    24631632.508
       196.000         135.000
  22708266.545     1076276.48149    852862.93646  22708266.085    22708275.623
       221.000         169.000
  24739706.688    -7659565.85049  -5930925.83445  24739706.278    24739717.431
       209.000         146.000
 03  3 21 23 59  0.0000000  0 10G23G18G17G16G 6G15G 3G29G26G 2
  20795172.777    -4283635.58849  -3101707.45847  20795172.472    20795179.538
       242.000         211.000
  20388490.942   -12110422.99749  -9412206.93948  20388490.542    20388496.392
       240.000         214.000
  20889204.246    -2109345.49349  -1633406.22647  20889203.935    20889211.762
       241.000         207.000
  23718881.389    -1766490.64349  -1360859.55045  23718881.090    23718890.178
       213.000         154.000
  22958993.184    13121600.37149  10227212.46846  22958993.040    22959003.496
       219.000         166.000
  20657364.224   -12326848.30349  -9586145.48647  20657363.935    20657371.287
       243.000         210.000
  23354320.717   -10611670.02849  -8222210.32846  23354320.241    23354330.412
       219.000         165.000
  24648047.295     7939970.65449   6380262.41145  24648047.732    24648060.163
       198.000         135.000
  22722506.016     1151105.76649    911171.43046  22722506.226    22722514.889
       223.000         169.000
  24741279.675    -7651299.08549  -5924484.21645  24741278.659    24741289.917
       207.000         145.000
